[[{"header":{"parameterUnit":"m.s-1","parameterCategory":1,"la1":30.6,"la2":29.2853,"lo1":-89.7004,"lo2":-87.6739,"dy":0.0162,"dx":0.0183,"nx":112,"ny":82,"refTime":"2026-02-27T00:00:00:Z","depth":0,"parameterNumber":2,"parameterNumberName":"U-component_of_WINDS"},"data":[0.0,0.0,0.0,0.0,0.0,0.0,0.0,0.0,0.0,0.0,0.0,0.0,0.0,0.0,0.0,0.0,0.0,0.0,0.0,0.0,0.0,0.0,0.0,0.0,0.0,0.0,0.0,0.0,0.0,0.0,0.0,0.0,0.0,0.0,0.0,0.0,0.0,0.0,0.0,0.0,0.0,0.0,0.0,0.0,0.0,0.0,0.0,0.0,0.0,0.0,0.0,0.0,0.0,0.0,0.0,0.0,0.0,0.0,0.0,0.0,0.0,0.0,0.0,0.0,0.0,0.0,0.0,0.0,0.0,0.0,0.0,0.0,0.0,0.0,0.0,0.0,0.0,0.0,0.0,0.0,0.0,0.0,0.0,0.0,0.0,0.0,0.0,0.0,0.0,0.0,-3.555,-3.8001,-4.1074,-4.2357,-4.0899,-4.1379,-3.9854,-3.5429,0.0,0.0,0.0,0.0,0.0,0.0,0.0,0.0,0.0,0.0,0.0,0.0,0.0,0.0,0.0,0.0,0.0,0.0,0.0,0.0,0.0,0.0,0.0,0.0,0.0,0.0,0.0,0.0,0.0,0.0,0.0,0.0,0.0,0.0,0.0,0.0,0.0,0.0,0.0,0.0,0.0,0.0,0.0,0.0,0.0,0.0,0.0,0.0,0.0,0.0,0.0,0.0,0.0,0.0,0.0,0.0,0.0,0.0,0.0,0.0,0.0,0.0,0.0,0.0,0.0,0.0,0.0,0.0,0.0,0.0,0.0,0.0,0.0,0.0,0.0,0.0,0.0,0.0,0.0,0.0,0.0,0.0,0.0,0.0,0.0,0.0,0.0,0.0,0.0,0.0,0.0,0.0,0.0,0.0,0.0,0.0,0.0,0.0,0.0,0.0,0.0,0.0,0.0,0.0,-3.5112,-3.9866,-4.1784,-4.2197,-4.0899,-4.0397,-3.8656,-3.5141,0.0,0.0,0.0,0.0,0.0,0.0,0.0,0.0,0.0,0.0,0.0,0.0,0.0,0.0,0.0,0.0,0.0,0.0,0.0,0.0,0.0,0.0,0.0,0.0,0.0,0.0,0.0,0.0,0.0,0.0,0.0,0.0,0.0,0.0,0.0,0.0,0.0,0.0,0.0,0.0,0.0,0.0,0.0,0.0,0.0,0.0,0.0,0.0,0.0,0.0,0.0,0.0,0.0,0.0,0.0,0.0,0.0,0.0,0.0,0.0,0.0,0.0,0.0,0.0,0.0,0.0,0.0,0.0,0.0,0.0,0.0,0.0,0.0,0.0,0.0,0.0,0.0,0.0,0.0,0.0,0.0,0.0,0.0,0.0,0.0,0.0,0.0,0.0,0.0,0.0,0.0,0.0,0.0,0.0,0.0,0.0,0.0,0.0,0.0,0.0,0.0,0.0,0.0,-3.4893,-3.6652,-4.0081,-4.136,-4.1576,-4.052,-3.9924,-3.8238,-3.4945,-3.3894,0.0,0.0,0.0,0.0,0.0,0.0,0.0,0.0,0.0,0.0,0.0,0.0,0.0,0.0,0.0,0.0,0.0,0.0,0.0,0.0,0.0,0.0,0.0,0.0,0.0,0.0,0.0,0.0,0.0,0.0,0.0,0.0,0.0,0.0,0.0,0.0,0.0,0.0,0.0,0.0,0.0,0.0,0.0,0.0,0.0,0.0,0.0,0.0,0.0,0.0,0.0,0.0,0.0,0.0,0.0,0.0,0.0,0.0,0.0,0.0,0.0,0.0,0.0,0.0,0.0,0.0,0.0,0.0,0.0,0.0,0.0,0.0,0.0,0.0,0.0,0.0,0.0,0.0,0.0,0.0,0.0,0.0,0.0,0.0,0.0,0.0,0.0,0.0,0.0,0.0,0.0,0.0,0.0,0.0,0.0,0.0,0.0,0.0,0.0,0.0,0.0,0.0,-3.6691,-3.8198,-3.9438,-4.0622,-4.0956,-3.9944,-3.916,-3.755,-3.4743,-3.2954,0.0,0.0,0.0,0.0,0.0,0.0,0.0,0.0,0.0,0.0,0.0,0.0,0.0,0.0,0.0,0.0,0.0,0.0,0.0,0.0,0.0,0.0,0.0,0.0,0.0,0.0,0.0,0.0,0.0,0.0,0.0,0.0,0.0,0.0,0.0,0.0,0.0,0.0,0.0,0.0,0.0,0.0,0.0,0.0,0.0,0.0,0.0,0.0,0.0,0.0,0.0,0.0,0.0,0.0,0.0,0.0,0.0,0.0,0.0,0.0,0.0,0.0,0.0,0.0,0.0,0.0,0.0,0.0,0.0,0.0,0.0,0.0,0.0,0.0,0.0,0.0,0.0,0.0,0.0,0.0,0.0,0.0,0.0,0.0,0.0,0.0,0.0,0.0,0.0,0.0,0.0,0.0,0.0,0.0,0.0,0.0,0.0,0.0,0.0,0.0,0.0,0.0,-3.6183,-3.8601,-3.8122,-3.9883,-4.0651,-3.9363,-3.752,-3.5837,-3.4511,-3.1636,0.0,0.0,0.0,0.0,0.0,0.0,0.0,0.0,0.0,0.0,0.0,0.0,0.0,0.0,0.0,0.0,0.0,0.0,0.0,0.0,0.0,0.0,0.0,0.0,0.0,0.0,0.0,0.0,0.0,0.0,0.0,0.0,0.0,0.0,0.0,0.0,0.0,0.0,0.0,0.0,0.0,0.0,0.0,0.0,0.0,0.0,0.0,0.0,0.0,0.0,0.0,0.0,0.0,0.0,0.0,0.0,0.0,0.0,0.0,0.0,0.0,0.0,0.0,0.0,0.0,0.0,0.0,0.0,0.0,0.0,0.0,0.0,0.0,0.0,0.0,0.0,0.0,0.0,0.0,0.0,0.0,0.0,0.0,0.0,0.0,0.0,0.0,0.0,0.0,0.0,0.0,0.0,0.0,0.0,0.0,0.0,0.0,0.0,0.0,0.0,0.0,0.0,-3.4266,-3.6132,0.0,-3.7825,-3.8099,-3.7625,-3.6512,-3.4996,-3.3099,0.0,0.0,0.0,0.0,0.0,0.0,0.0,0.0,0.0,0.0,0.0,0.0,0.0,0.0,0.0,0.0,0.0,0.0,0.0,0.0,0.0,0.0,0.0,0.0,0.0,0.0,0.0,0.0,0.0,0.0,0.0,0.0,0.0,0.0,0.0,0.0,0.0,0.0,0.0,0.0,0.0,0.0,0.0,0.0,0.0,0.0,0.0,0.0,0.0,0.0,0.0,0.0,0.0,0.0,0.0,0.0,0.0,0.0,0.0,0.0,0.0,0.0,0.0,0.0,0.0,0.0,0.0,0.0,0.0,0.0,0.0,0.0,0.0,0.0,0.0,0.0,0.0,0.0,0.0,0.0,0.0,0.0,0.0,0.0,0.0,0.0,0.0,0.0,0.0,0.0,0.0,0.0,0.0,0.0,0.0,0.0,0.0,0.0,0.0,0.0,0.0,0.0,-3.1315,-3.3078,-3.462,0.0,-3.6547,-3.6809,-3.6578,-3.5575,-3.4053,-3.2001,0.0,0.0,0.0,0.0,0.0,0.0,0.0,0.0,0.0,0.0,0.0,0.0,0.0,0.0,0.0,0.0,0.0,0.0,0.0,0.0,0.0,0.0,0.0,0.0,0.0,0.0,0.0,0.0,0.0,0.0,0.0,0.0,0.0,0.0,0.0,0.0,0.0,0.0,0.0,0.0,0.0,0.0,0.0,0.0,0.0,0.0,0.0,0.0,0.0,0.0,0.0,0.0,0.0,0.0,0.0,0.0,0.0,0.0,0.0,0.0,0.0,0.0,0.0,0.0,0.0,0.0,0.0,0.0,0.0,0.0,0.0,0.0,0.0,0.0,0.0,0.0,0.0,0.0,0.0,0.0,0.0,0.0,0.0,0.0,0.0,0.0,0.0,0.0,0.0,0.0,0.0,0.0,0.0,0.0,0.0,0.0,0.0,0.0,0.0,0.0,0.0,0.0,-3.0514,-3.2934,-3.4664,-3.5155,-3.6476,-3.7118,-3.6522,-3.4656,-3.2868,0.0,0.0,0.0,0.0,0.0,0.0,0.0,0.0,0.0,0.0,0.0,0.0,0.0,0.0,0.0,0.0,0.0,0.0,0.0,0.0,0.0,0.0,0.0,0.0,0.0,0.0,0.0,0.0,0.0,0.0,0.0,0.0,0.0,0.0,0.0,0.0,0.0,0.0,0.0,0.0,0.0,0.0,0.0,0.0,0.0,0.0,0.0,0.0,0.0,0.0,0.0,0.0,0.0,0.0,0.0,0.0,0.0,0.0,0.0,0.0,0.0,0.0,0.0,0.0,0.0,0.0,0.0,0.0,0.0,0.0,0.0,0.0,0.0,0.0,0.0,0.0,0.0,0.0,0.0,0.0,0.0,0.0,0.0,0.0,0.0,0.0,0.0,0.0,0.0,0.0,0.0,0.0,0.0,0.0,0.0,0.0,0.0,0.0,0.0,0.0,0.0,0.0,0.0,-3.0353,-3.1996,-3.337,-3.4457,-3.4799,-3.4806,-3.4423,-3.385,-3.238,-2.9751,0.0,0.0,0.0,0.0,0.0,0.0,0.0,0.0,0.0,0.0,0.0,0.0,0.0,0.0,0.0,0.0,0.0,0.0,0.0,0.0,0.0,0.0,0.0,0.0,0.0,0.0,0.0,0.0,0.0,0.0,0.0,0.0,0.0,0.0,0.0,0.0,0.0,0.0,0.0,0.0,0.0,0.0,0.0,0.0,0.0,0.0,0.0,0.0,0.0,0.0,0.0,0.0,0.0,0.0,0.0,0.0,0.0,0.0,0.0,0.0,0.0,0.0,0.0,0.0,0.0,0.0,0.0,0.0,0.0,0.0,0.0,0.0,0.0,0.0,0.0,0.0,0.0,0.0,0.0,0.0,0.0,0.0,0.0,0.0,0.0,0.0,0.0,0.0,0.0,0.0,0.0,0.0,0.0,0.0,0.0,0.0,0.0,0.0,0.0,0.0,0.0,0.0,-3.0134,-3.1536,-3.2867,-3.4354,-3.4364,-3.4142,-3.3736,-3.3687,-3.229,-2.8885,0.0,0.0,0.0,0.0,0.0,0.0,0.0,0.0,0.0,0.0,0.0,0.0,0.0,0.0,0.0,0.0,0.0,0.0,0.0,0.0,0.0,0.0,0.0,0.0,0.0,0.0,0.0,0.0,0.0,0.0,0.0,0.0,0.0,0.0,0.0,0.0,0.0,0.0,0.0,0.0,0.0,0.0,0.0,0.0,0.0,0.0,0.0,0.0,0.0,0.0,0.0,0.0,0.0,0.0,0.0,0.0,0.0,0.0,0.0,0.0,0.0,0.0,0.0,0.0,0.0,0.0,0.0,0.0,0.0,0.0,0.0,0.0,0.0,0.0,0.0,0.0,0.0,0.0,0.0,0.0,0.0,0.0,0.0,0.0,0.0,0.0,0.0,0.0,0.0,0.0,0.0,0.0,0.0,0.0,0.0,0.0,0.0,0.0,0.0,0.0,0.0,0.0,-2.9785,-3.1254,-3.2731,-3.4383,-3.4529,-3.4263,-3.3774,-3.3701,-3.2094,-2.8417,0.0,0.0,0.0,0.0,0.0,0.0,0.0,0.0,0.0,0.0,0.0,0.0,0.0,0.0,0.0,0.0,0.0,0.0,0.0,0.0,0.0,0.0,0.0,0.0,0.0,0.0,0.0,0.0,0.0,0.0,0.0,0.0,0.0,0.0,0.0,0.0,0.0,0.0,0.0,0.0,0.0,0.0,0.0,0.0,0.0,0.0,0.0,0.0,0.0,0.0,0.0,0.0,0.0,0.0,0.0,0.0,0.0,0.0,0.0,0.0,-2.7442,0.0,0.0,0.0,0.0,0.0,0.0,0.0,0.0,0.0,0.0,0.0,0.0,0.0,0.0,0.0,0.0,0.0,0.0,0.0,0.0,0.0,0.0,0.0,0.0,0.0,0.0,0.0,0.0,0.0,0.0,0.0,0.0,0.0,0.0,0.0,0.0,0.0,0.0,0.0,0.0,0.0,-2.8957,-3.0079,-3.1105,-3.2456,-3.2419,-3.2117,-3.1747,-3.1411,-3.0078,-2.7379,-2.6462,0.0,0.0,0.0,0.0,0.0,0.0,0.0,0.0,0.0,0.0,0.0,0.0,0.0,0.0,0.0,0.0,0.0,0.0,0.0,0.0,0.0,0.0,0.0,0.0,0.0,0.0,0.0,0.0,0.0,0.0,0.0,0.0,0.0,0.0,0.0,0.0,0.0,0.0,0.0,0.0,0.0,0.0,0.0,0.0,0.0,0.0,0.0,0.0,0.0,0.0,0.0,0.0,0.0,0.0,0.0,0.0,0.0,0.0,0.0,0.0,-2.7893,0.0,0.0,0.0,0.0,0.0,0.0,0.0,0.0,0.0,0.0,0.0,0.0,0.0,0.0,0.0,0.0,0.0,0.0,0.0,0.0,0.0,0.0,0.0,0.0,0.0,0.0,0.0,0.0,0.0,0.0,0.0,0.0,0.0,0.0,0.0,0.0,0.0,0.0,0.0,0.0,-2.7762,-2.9054,-3.0176,-3.1048,-3.1036,-3.0877,-3.0663,-3.0251,-2.9239,-2.7459,-2.625,0.0,0.0,0.0,0.0,0.0,0.0,0.0,0.0,0.0,0.0,0.0,0.0,0.0,0.0,0.0,0.0,0.0,0.0,0.0,0.0,0.0,0.0,0.0,0.0,0.0,0.0,0.0,0.0,0.0,0.0,0.0,0.0,0.0,0.0,0.0,0.0,0.0,0.0,0.0,0.0,0.0,0.0,0.0,0.0,0.0,0.0,0.0,0.0,0.0,0.0,0.0,0.0,0.0,-2.8213,-2.8724,-2.9064,-2.9471,-2.9458,-2.9191,-2.8777,-2.8531,-2.839,-2.7931,0.0,0.0,0.0,0.0,0.0,0.0,0.0,0.0,0.0,0.0,0.0,0.0,0.0,0.0,0.0,0.0,0.0,0.0,0.0,0.0,0.0,0.0,0.0,0.0,-2.4735,-2.4881,0.0,0.0,0.0,0.0,0.0,0.0,0.0,0.0,0.0,0.0,0.0,0.0,-2.6431,-2.8012,-2.9139,-2.9661,-2.9704,-2.9655,-2.9556,-2.9176,-2.8533,-2.7469,-2.6191,-2.4719,0.0,0.0,0.0,0.0,0.0,0.0,0.0,0.0,0.0,0.0,0.0,0.0,0.0,0.0,0.0,0.0,0.0,0.0,0.0,0.0,0.0,0.0,0.0,0.0,0.0,0.0,0.0,0.0,0.0,0.0,0.0,0.0,-2.7468,-2.7055,0.0,0.0,0.0,0.0,0.0,0.0,0.0,0.0,0.0,0.0,0.0,0.0,0.0,-2.3911,-2.3684,-2.542,-2.628,-2.6264,-2.7756,-2.8611,-2.8965,-2.9013,-2.8782,-2.851,-2.9067,0.0,-2.9214,-2.9158,0.0,0.0,0.0,0.0,0.0,0.0,0.0,0.0,0.0,0.0,0.0,0.0,0.0,0.0,0.0,0.0,0.0,0.0,0.0,0.0,0.0,0.0,-2.3277,-2.3217,-2.3286,-2.3271,0.0,-2.3047,-2.3008,-2.2313,-2.1726,0.0,0.0,0.0,0.0,0.0,0.0,0.0,-2.552,-2.637,-2.6973,-2.741,-2.745,-2.7399,-2.7399,-2.7022,-2.6547,-2.6003,-2.5073,-2.4415,-2.4008,-2.2734,0.0,0.0,0.0,0.0,0.0,0.0,0.0,0.0,0.0,0.0,0.0,0.0,0.0,0.0,0.0,0.0,0.0,0.0,0.0,0.0,0.0,0.0,0.0,0.0,0.0,0.0,0.0,0.0,0.0,-2.6318,-2.6632,-2.6938,-2.6569,-2.5818,0.0,0.0,0.0,0.0,0.0,0.0,0.0,0.0,0.0,-2.4362,-2.4968,-2.5593,-2.6056,-2.7139,-2.7771,-2.7958,-2.8711,-2.9256,-2.9603,-2.9603,-2.9451,-2.9309,-2.9697,-2.9838,-2.9665,-2.848,-2.682,-2.5082,0.0,0.0,0.0,0.0,-2.3111,-2.3479,-2.303,-2.2998,0.0,-2.1979,0.0,0.0,0.0,0.0,0.0,0.0,0.0,0.0,0.0,0.0,-2.3435,-2.3848,-2.397,-2.3927,-2.3673,-2.3651,-2.3368,0.0,-2.2476,-2.2168,-2.0566,0.0,0.0,0.0,0.0,-2.3276,-2.4441,-2.5433,-2.6094,-2.622,-2.6239,-2.6406,-2.6641,-2.6269,-2.6055,-2.6094,-2.5273,-2.4631,-2.4317,-2.3282,-2.2268,0.0,0.0,0.0,0.0,0.0,0.0,0.0,0.0,0.0,0.0,0.0,0.0,0.0,0.0,0.0,0.0,0.0,0.0,0.0,0.0,0.0,0.0,0.0,0.0,0.0,0.0,0.0,0.0,-2.6018,-2.6245,-2.6381,-2.6067,-2.535,0.0,0.0,0.0,0.0,0.0,0.0,-2.3748,-2.4096,-2.4604,-2.5279,-2.5921,-2.6633,-2.7587,-2.7843,-2.8218,-2.8609,-2.8609,-2.8791,-2.9124,-2.9124,-2.9124,-2.9124,-2.9124,-2.9079,-2.8926,-2.7718,-2.6174,-2.4547,-2.3688,-2.2928,-2.2389,-2.2628,-2.2944,-2.3259,-2.3733,-2.3748,-2.3503,-2.2629,-2.196,-2.1301,-2.0251,0.0,0.0,0.0,0.0,-2.1037,-2.155,-2.2137,-2.2751,-2.3403,-2.3618,-2.3646,-2.3415,-2.348,-2.3282,0.0,-2.2905,-2.2862,-2.1006,0.0,0.0,0.0,0.0,-2.3588,-2.4062,-2.5059,-2.5693,-2.5693,-2.5693,-2.581,-2.6191,-2.5869,-2.5918,-2.6367,-2.5664,-2.5137,-2.4922,-2.4102,-2.3286,-2.2383,0.0,0.0,0.0,0.0,0.0,0.0,0.0,0.0,0.0,0.0,0.0,0.0,0.0,0.0,0.0,0.0,0.0,0.0,0.0,0.0,0.0,0.0,0.0,0.0,0.0,0.0,0.0,0.0,0.0,-2.4381,-2.5105,0.0,0.0,0.0,0.0,-2.4594,-2.5059,-2.5171,-2.493,-2.5291,-2.5427,-2.5114,-2.5167,-2.5343,-2.5666,-2.568,-2.5842,-2.6216,-2.6216,-2.6286,-2.6583,-2.6583,-2.6583,-2.6583,-2.6583,-2.6421,-2.6289,-2.7795,-2.8098,-2.7547,-2.6194,-2.5392,-2.4891,-2.3743,-2.4074,-2.4765,-2.251,-2.2446,-2.3232,-2.202,-2.1382,-2.1089,-2.083,-2.0739,0.0,0.0,-2.0554,-2.0673,-2.011,-2.0126,-2.0361,-2.052,-2.0745,-2.0916,-2.0906,-2.1451,-2.2122,0.0,-2.2638,-2.2092,-2.1145,0.0,-2.2126,-2.2108,-2.3385,-2.4512,-2.4988,-2.543,-2.5693,-2.5693,-2.5693,-2.5693,-2.5713,-2.5693,-2.5918,-2.6367,-2.5957,-2.5879,-2.6269,-2.5497,-2.457,-2.3711,-2.2422,0.0,0.0,0.0,0.0,0.0,0.0,0.0,0.0,0.0,0.0,0.0,0.0,0.0,0.0,0.0,0.0,0.0,0.0,0.0,0.0,0.0,0.0,0.0,0.0,0.0,0.0,0.0,0.0,-2.5439,-2.5853,0.0,-2.4803,-2.4618,-2.4305,-2.3863,-2.4469,-2.4959,-2.5066,-2.5382,-2.5568,-2.5702,-2.5638,-2.5785,-2.6079,-2.6079,-2.6132,-2.6239,-2.6239,-2.6293,-2.6386,-2.6386,-2.6386,-2.6386,-2.6386,-2.6333,-2.6251,-2.6494,-2.6166,-2.5428,-2.4507,-2.3983,-2.3662,-2.3416,-2.3621,-2.3919,-2.3242,-2.3052,-2.2885,-2.1932,-2.1389,-2.1067,-2.0827,-2.0874,-2.0956,-2.0686,-2.0936,-2.1272,-2.102,-2.1002,-2.1119,-2.1137,-2.1043,-2.0894,-2.0733,-2.1055,-2.1313,-2.1247,-2.2055,-2.2433,-2.1312,-2.1767,-2.2031,-2.1252,-2.2097,-2.3087,-2.3972,-2.4395,-2.4903,-2.5645,-2.5693,-2.5693,-2.5693,-2.5693,-2.5752,-2.5957,-2.5771,-2.5752,-2.5957,-2.5664,-2.5215,-2.4675,-2.3633,-2.2129,0.0,0.0,0.0,0.0,0.0,0.0,0.0,0.0,0.0,0.0,0.0,0.0,0.0,0.0,0.0,0.0,0.0,0.0,0.0,0.0,0.0,0.0,0.0,0.0,0.0,-2.4094,-2.5052,-2.5322,-2.5884,-2.5884,-2.5031,-2.5129,-2.5036,-2.4549,-2.4957,-2.5358,-2.5651,-2.5758,-2.5892,-2.6092,-2.6106,-2.6199,-2.6386,-2.6386,-2.6386,-2.6386,-2.6386,-2.6386,-2.6386,-2.6386,-2.6386,-2.6386,-2.6386,-2.6386,-2.6346,-2.5758,-2.517,-2.4583,-2.3888,-2.35,-2.334,-2.3554,-2.3621,-2.3647,-2.3848,-2.3594,-2.3046,-2.2311,-2.1857,-2.1617,-2.1122,-2.1176,-2.1349,-2.1056,-2.1387,-2.1762,-2.1762,-2.1695,-2.1588,-2.1494,-2.1256,-2.1029,-2.0735,-2.0854,-2.0855,-2.0523,-2.1288,-2.1789,-2.0883,-2.1457,-2.1724,-2.0835,-2.171,-2.2667,-2.3224,-2.3587,-2.3999,-2.4715,-2.4702,-2.4627,-2.4627,-2.4838,-2.4925,-2.4845,-2.5092,-2.5073,-2.4707,-2.491,-2.48,-2.4162,-2.3185,-2.1632,-1.9608,0.0,0.0,0.0,0.0,0.0,0.0,0.0,0.0,0.0,0.0,0.0,0.0,0.0,0.0,0.0,0.0,0.0,0.0,0.0,0.0,0.0,0.0,0.0,-2.276,-2.4266,-2.4974,-2.3977,-2.5117,-2.5892,-2.5611,-2.5571,-2.5919,-2.6774,-2.6573,-2.6533,-2.6814,-2.656,-2.64,-2.6386,-2.6386,-2.6386,-2.6386,-2.6386,-2.6386,-2.6386,-2.6386,-2.6386,-2.6386,-2.6386,-2.6386,-2.6386,-2.6386,-2.6386,-2.6346,-2.5758,-2.5518,-2.5424,-2.4556,-2.4222,-2.4222,-2.4222,-2.4222,-2.4209,-2.4209,-2.4022,-2.3688,-2.3142,-2.2873,-2.278,-2.1909,-2.1777,-2.1951,-2.1722,-2.179,-2.2017,-2.2017,-2.1804,-2.1574,-2.1203,-2.1136,-2.1042,-2.0748,-2.0695,-2.0681,-2.0681,-2.0438,-2.0129,-1.9878,-2.0663,-2.124,-2.09,-2.227,0.0,-2.3014,-2.2963,-2.2946,-2.2997,-2.2723,-2.2501,-2.2484,-2.3095,-2.335,-2.3066,-2.3855,-2.3843,-2.2733,-2.3336,-2.3312,-2.2318,-2.1039,-1.9496,-1.7725,0.0,0.0,0.0,0.0,0.0,0.0,0.0,0.0,0.0,0.0,0.0,0.0,0.0,0.0,0.0,0.0,0.0,0.0,0.0,0.0,0.0,-2.1737,-2.2438,-2.222,-2.3938,-2.5235,-2.538,-2.6266,-2.6961,-2.7081,-2.6907,-2.6881,-2.7121,-2.7068,-2.6961,-2.6827,-2.6747,-2.66,-2.64,-2.6386,-2.6386,-2.6386,-2.6386,-2.6386,-2.6386,-2.6386,-2.6386,-2.6386,-2.6386,-2.6386,-2.6386,-2.6386,-2.6386,-2.6346,-2.5758,-2.5518,-2.5451,-2.477,-2.4516,-2.4516,-2.4516,-2.4516,-2.4489,-2.4275,-2.4155,-2.3981,-2.3394,-2.3193,-2.3073,-2.2392,-2.2392,-2.2565,-2.2271,-2.2392,-2.2619,-2.2619,-2.2405,-2.2111,-2.1817,-2.1577,-2.1349,-2.1056,-2.0989,-2.0922,-2.0722,-2.0429,-2.0123,-1.9839,-2.0231,-2.0472,-2.015,-2.0512,0.0,-2.2017,-2.1982,-2.2133,-2.2894,-2.2912,-2.2741,-2.2518,-2.2698,-2.2644,-2.2326,-2.2522,-2.2549,-2.2221,-2.2413,-2.238,-2.2092,-2.0602,-1.9428,0.0,0.0,0.0,0.0,0.0,0.0,0.0,0.0,0.0,0.0,0.0,0.0,0.0,0.0,0.0,0.0,0.0,0.0,0.0,0.0,0.0,0.0,-2.2498,-2.342,-2.3621,-2.4796,-2.5892,-2.66,-2.7241,-2.7696,-2.7869,-2.7736,-2.7712,-2.7712,-2.7522,-2.7321,-2.7028,-2.6894,-2.6694,-2.64,-2.6386,-2.6386,-2.6386,-2.6386,-2.6386,-2.6386,-2.6386,-2.6386,-2.6386,-2.6386,-2.6386,-2.6386,-2.6386,-2.6386,-2.6346,-2.5758,-2.5518,0.0,0.0,0.0,0.0,0.0,-2.4636,-2.4609,-2.4436,-2.4382,-2.4302,-2.3848,-2.3607,-2.3394,-2.2792,-2.2726,-2.2806,-2.2498,-2.2632,-2.2928,-2.2928,-2.2645,-2.2352,-2.2058,-2.1829,-2.1534,-2.1176,-2.1109,-2.1056,-2.0895,-2.0615,0.0,-2.0037,-1.9913,-1.9794,-1.9289,-1.9448,-1.992,-2.065,-2.0765,-2.0986,-2.173,-2.1835,-2.1755,-2.1547,-2.1653,0.0,0.0,0.0,-2.1542,-2.1234,-2.0788,0.0,0.0,0.0,0.0,0.0,0.0,0.0,0.0,-1.8034,-1.833,0.0,0.0,0.0,0.0,0.0,0.0,0.0,0.0,0.0,0.0,0.0,0.0,0.0,0.0,0.0,0.0,-2.3821,-2.509,-2.5985,-2.636,-2.6827,-2.7602,-2.7963,-2.8221,-2.8221,-2.8221,-2.8221,-2.8221,-2.7896,-2.7602,-2.7281,0.0,0.0,0.0,0.0,-2.6386,-2.6386,-2.6386,-2.6386,-2.6386,-2.6386,-2.6386,-2.6386,-2.6386,-2.6386,-2.6386,-2.6386,-2.6386,-2.6346,-2.5758,-2.5478,-2.5358,-2.4836,-2.4636,-2.4636,-2.4636,-2.4636,-2.4636,-2.4636,0.0,0.0,-2.4302,-2.4008,-2.3661,-2.3046,-2.2928,-2.2806,-2.2498,-2.2632,-2.2928,-2.2928,-2.2672,-2.2392,-2.2058,-2.179,-2.151,-2.1176,-2.1109,-2.1109,-2.1109,-2.0869,-2.0575,-2.0281,-1.9794,-1.9318,-1.8659,-1.9042,-1.9372,-1.9362,-1.9642,-1.9909,-2.0172,0.0,0.0,-2.0183,-2.0491,-2.0389,-1.9802,-2.0498,-2.0609,-1.9975,-1.911,-1.8598,-1.8598,-1.8598,-1.8529,-1.8364,-1.8394,-1.8584,-1.8898,-1.8027,-1.8446,0.0,0.0,0.0,0.0,0.0,0.0,0.0,0.0,0.0,0.0,0.0,0.0,0.0,0.0,0.0,-2.3354,-2.4743,-2.6012,-2.6881,-2.7268,-2.7509,-2.7682,-2.7963,-2.8221,-2.8221,-2.8221,-2.8221,-2.8221,-2.8181,-2.7913,-2.7295,-2.7215,-2.6934,-2.6413,-2.6386,-2.6386,-2.6386,-2.6386,-2.6386,-2.6386,0.0,0.0,-2.6386,-2.6386,-2.6386,-2.6386,-2.6386,-2.6386,-2.6346,-2.5758,-2.5237,-2.4796,-2.4676,-2.4636,-2.4636,-2.4636,-2.4636,-2.4636,-2.4636,-2.4636,-2.4596,-2.4302,-2.4008,-2.3661,-2.3046,-2.2928,0.0,-2.2498,-2.2632,-2.2928,-2.2928,-2.2819,-2.2645,-2.2111,-2.1937,-2.175,-2.1229,-2.1109,-2.1109,-2.1109,-2.0869,-2.0575,-2.0281,-2.0132,-1.9949,-1.9345,-1.9306,-1.9471,-1.9668,-1.9734,-1.9941,-2.0284,-2.0465,-2.0475,-2.0212,-2.0283,-2.0056,-1.9456,-1.9292,-1.918,-1.9044,-1.8845,-1.8746,-1.8746,-1.8746,-1.872,-1.8701,-1.8964,-1.9257,-1.9603,-1.887,-1.884,0.0,0.0,0.0,0.0,0.0,0.0,0.0,0.0,0.0,0.0,0.0,-2.1203,-2.1496,0.0,-2.3647,-2.469,-2.5598,-2.648,-2.7362,-2.7602,-2.7749,-2.7896,-2.814,-2.8221,-2.8221,-2.8221,-2.8221,-2.8221,-2.8221,-2.7966,-2.7295,-2.7268,-2.7001,-2.6413,-2.6386,-2.6386,-2.6386,-2.6386,-2.6386,-2.6386,-2.6386,-2.6386,-2.6386,-2.6386,-2.6386,-2.6386,-2.6386,-2.6386,-2.6346,-2.5758,-2.517,-2.4636,-2.4636,-2.4636,-2.4636,-2.4636,-2.4636,-2.4636,-2.4636,-2.4636,-2.4609,-2.4462,-2.4222,-2.3928,-2.3621,-2.3327,-2.306,-2.2913,-2.2873,-2.2928,-2.2928,-2.2928,-2.2752,-2.2311,-2.2084,-2.1871,-2.143,-2.1216,-2.1109,-2.1109,-2.0989,-2.0802,-2.0508,-2.0456,-2.0172,-1.928,-1.9055,-1.9029,-1.9348,-1.9529,-1.9752,-2.0272,-2.0528,-2.0712,-2.0679,-2.0574,-2.0281,-1.9784,-1.9608,-1.9447,-1.9286,-1.9272,-1.9272,-1.9272,-1.9272,-1.936,-1.9506,-1.9681,-1.9916,-2.0237,-1.9916,-1.9755,0.0,0.0,0.0,0.0,0.0,0.0,0.0,-2.0695,-2.0775,-2.1483,-2.1951,-2.2526,-2.3236,-2.3981,-2.489,-2.5945,-2.6413,-2.68,-2.7092,-2.7236,-2.7187,-2.7155,-2.7799,-2.8221,-2.8221,-2.8221,-2.8221,-2.8221,-2.8181,-2.7913,-2.7295,-2.7215,-2.6934,-2.6413,-2.6386,-2.6386,-2.6386,-2.6386,-2.6386,-2.6386,-2.6386,-2.6386,-2.6386,-2.6386,-2.6386,-2.6386,-2.6333,-2.6279,-2.6172,-2.5651,-2.5117,-2.4636,-2.4636,-2.4636,-2.4636,-2.4636,-2.4636,-2.4636,-2.4636,-2.4636,-2.4636,-2.4636,-2.4436,-2.4209,-2.4209,-2.3794,-2.3327,-2.3327,-2.31,-2.2928,-2.2928,-2.2928,-2.2792,-2.2485,-2.2231,-2.1977,-2.1695,-2.1363,-2.1162,-2.1042,-2.1029,-2.0949,-2.0722,-2.0628,-2.0227,-1.9172,-1.8811,-1.8776,-1.8986,-1.9261,-1.9652,-2.0231,-2.0559,-2.0845,-2.1146,-2.0911,-2.0548,-2.0285,-2.0212,-2.012,-1.9872,-1.9857,-1.9857,-1.9857,-1.9916,-2.0077,-2.027,-2.0343,-2.0504,-2.0823,-2.0823,-2.0676,-2.01,-1.9706,-1.988,-2.0401,-2.0722,-2.1283,0.0,-2.3153,-2.3354,-2.346,-2.4115,-2.4716,-2.481,-2.5344,-2.5972,-2.6613,-2.7188,-2.6996,-2.549,-2.553,-2.5082,-2.3395,-2.6151,-2.8221,-2.8221,-2.8221,-2.8221,-2.8221,-2.7896,-2.7602,-2.7281,-2.7014,-2.672,-2.64,-2.6386,-2.6386,-2.6386,-2.6386,-2.6386,-2.6386,-2.6386,-2.6386,-2.6386,-2.6386,-2.6386,-2.6373,-2.6119,-2.5852,-2.5585,-2.5264,-2.493,-2.4636,-2.4636,-2.4636,-2.4636,-2.4636,-2.4636,-2.4636,-2.4636,-2.4636,-2.4636,-2.4636,-2.4436,-2.4209,-2.4209,-2.3794,-2.3327,-2.3327,-2.31,-2.2928,-2.2928,-2.2928,-2.2792,-2.2485,-2.2392,-2.2218,-2.1735,-2.1588,-2.1413,-2.0828,-2.0722,-2.0722,-2.0681,-2.0454,-2.0067,-1.9412,-1.935,-1.9323,-1.9323,-1.9407,-1.9633,-2.0227,-2.0526,-2.0845,-2.1146,-2.0911,-2.0706,-2.0676,-2.0343,-2.0168,-2.0179,-2.0179,-2.0179,-2.0179,-2.0472,-2.0633,-2.0621,-2.0955,-2.1115,-2.1159,-2.1159,-2.113,-2.1243,-2.1069,-2.1256,-2.2031,-2.2565,-2.3207,-2.4342,-2.4569,-2.4676,-2.5184,-2.5585,-2.5892,-2.6066,-2.644,-2.6854,-2.7268,-2.7535,-2.7166,-2.5446,-2.5313,-2.4632,-2.2695,-2.3886,-2.4877,-2.4935,-2.4947,-2.4947,-2.4947,-2.4709,-2.446,-2.4187,-2.3926,-2.4162,-2.4866,-2.3884,-2.3884,-2.4866,-2.4866,-2.4375,-2.3392,-2.4375,-2.4375,-2.3392,-2.3317,-2.3162,-2.3098,-2.299,-2.271,-2.2383,-2.2277,-2.2075,-2.1849,-2.1849,-2.2372,-2.3351,-2.4253,-2.4636,-2.4636,-2.4636,-2.4636,-2.4636,-2.4636,-2.4556,-2.4449,-2.4449,-2.4048,-2.3581,-2.3581,-2.3233,-2.2928,-2.2928,-2.2928,-2.2832,-2.2712,-2.2539,-2.2352,-2.2111,-2.179,-2.1547,-2.1293,-2.0909,-2.0681,-2.0681,-2.0428,-2.0094,-1.9679,-1.976,-1.9867,-1.9867,-1.9878,-2.0128,-2.0732,-2.1123,-2.132,-2.1511,-2.1364,-2.1203,-2.1013,-2.0881,-2.0808,-2.0808,-2.0808,-2.0808,-2.0808,-2.094,-2.1013,-2.1013,-2.1145,-2.1306,-2.1496,-2.1496,-2.1598,-2.1871,-2.2111,-2.2565,-2.346,-2.4249,-2.4997,-2.5705,-2.5772,-2.5865,-2.6493,-2.656,-2.66,-2.6894,-2.7121,-2.7362,-2.7655,-2.7762,-2.7116,-2.4923,-2.4632,-2.3642,-2.1122,-2.0786,-2.0722,-2.0873,-2.1788,-2.2428,-2.2428,-2.2308,-2.2102,-2.1846,-2.1692,-2.2056,-2.3084,-2.1867,-2.1786,-2.3084,-2.3084,-2.243,-2.1211,-2.2442,-2.2407,-2.1114,-2.0957,-2.083,-2.0667,-2.0602,-2.0395,-2.0156,-2.0091,-1.9962,-1.9811,-1.9811,-2.0489,-2.17,-2.2831,-2.3809,-2.4636,-2.4636,-2.4636,-2.4636,-2.4636,-2.4636,-2.4636,-2.4636,-2.4235,-2.3768,-2.3768,-2.3397,-2.2928,-2.2928,-2.2928,-2.2928,-2.2928,-2.2699,-2.2498,-2.2338,-2.2031,-2.1762,-2.144,-2.1029,-2.0775,-2.0695,-2.0428,-2.0187,-2.0067,-2.0147,-2.014,-2.012,-2.0127,-2.047,-2.1134,-2.1435,-2.1649,-2.1847,-2.1832,-2.173,-2.1496,-2.1481,-2.1437,-2.135,-2.135,-2.135,-2.135,-2.135,-2.1393,-2.1481,-2.1481,-2.1598,-2.1832,-2.1832,-2.1993,-2.1628,-2.2405,-2.35,-2.4309,-2.5464,-2.64,-2.6707,-2.7001,-2.7201,-2.7228,-2.7014,-2.6894,-2.7201,-2.7255,-2.7362,-2.7655,-2.7936,-2.6927,-2.3223,-2.2609,-2.1112,-1.7196,-1.659,-1.6484,-1.6492,-1.9899,-2.211,-2.211,-2.1893,-2.1763,-2.1752,-2.1362,-2.1222,-2.1303,-2.1222,-2.1222,-2.1303,-2.1303,-2.1222,-2.1211,-2.1145,-2.1025,-2.1014,-2.0787,-2.0678,-2.0656,-2.0351,-2.0243,-2.0145,-1.9919,-1.9822,-1.9811,-1.9811,-1.9811,-1.9887,-1.9962,-2.1924,-2.4636,-2.4636,-2.4636,-2.4636,-2.4636,-2.4636,-2.4636,-2.4636,-2.4235,-2.3768,-2.3768,-2.3397,-2.2928,-2.2928,-2.2928,-2.2928,-2.2928,-2.2928,-2.2699,-2.2124,-2.2205,-2.2058,-2.0922,-2.0909,-2.1002,-2.0722,-2.0428,-2.0334,-2.0601,-2.0414,-2.0134,-1.9853,-2.0054,-2.047,-2.1134,-2.1194,-2.1495,-2.2109,-2.2169,-2.2169,-2.2154,-2.2154,-2.2008,-2.1701,-2.1686,-2.1686,-2.1686,-2.1686,-2.1832,-2.2154,-2.2154,-2.2154,-2.2169,-2.2169,-2.233,-2.3273,-2.4035,-2.4796,-2.6066,-2.6827,-2.7335,-2.7629,-2.7859,-2.7789,-2.7589,-2.7161,-2.6787,-2.6707,-2.668,-2.6774,-2.7068,-2.7522,-2.7058,-2.4753,-2.445,-2.2903,-1.8773,-1.828,-1.7662,-1.6147,0.0,0.0,-1.8406,-1.8235,-1.8117,-1.8117,-1.7854,-1.8309,-1.944,-1.8391,-1.8309,-1.943,-1.943,-1.8885,-1.762,-1.7431,-1.7259,-1.7132,-1.706,-1.7038,-1.6902,-1.6839,-1.6735,-1.6726,-1.6662,-1.6635,-1.6635,-1.6635,-1.7245,-1.8234,-1.8234,-1.9585,-2.14,-2.14,-2.2073,-2.298,-2.298,-2.3735,-2.4636,-2.4636,-2.4369,-2.4022,-2.3821,-2.3487,-2.3126,-2.2913,-2.2928,-2.2928,-2.2928,-2.2928,-2.2752,-2.2365,-2.2205,-2.2017,-2.1617,-2.1309,-2.1136,-2.1243,-2.0855,-2.0428,-2.0134,-2.0174,-2.0267,-2.0374,-2.0468,-2.0786,-2.141,-2.1672,-2.1897,-2.2126,-2.2355,-2.2389,-2.2198,-2.2184,-2.214,-2.2023,-2.2023,-2.2023,-2.2023,-2.2023,-2.2081,-2.2184,-2.2184,-2.2286,-2.2476,-2.2476,-2.2637,-2.4529,-2.5398,-2.6132,-2.7295,-2.7883,-2.8203,-2.8283,-2.8301,-2.8167,-2.7896,-2.7054,-2.6293,-2.6106,-2.5825,-2.5812,-2.6413,-2.7001,-2.6887,-2.5568,-2.547,-2.389,-1.9586,-1.9078,-1.8275,-1.6056,-1.5975,0.0,-1.6373,-1.6276,-1.6211,-1.6211,-1.6105,-1.6525,-1.7656,-1.6607,-1.6525,-1.7656,-1.7584,-1.6938,-1.5577,-1.5472,-1.5317,-1.5139,-1.5139,-1.5074,-1.4968,-1.4968,-1.4968,-1.4968,-1.4968,-1.4968,-1.4968,-1.4968,-1.565,-1.6568,-1.6568,-1.7169,-1.8224,-1.9434,-2.0489,-2.1314,-2.1314,-2.2073,-2.2905,-2.2905,-2.2706,-2.2445,-2.2172,-2.2241,-2.2396,-2.2169,-2.2516,-2.2928,-2.2928,-2.2928,-2.2779,-2.2485,-2.2271,-2.2084,-2.1871,-2.1617,-2.1456,-2.1601,-2.1306,-2.0788,-2.0201,-2.0267,-2.0388,-2.0361,-2.0361,-2.0692,-2.1534,-2.17,-2.197,-2.2428,-2.2552,-2.2588,-2.252,-2.252,-2.2462,-2.2345,-2.2345,-2.2345,-2.2345,-2.2345,-2.2389,-2.252,-2.252,-2.2608,-2.2798,-2.2798,-2.2915,-2.5291,-2.644,-2.7442,-2.814,-2.8604,-2.8925,-2.8644,-2.8337,-2.8167,-2.8127,-2.664,-2.5424,-2.5398,-2.473,-2.4556,-2.5718,-2.644,-2.6564,-2.57,-2.5641,-2.4082,-1.9771,-1.9106,-1.8181,-1.6048,-1.5788,0.0,-1.595,0.0,-1.5966,-1.5966,-1.5966,-1.5966,-1.5966,-1.5966,-1.5958,-1.595,-1.5845,-1.5577,-1.5236,-1.5228,-1.513,-1.4968,-1.4968,-1.4968,-1.4968,-1.4968,-1.4968,-1.4968,-1.4968,-1.4968,-1.4968,-1.4968,-1.4968,-1.4968,-1.4968,-1.4968,-1.542,-1.8527,-1.9585,-1.9661,-1.9661,-1.9736,-1.9811,-1.9811,-1.965,-1.9339,-1.9187,-1.9934,-2.0744,-2.0644,-2.1691,-2.2791,-2.2859,-2.2928,-2.2779,-2.2485,-2.2418,-2.2258,-2.1775,-2.183,-2.1924,-2.1668,-2.1641,-2.1454,-2.0788,-2.0708,-2.0508,-1.9893,-1.984,-2.0354,-2.1511,-2.141,-2.1706,-2.2937,-2.2779,-2.2716,-2.3106,-2.3106,-2.2974,-2.2652,-2.2652,-2.2652,-2.2652,-2.2652,-2.2798,-2.3106,-2.3106,-2.312,-2.3135,-2.312,-2.312,-2.664,-2.7362,-2.7843,-2.8885,-2.8751,-2.835,-2.8283,-2.7856,-2.739,-2.6733,-2.5291,-2.4142,-2.3928,-2.3888,-2.4195,-2.5144,-2.6346,-2.7224,-2.7441,-2.7532,-2.6011,-2.1806,-2.1284,-1.9858,-1.6328,-1.5975,-1.5999,0.0,-1.5966,-1.5966,-1.5966,-1.5966,-1.5966,-1.5966,-1.5966,-1.5983,-1.5845,-1.5528,-1.5325,-1.5236,-1.5098,-1.5009,-1.4968,-1.4968,-1.4968,-1.4968,-1.4968,-1.4968,-1.4968,-1.4968,-1.4968,-1.4968,-1.4968,-1.4968,-1.4968,-1.4968,-1.4968,-1.5122,-1.5956,-1.7017,-1.8006,-1.8006,-1.883,-1.9811,-1.9811,-1.9639,-1.9435,-1.9391,-1.9348,-1.9577,-2.0579,-2.0983,-2.1471,-2.2654,-2.2928,-2.2779,-2.2485,-2.2418,-2.2378,-2.2231,-2.2432,-2.2405,-2.1748,-2.1911,-2.1924,-2.1122,-2.1189,-2.1042,-2.0227,-2.0551,-2.0842,-2.0956,-2.1516,-2.1978,-2.2309,-2.2494,-2.2733,-2.3091,-2.3106,-2.3076,-2.2988,-2.2988,-2.2988,-2.2988,-2.2988,-2.3032,-2.3106,-2.3106,-2.3237,-2.3471,-2.3223,-2.3237,-2.7709,-2.8377,-2.8804,-2.9352,-2.9005,-2.8404,-2.7883,-2.7283,-2.6413,-2.5398,-2.4008,-2.2939,-2.2766,-2.2766,-2.326,-2.4663,-2.5905,-2.7028,-2.8087,-2.7552,-2.5956,-2.2642,-2.1495,-1.9726,-1.6435,-1.6162,-1.6129,-1.5974,-1.5966,-1.5966,-1.5966,-1.5966,-1.5966,-1.5966,-1.5967,-1.5804,-1.5536,-1.5342,-1.5195,-1.5114,-1.5017,-1.4968,-1.4968,-1.4968,-1.4968,-1.4968,0.0,-1.4968,-1.4968,-1.4968,-1.4968,-1.4968,-1.4968,-1.4968,-1.4968,-1.4968,-1.4968,-1.4968,-1.4968,-1.5573,-1.6339,-1.6339,-1.694,-1.7692,-1.7692,-1.7606,-1.749,-1.7339,-1.7576,-1.8228,-1.9551,-2.0262,-2.0975,-2.2516,-2.2928,-2.2819,-2.2645,-2.2512,-2.2418,-2.2418,-2.2445,-2.2365,-2.2004,-2.2098,-2.2017,-2.139,-2.1507,-2.1283,-2.0521,-2.0991,-2.1479,-2.1562,-2.2012,-2.248,-2.2938,-2.2885,-2.2933,-2.331,-2.3193,-2.3106,-2.3106,-2.3252,-2.3325,-2.3325,-2.3457,-2.353,-2.353,-2.3398,-2.3486,-2.3808,-2.3471,-2.3501,-2.8497,-2.9219,-2.9753,-2.9579,-2.9232,-2.8617,-2.7468,-2.6466,-2.5438,-2.4222,-2.2819,-2.1817,-2.1857,-2.1724,-2.2271,-2.4302,-2.5411,-2.6599,-2.802,-2.679,-2.4941,-2.2725,-2.0757,-1.8712,-1.6533,-1.63,-1.6211,-1.5974,-1.5966,-1.5966,-1.5966,-1.5942,-1.5999,-1.5893,-1.5796,-1.5553,-1.5166,-1.5212,-1.5122,-1.4968,-1.4968,-1.4968,-1.4968,-1.4968,-1.4968,-1.4968,-1.4968,-1.4968,-1.4968,-1.4968,-1.4968,-1.4968,-1.4968,-1.4968,-1.4968,-1.4968,-1.4968,-1.4968,-1.4968,-1.4968,-1.4968,-1.4968,-1.4968,-1.4968,-1.4968,-1.4952,-1.4903,-1.4781,-1.5558,-1.6736,-1.8094,-1.9416,-2.0747,-2.2281,-2.2749,-2.2928,-2.2928,-2.2659,-2.2472,-2.2432,-2.2245,-2.2151,-2.2338,-2.2178,-2.1951,-2.1722,-2.1681,-2.1494,-2.0922,-2.1379,-2.1872,-2.2306,-2.2468,-2.2879,-2.3731,-2.3414,-2.3235,-2.3598,-2.3335,-2.3237,-2.3237,-2.3515,-2.3662,-2.3662,-2.394,-2.4086,-2.4086,-2.3749,-2.3764,-2.4071,-2.3706,-2.3735,-2.8804,-2.9072,-2.9299,-2.9726,-2.9058,-2.8056,-2.7108,-2.5838,-2.4462,-2.302,-2.175,-2.0975,-2.1216,-2.1617,-2.2512,-2.4342,-2.5585,-2.6747,-2.806,-2.6626,-2.4726,-2.2836,-2.0697,-1.8612,-1.6705,-1.6267,-1.6081,0.0,-1.5966,-1.5966,-1.5966,-1.5902,-1.5756,-1.561,-1.5431,-1.5301,-1.5236,-1.509,-1.5,-1.4968,-1.4968,-1.4968,-1.4968,-1.4968,-1.4968,-1.4968,-1.4968,0.0,-1.4968,-1.4968,-1.4968,-1.4968,-1.4968,-1.4968,-1.4968,-1.4968,-1.4968,-1.4968,-1.4968,-1.4968,-1.4968,-1.4968,-1.4968,-1.4968,-1.4968,-1.4871,-1.4773,-1.4887,-1.491,-1.5189,-1.6777,-1.8135,-1.939,-2.0873,-2.212,-2.2928,-2.2928,-2.2819,-2.2712,-2.2472,-2.2579,-2.2579,-2.2138,-2.2218,-2.2245,-2.1951,-2.1911,-2.1871,-2.1777,-2.1696,-2.1436,-2.106,-2.1693,-2.2279,-2.2462,-2.2836,-2.3193,-2.3515,-2.3746,-2.391,-2.391,-2.3969,-2.3998,-2.3998,-2.4057,-2.4086,-2.4086,-2.3749,-2.3764,-2.4071,-2.3471,-2.3515,-2.9152,-2.9379,-2.9566,-2.9847,-2.8911,-2.7562,-2.6226,-2.477,-2.3207,-2.1416,-2.0615,-2.0267,-2.0401,-2.0909,-2.1777,-2.3247,-2.4222,-2.5371,-2.7001,-2.4812,-2.2911,-2.2654,-1.9857,-1.7614,-1.6677,-1.6341,-1.6146,-1.5974,-1.5966,-1.5966,-1.5966,-1.5869,-1.565,-1.5382,-1.5285,-1.5195,-1.5098,-1.5009,-1.4968,-1.4968,-1.4968,-1.4968,-1.4968,-1.4968,-1.4968,-1.4968,-1.4968,0.0,-1.4968,-1.4968,-1.4968,-1.4968,-1.4968,-1.4968,-1.4968,-1.4968,-1.4968,-1.4968,-1.4968,-1.4968,-1.4968,-1.4968,-1.4968,-1.4968,-1.4968,-1.4911,-1.4862,-1.4944,-1.4781,-1.4886,-1.6525,-1.7869,-1.9255,-2.0545,-2.1938,-2.2928,-2.2928,-2.2928,-2.2819,-2.2672,-2.2645,-2.2539,-2.2258,-2.2205,-2.2151,-2.2004,-2.1857,-2.1764,-2.1764,-2.1504,-2.1425,-2.1642,-2.2221,-2.2594,-2.2594,-2.2772,-2.2957,-2.3293,-2.3278,-2.3383,-2.3574,-2.3735,-2.3837,-2.3837,-2.3998,-2.4086,-2.4086,-2.3925,-2.4013,-2.4335,-2.4013,-2.413,-2.9446,-2.974,-2.9913,-2.9913,-2.8804,-2.7241,-2.5478,-2.3875,-2.2205,-2.0214,-1.9746,-1.9733,-1.9786,-2.0227,-2.0989,-2.2218,-2.2873,-2.3941,-2.6012,-2.3197,-2.1288,-2.2289,-1.9094,-1.6722,-1.6535,-1.6357,-1.6194,-1.5974,-1.6008,-1.5975,-1.5934,-1.5756,-1.5512,-1.5187,-1.5179,-1.5114,-1.4968,-1.4968,-1.4968,-1.4968,-1.4968,-1.4968,-1.4968,-1.4968,-1.4968,-1.4968,-1.4968,0.0,0.0,-1.4968,-1.4968,-1.4968,-1.4968,-1.4968,-1.4968,-1.4968,-1.4968,-1.4968,-1.4968,-1.4968,-1.4968,-1.4968,-1.4968,-1.4968,-1.4968,-1.4968,-1.4968,-1.4968,-1.4871,-1.506,-1.6166,-1.7575,-1.9028,-2.0521,-2.1989,-2.2939,-2.2873,-2.2928,-2.2928,-2.2928,-2.2672,-2.2512,-2.2512,-2.2271,-2.2084,-2.2084,-2.183,-2.1708,-2.1708,-2.1443,-2.1598,-2.2331,-2.2645,-2.2813,-2.2813,-2.2646,-2.2664,-2.2921,-2.2886,-2.2947,-2.3184,-2.3632,-2.3808,-2.3808,-2.413,-2.4291,-2.4291,-2.4218,-2.4349,-2.4738,-2.4598,-2.4811,-2.9579,-2.99,-2.9913,-2.9913,-2.8804,-2.7241,-2.5478,-2.3714,-2.1951,-2.0174,-1.9586,-1.9492,-1.976,-2.0054,-2.0748,-2.2191,-2.2686,-2.3634,-2.5705,-2.3091,-2.1171,-2.1849,-1.8799,-1.6535,-1.6349,-1.617,-1.5982,-1.5966,-1.5894,-1.5731,-1.5577,-1.539,-1.5195,-1.5,-1.4992,-1.4984,-1.4968,-1.4968,-1.4968,-1.4968,-1.4968,-1.4968,-1.4968,-1.4968,-1.4968,-1.4968,-1.4968,0.0,0.0,-1.4968,-1.4968,-1.4968,-1.4968,-1.4968,-1.4968,-1.4968,-1.4968,-1.4968,-1.4968,-1.4968,-1.4968,-1.4968,-1.4968,-1.4968,-1.4968,-1.4968,-1.4968,-1.4968,-1.4952,-1.502,-1.5165,-1.6153,-1.7748,-2.0271,-2.2071,-2.3207,-2.2926,-2.2928,-2.2928,-2.2928,-2.2914,-2.2819,-2.2819,-2.2579,-2.2378,-2.2378,-2.2124,-2.1951,-2.1951,-2.1924,-2.1924,-2.2043,-2.1881,-2.1719,-2.1719,-2.2195,-2.2528,-2.2528,-2.3153,-2.3544,-2.3544,-2.4174,-2.4481,-2.4481,-2.487,-2.5031,-2.5031,-2.4671,-2.4753,-2.5075,-2.4701,-2.4811,-2.9285,-2.978,-2.9913,-2.9913,-2.8671,-2.6974,-2.5211,-2.3434,-2.1657,-1.9907,-1.9452,-1.9399,-1.9519,-1.9639,-1.996,-2.0722,-2.0935,-2.167,-2.3567,-2.1861,-2.0558,-2.1066,-1.8937,-1.713,-1.6367,-1.6146,-1.5999,-1.5894,-1.5715,-1.5536,-1.5358,-1.5277,-1.5155,-1.4968,-1.4968,-1.4968,-1.4968,-1.4968,-1.4968,-1.4968,-1.4968,-1.4968,-1.4968,-1.4968,-1.4968,-1.4968,-1.4968,0.0,0.0,-1.4968,-1.4968,-1.4968,-1.4968,-1.4968,-1.4968,-1.4968,-1.4968,-1.4968,-1.4968,-1.4968,-1.4968,-1.4968,-1.4968,-1.4968,-1.4968,-1.4968,-1.4968,-1.4968,-1.4968,-1.4968,-1.4968,-1.6709,-1.8885,-2.0967,-2.2548,-2.3567,-2.3434,-2.3407,-2.3407,-2.3407,-2.3407,-2.3354,-2.318,-2.3046,-2.2899,-2.2712,-2.2432,-2.2245,-2.2245,-2.2098,-2.1991,-2.1991,-2.1884,-2.1817,-2.1817,-2.2055,-2.2322,-2.2697,-2.3043,-2.3325,-2.3736,-2.4252,-2.4511,-2.4511,-2.4926,-2.5031,-2.4826,-2.4899,-2.4899,-2.4826,-2.4899,-2.5002,-2.8751,-2.9432,-2.9659,-2.9659,-2.8257,-2.644,-2.4756,-2.3006,-2.1283,-1.9693,-1.943,-1.943,-1.943,-1.943,-1.9466,-1.976,-1.9867,-2.0481,-2.2071,-2.1015,-2.02,-2.0615,-1.8926,-1.744,-1.6529,-1.6188,-1.591,-1.578,-1.5561,-1.5374,-1.5244,-1.5031,-1.4951,-1.4968,-1.4968,-1.4968,-1.4968,-1.4968,-1.4968,-1.4968,-1.4968,-1.4968,-1.4968,-1.4968,-1.4968,-1.4968,-1.4968,0.0,0.0,-1.4968,-1.4968,-1.4968,-1.4968,-1.4968,-1.4968,-1.4968,-1.4968,-1.4968,-1.4968,-1.4968,-1.4968,-1.4968,-1.4968,-1.4968,-1.4968,-1.4968,-1.4968,-1.4968,-1.5344,-1.5727,-1.5727,-1.7964,-2.0518,-2.1555,-2.2866,-2.3875,-2.3794,-2.3768,-2.3768,-2.3768,-2.3701,-2.3581,-2.3367,-2.3247,-2.3113,-2.2968,-2.2686,-2.2552,-2.2552,-2.2365,-2.2285,-2.2378,-2.2378,-2.2311,-2.2124,-2.2191,-2.2459,-2.2862,-2.2957,-2.3269,-2.3693,-2.4186,-2.4459,-2.451,-2.4955,-2.5101,-2.4847,-2.5183,-2.5227,-2.5008,-2.5242,-2.5286,-2.7976,-2.8831,-2.9045,-2.9045,-2.7495,-2.5661,-2.4115,-2.2405,-2.0788,-1.9613,-1.943,-1.943,-1.943,-1.943,-1.9466,-1.976,-2.004,-2.0641,-2.183,-2.0903,-2.0238,-2.0662,-1.87,-1.7171,-1.6901,-1.6247,-1.5772,-1.5772,-1.5447,0.0,-1.5236,-1.4687,-1.4592,-1.4968,-1.4968,-1.4968,-1.4968,-1.4968,-1.4968,-1.4968,-1.4968,-1.4968,-1.4968,-1.4968,-1.4968,-1.4968,0.0,0.0,0.0,-1.4968,-1.4968,-1.4968,-1.4968,-1.4968,-1.4968,-1.4968,-1.4968,-1.4968,-1.4968,-1.4968,-1.4968,-1.4968,-1.4968,-1.4968,-1.4968,-1.4968,-1.4968,-1.4968,-1.6186,-1.7407,-1.7407,-1.9736,-2.2076,-2.1897,-2.3019,-2.4115,-2.3834,-2.3768,-2.3768,-2.3768,-2.3527,-2.3327,-2.3327,-2.3073,-2.2928,-2.2928,-2.2928,-2.2859,-2.2859,-2.2928,-2.2966,-2.3287,-2.3313,-2.3073,-2.2472,-2.2686,-2.2928,-2.2928,-2.3215,-2.3434,-2.3365,-2.4067,-2.4426,-2.451,-2.5111,-2.5423,-2.552,-2.5842,-2.6003,-2.6003,-2.6003,-2.5827,-2.5718,-2.6413,-2.6627,-2.6627,-2.5678,-2.4422,-2.314,-2.1951,-2.0775,-1.9613,-1.943,-1.943,-1.943,-1.943,-1.9586,-2.0281,-2.0481,-2.0802,-2.1577,-2.1712,-2.0997,-1.9097,-1.7237,-1.6072,-1.614,-1.5908,-1.5675,-1.5423,-1.5301,-1.5187,-1.5057,-1.4623,-1.4592,-1.4968,-1.4745,-1.4737,-1.4968,-1.4745,-1.4745,-1.4968,-1.4737,-1.4745,-1.4968,-1.4968,-1.4968,0.0,0.0,0.0,0.0,-1.4968,-1.4968,-1.4968,-1.4968,-1.4968,-1.4968,-1.4968,-1.4968,-1.4968,-1.4968,-1.4968,-1.4968,-1.4968,-1.4968,-1.4968,-1.4968,-1.4968,-1.4968,-1.4968,-1.6186,-1.7407,-1.7407,-1.9811,-2.2198,-2.2114,-2.3298,-2.4476,-2.4382,-2.4369,-2.4369,-2.4369,-2.4289,-2.4155,-2.3968,-2.3848,-2.3647,-2.3233,-2.318,-2.31,-2.2886,-2.2928,-2.2899,-2.2993,-2.3193,-2.3247,-2.306,-2.3126,-2.326,-2.3474,-2.3628,-2.3793,-2.3924,-2.4432,-2.4691,-2.4805,-2.52,-2.5608,-2.5857,-2.5974,-2.59,-2.5681,-2.5461,-2.5301,-2.4062,-2.4877,-2.5184,-2.5184,-2.4342,-2.3273,-2.2311,-2.1323,-2.0374,-1.9546,-1.943,-1.943,-1.943,-1.943,-1.9604,-2.0094,-2.0361,-2.0442,-2.0358,-2.0863,-2.0306,-1.7724,-1.6478,-1.58,-1.5714,-1.5675,-1.5553,-1.5182,-1.5023,-1.4857,-1.4745,-1.4207,-1.4207,-1.4737,-1.4515,-1.4515,-1.4737,-1.4515,-1.4515,-1.4737,-1.4444,-1.4528,-1.496,-1.4903,-1.4903,0.0,0.0,0.0,0.0,-1.4968,-1.4968,-1.4968,-1.4968,-1.4968,-1.4968,-1.4968,-1.4968,-1.4968,-1.4968,-1.4968,-1.4968,-1.4968,-1.4968,-1.4968,-1.4968,-1.4968,-1.4968,-1.4968,-1.6635,-1.8309,-1.8309,-2.0714,-2.3129,-2.3129,-2.3883,-2.4636,-2.4636,-2.4636,-2.4636,-2.4636,-2.4543,-2.4422,-2.4235,-2.4115,-2.3915,-2.3554,-2.3487,-2.342,-2.3233,-2.3276,-2.3247,-2.3354,-2.3447,-2.3487,-2.3487,-2.3487,-2.3581,-2.3754,-2.3768,-2.3848,-2.4035,-2.4323,-2.446,-2.4497,-2.489,-2.5242,-2.5618,-2.5758,-2.5725,-2.552,-2.533,-2.5227,0.0,-2.3901,-2.4329,-2.4329,-2.3287,-2.2111,-2.1614,-2.0588,0.0,-1.9484,-1.943,-1.943,-1.9399,-1.9386,-1.9457,-1.9537,-1.996,-1.9833,-1.8459,-1.8768,-1.8462,-1.68,-1.6416,-1.605,-1.5526,-1.5512,-1.5431,-1.5236,-1.4687,-1.4438,-1.4368,-1.359,-1.3513,-1.4284,-1.4284,-1.4368,-1.4446,-1.4353,-1.4345,-1.4422,-1.4166,-1.4394,-1.4944,-1.4781,-1.4806,0.0,0.0,0.0,0.0,-1.4968,-1.4968,-1.4968,-1.4968,-1.4968,-1.4968,-1.4968,-1.4968,-1.4968,-1.4968,-1.4968,-1.4968,-1.4968,-1.5045,-1.5113,-1.5045,-1.5045,-1.5198,-1.5198,-1.7464,-1.9962,-1.9962,-2.2297,-2.4636,-2.4636,-2.4636,-2.4636,-2.4636,-2.4636,-2.4636,-2.4636,-2.4422,-2.4235,-2.4235,-2.4008,-2.3821,-2.3808,-2.3808,-2.3794,-2.3768,-2.3768,-2.3875,-2.4142,-2.3928,-2.3768,-2.3768,-2.3754,-2.3741,-2.3741,-2.3741,-2.3741,-2.3741,-2.3741,-2.3806,-2.383,-2.4188,-2.4497,-2.5011,-2.5357,-2.5509,-2.5524,-2.5509,-2.5564,-2.0561,0.0,-2.1206,-2.1206,-2.0939,-2.0655,0.0,-2.0,-1.972,-1.9484,-1.943,-1.9439,-1.9653,-1.9519,-1.9666,-2.0548,-2.1002,-2.0783,-1.9414,-1.7825,-1.694,-1.7423,-1.6416,-1.564,-1.5496,-1.5512,-1.5382,-1.5057,-1.4915,-1.4737,-1.4438,-1.3898,-1.3667,-1.3898,-1.359,-1.3891,-1.4814,-1.4068,-1.4006,-1.4621,-1.4145,-1.4228,-1.4765,-1.4724,-1.4806,0.0,0.0,0.0,-1.4968,-1.4968,-1.4968,-1.4968,-1.4968,-1.4968,-1.4968,-1.4968,-1.4968,-1.4968,-1.4968,-1.4968,-1.4968,-1.4968,-1.5803,-1.6644,-1.5344,-1.588,-1.6873,-1.6873,-1.9132,-2.1613,-2.1613,-2.3129,-2.4636,-2.4636,-2.4636,-2.4636,-2.4636,-2.4636,-2.4636,-2.4636,-2.4583,-2.4529,-2.4529,-2.4476,-2.4356,-2.4142,-2.4102,-2.4022,-2.3794,-2.3768,-2.3794,-2.3861,-2.3808,-2.3768,-2.3768,-2.3567,-2.3434,-2.3434,-2.3434,-2.3434,-2.3434,-2.3434,-2.3426,-2.3516,-2.4081,-2.454,-2.4904,-2.534,-2.561,-2.5826,-2.5877,-2.59,-1.9599,-2.0013,-2.0441,-2.0441,-2.0334,-2.0127,-2.004,-1.9786,-1.9559,-1.9457,-1.943,-1.9412,-1.9573,-1.9466,-1.9613,-2.0388,-2.0112,-1.9273,-1.7847,-1.6132,-1.5457,-1.6625,-1.5981,-1.5512,0.0,-1.5512,-1.5366,-1.4992,-1.4661,-1.4276,-1.4053,-1.3513,-1.3197,-1.3428,-1.3042,-1.3274,-1.4122,-1.3725,-1.3718,-1.4171,-1.3854,-1.4085,-1.4708,-1.4619,-1.4724,0.0,0.0,0.0,-1.4968,-1.4968,-1.4968,-1.4968,-1.4968,-1.4968,-1.4968,-1.4968,-1.4968,-1.4968,-1.4968,-1.5497,-1.6186,-1.694,-1.7778,-1.8234,-1.6559,-1.7768,-1.9283,-1.7854,-1.9736,-2.2223,-2.2223,-2.3426,-2.4636,-2.4636,-2.4636,-2.4636,-2.4636,-2.4636,-2.4636,-2.4636,-2.4636,-2.4636,-2.4636,-2.4636,-2.4583,-2.4422,-2.4396,-2.4342,-2.4195,-2.4168,-2.4168,-2.4168,-2.4048,-2.3968,-2.3968,-2.3701,-2.3527,-2.3527,-2.3527,-2.3527,-2.3527,-2.3527,-2.3517,-2.3552,-2.4065,-2.444,-2.4607,-2.5017,-2.5243,-2.5413,-2.574,-2.5953,-1.9426,-2.0013,-2.0588,-2.0494,-2.0321,-2.0147,-2.0107,-1.972,-1.943,-1.943,-1.943,-1.9386,-1.9426,-1.9309,-1.9338,-2.0,-1.8729,-1.7163,-1.5852,-1.4669,-1.4398,-1.548,-1.5569,-1.5545,-1.552,-1.5488,-1.5333,-1.4992,-1.4276,-1.3744,-1.3667,-1.3042,-1.2811,-1.2965,-1.2733,-1.2719,-1.3007,-1.3232,-1.3363,-1.3409,-1.3478,-1.3861,-1.4544,-1.4414,-1.4536,-1.4927,0.0,0.0,-1.4968,-1.4968,-1.4968,-1.4968,-1.4968,-1.4968,-1.4968,-1.4968,-1.4968,-1.5045,-1.5267,-1.6415,-1.8006,-1.9359,-1.9962,-1.9887,-1.8234,-1.9811,-2.1625,-1.8905,-2.0263,-2.2595,-2.2595,-2.3574,-2.4636,-2.4636,-2.4636,-2.4636,-2.4636,-2.4636,-2.4636,-2.4636,-2.4636,-2.4636,-2.4636,-2.4636,-2.4636,-2.4636,-2.4636,-2.4636,-2.4636,-2.4636,-2.4636,-2.4636,-2.4422,-2.4262,-2.4262,-2.4048,-2.3901,-2.3901,-2.3861,-2.3834,-2.3834,-2.3794,-2.3768,-2.3768,-2.4052,-2.4222,-2.4263,-2.4662,-2.4818,-2.4873,-2.5641,-2.5984,-1.9666,-2.0013,-2.0187,-1.9693,-1.972,-1.98,-1.9559,-1.9439,-1.943,-1.943,-1.943,-1.9439,-1.9693,-1.8758,-1.8713,-2.0982,-1.9428,-1.7633,-1.68,-1.5402,-1.4869,-1.5804,-1.5829,-1.5675,-1.5528,-1.5374,-1.5195,-1.4984,-1.4592,-1.413,-1.3744,-1.359,-1.3197,-1.2579,-1.2888,-1.2832,-1.2401,-1.262,-1.2844,-1.3073,-1.2952,-1.3256,-1.3749,-1.3932,-1.4247,-1.4757,0.0,-1.4968,-1.4968,-1.4968,-1.4968,-1.4968,-1.4968,-1.4968,-1.4968,-1.4968,-1.4968,-1.519,-1.6568,-1.8082,-1.9434,-1.9736,-2.0714,-2.155,-1.9887,-2.0714,-2.2073,-2.1613,-2.2831,-2.4253,-2.4253,-2.4414,-2.4636,-2.4636,-2.4636,-2.4636,-2.4636,-2.4636,-2.4636,-2.4636,-2.4636,-2.4636,-2.4636,-2.4636,-2.4636,-2.4636,-2.4636,-2.4636,-2.4636,-2.4636,-2.4636,-2.4636,-2.4596,-2.4569,-2.4569,-2.4529,-2.4502,-2.4502,-2.4275,-2.4142,-2.4142,-2.3901,-2.3768,-2.3768,-2.3839,-2.3959,-2.4214,-2.462,-2.4902,-2.5162,-2.5935,-2.6328,-1.9533,-1.9773,-1.9973,-1.9867,-2.0054,-2.0241,-1.9926,-1.9721,-1.9503,-1.9404,-1.9377,-1.9227,-1.875,-1.8203,-1.7787,-1.7622,-1.6994,-1.6194,-1.5518,-1.4915,-1.4963,-1.5901,-1.5886,-1.5707,-1.5536,-1.535,-1.5163,-1.4984,-1.4361,-1.3898,-1.3744,-1.3274,-1.2888,-1.2501,-1.258,-1.292,-1.3349,-1.3415,-1.3147,-1.2707,-1.2763,-1.3058,-1.3597,-1.3835,-1.4156,-1.4716,0.0,-1.4968,-1.4968,-1.4968,-1.4968,-1.4968,-1.4968,-1.4968,-1.5122,-1.5956,-1.6864,-1.7844,-1.9434,-2.0489,-2.1239,-2.2073,-2.2905,-2.3203,-2.155,-2.2223,-2.3351,-2.2446,-2.3351,-2.4636,-2.4636,-2.4636,-2.4636,-2.4636,-2.4636,-2.4636,-2.4636,-2.4636,-2.4636,-2.4636,-2.4636,-2.4636,-2.4636,-2.4636,-2.4636,-2.4636,-2.4636,-2.4636,-2.4636,-2.4636,-2.4636,-2.4636,-2.4636,-2.4636,-2.4636,-2.4636,-2.4636,-2.4636,-2.4516,-2.4436,-2.4436,-2.4302,-2.4235,-2.4235,-2.4235,-2.4302,-2.4436,-2.4582,-2.4796,-2.4857,-2.5446,-2.574,-1.9511,-1.9626,-1.988,-2.0241,-2.0454,-2.058,-2.0482,-2.0201,-1.9918,-1.9856,-1.9504,-1.8924,-1.8105,-1.796,-1.7063,-1.4314,-1.4794,-1.5217,-1.4286,-1.4449,-1.4937,-1.5917,-1.5845,-1.5658,-1.5528,-1.5309,-1.5114,-1.4976,-1.4276,-1.3821,-1.3744,-1.312,-1.2719,-1.2454,-1.2796,-1.3394,-1.4277,-1.4504,-1.4204,-1.3294,-1.3092,-1.3395,-1.3898,-1.3819,-1.4066,-1.4651,-1.4802,-1.4891,-1.4968,-1.4891,-1.4891,-1.4968,-1.4968,-1.4968,-1.519,-1.6797,-1.8158,-1.951,-2.1538,-2.2223,-2.2446,-2.4105,-2.4636,-2.4341,-2.3129,-2.3661,-2.4327,-2.3129,-2.3661,-2.4636,-2.4636,-2.4636,-2.4636,-2.4636,-2.4636,-2.4636,-2.4636,-2.4636,-2.4636,-2.4636,-2.469,-2.4743,-2.4743,-2.4743,-2.4756,-2.4823,-2.473,-2.4663,-2.473,-2.4676,-2.4636,-2.4636,-2.4636,-2.4636,-2.4636,-2.4636,-2.4636,-2.4636,-2.4636,-2.4663,-2.473,-2.4676,-2.4636,-2.4636,-2.4636,-2.4636,-2.4636,-2.4636,-2.4636,-2.4636,-2.5005,-2.5226,-1.9693,-1.9786,-1.9933,-2.0508,-2.0454,-2.0425,-2.1124,-2.1072,-2.0954,-2.1336,-2.0057,-1.8794,-1.8729,-1.8323,-1.692,-1.3566,-1.4975,-1.6008,-1.4622,-1.4572,-1.5005,-1.5875,-1.574,-1.5528,-1.552,-1.5195,-1.4984,-1.4968,-1.4592,-1.413,-1.3744,-1.3667,-1.3209,-1.2311,-1.402,-1.467,-1.4099,-1.5524,-1.6062,-1.5797,-1.4449,-1.4173,-1.4848,-1.3838,-1.3706,-1.4398,-1.4441,-1.4669,-1.4968,-1.4592,-1.4669,-1.4968,-1.4968,-1.4968,-1.519,-1.6797,-1.7483,-1.8006,-2.1089,-2.2223,-2.2446,-2.4105,-2.4636,-2.4562,-2.4488,-2.4488,-2.4562,-2.4488,-2.4488,-2.4636,-2.4636,-2.4636,-2.4636,-2.4636,-2.4636,-2.4636,-2.4636,-2.4636,-2.4636,-2.4636,-2.4863,-2.505,-2.505,-2.505,-2.5144,-2.5411,-2.4983,-2.473,-2.501,-2.481,-2.4636,-2.4636,-2.4636,-2.4636,-2.4636,-2.4636,-2.4636,-2.4636,-2.4636,-2.4756,-2.5037,-2.4783,-2.4636,-2.4636,-2.4636,-2.4636,-2.4636,-2.4636,-2.4636,-2.4636,-2.5005,-2.5226,-1.9225,-1.9386,-1.9666,-2.0254,-2.0735,-2.1142,-2.1275,-2.0416,-1.9637,-1.9831,-1.846,-1.7016,-1.6389,-1.5453,-1.4441,-1.3315,-1.3901,-1.4482,-1.4616,-1.4676,-1.5005,-1.5804,-1.5666,-1.5472,-1.5358,-1.5114,-1.542,-1.6415,-1.588,-1.588,-1.6703,-1.6245,-1.5328,-1.3869,-1.5391,-1.6012,-1.5524,-1.6972,-1.8065,-1.896,-1.6695,-1.6061,-1.6705,-1.5425,-1.5121,-1.5576,-1.4745,-1.4485,-1.4643,-1.4613,-1.4654,-1.489,-1.6066,-1.7093,-1.8148,-1.9811,-2.1014,-2.2073,-2.3277,-2.3648,-2.3809,-2.4414,-2.4636,-2.4636,-2.4636,-2.4636,-2.4636,-2.4636,-2.4636,-2.4636,-2.4636,-2.4636,-2.4636,-2.4636,-2.4636,-2.4636,-2.4636,-2.4783,-2.4917,-2.4917,-2.5144,-2.5344,-2.5344,-2.5344,-2.5384,-2.5491,-2.5317,-2.5224,-2.5331,-2.5251,-2.5184,-2.5184,-2.5024,-2.4836,-2.4649,-2.4636,-2.4636,-2.4636,-2.4636,-2.469,-2.4796,-2.469,-2.4636,-2.4636,-2.4636,-2.4636,-2.4636,-2.4636,-2.4636,-2.4636,-2.4784,-2.4857,-1.8888,-1.9008,-1.9243,-1.9887,-2.0566,-2.0953,-2.0755,-1.997,-1.9195,-1.8875,-1.7443,-1.5884,-1.4617,-1.366,-1.3095,-1.3205,-1.3189,-1.3452,-1.4295,-1.4556,-1.4824,-1.5465,-1.5457,-1.5382,-1.5174,-1.5074,-1.542,-1.6568,-1.6492,-1.6788,-1.7768,-1.7692,-1.6915,-1.5512,-1.6795,-1.7388,-1.7171,-1.8449,-1.968,-2.0873,-1.9158,-1.8089,-1.7609,-1.5847,-1.5307,-1.5687,-1.4645,-1.4284,-1.444,-1.4935,-1.5544,-1.6289,-1.7615,-1.883,-1.9962,-2.1625,-2.2905,-2.3883,-2.4414,-2.4636,-2.4636,-2.4636,-2.4636,-2.4636,-2.4636,-2.4636,-2.4636,-2.4636,-2.4636,-2.4636,-2.4636,-2.4636,-2.4663,-2.4756,-2.4783,-2.4796,-2.489,-2.5077,-2.5224,-2.5224,-2.5451,-2.5651,-2.5651,-2.5651,-2.5692,-2.5772,-2.5638,-2.5545,-2.5638,-2.5571,-2.5518,-2.5518,-2.5331,-2.513,-2.493,-2.4917,-2.4877,-2.4783,-2.4783,-2.473,-2.4562,-2.4636,-2.4636,-2.4636,-2.4636,-2.4636,-2.4636,-2.4636,-2.4636,-2.4562,-2.473,-2.4783,-1.8871,-1.8678,-1.8651,-1.9594,-1.98,-1.9663,-1.9414,-2.0016,-2.0299,-1.885,-1.7344,-1.5716,-1.3911,-1.3498,-1.3315,-1.3014,-1.3113,-1.3336,-1.3743,-1.4231,-1.4577,-1.489,-1.5113,-1.5236,-1.5236,-1.5074,-1.5045,-1.5045,-1.6118,-1.6653,-1.6262,-1.7398,-1.7823,-1.7216,-1.8424,-1.8932,-1.8828,-2.0087,-2.0873,-2.1207,-2.1553,-2.0225,-1.7288,-1.4796,-1.3881,-1.4188,-1.3924,-1.4069,-1.4498,-1.5662,-1.7404,-1.9414,-1.9714,-1.9811,-2.0037,-2.1625,-2.2223,-2.2446,-2.4031,-2.4636,-2.4636,-2.4636,-2.4636,-2.4636,-2.4636,-2.4636,-2.4636,-2.4636,-2.4636,-2.4636,-2.4636,-2.4636,-2.4716,-2.501,-2.5077,-2.5157,-2.5451,-2.5518,-2.5518,-2.5518,-2.5758,-2.6037,-2.6037,-2.6037,-2.6052,-2.6346,-2.5892,-2.5625,-2.5919,-2.5705,-2.5518,-2.5518,-2.5518,-2.5518,-2.5518,-2.5518,-2.5384,-2.5104,-2.5077,-2.4957,-2.4649,-2.4636,-2.4636,-2.4636,-2.4636,-2.4636,-2.4636,-2.4562,-2.4562,-2.4649,-2.4943,-2.5077,-1.8328,-1.8701,-1.9256,-1.99,-2.095,-2.1196,-1.901,-1.8309,-1.7655,-1.5845,-1.4761,-1.4066,-1.3725,-1.3278,-1.2982,-1.288,-1.2871,-1.3054,-1.3559,-1.3982,-1.4403,-1.4632,-1.4955,-1.5187,-1.5057,-1.5,-1.5956,-1.8224,-1.8461,-1.9445,-2.155,-2.1562,-2.0762,-1.9382,-2.0263,-2.0097,-1.8828,-2.0087,-2.0735,-2.0873,-2.0167,-2.0028,-2.0364,-1.8044,-1.6874,-1.66,-1.4673,-1.4563,-1.5704,-1.7283,-1.8508,-1.9541,-2.0729,-2.1312,-2.17,-2.3277,-2.3883,-2.3957,-2.4414,-2.4636,-2.4636,-2.4636,-2.4636,-2.4636,-2.4636,-2.4636,-2.4636,-2.4636,-2.4636,-2.4636,-2.4636,-2.4636,-2.4716,-2.501,-2.5077,-2.5157,-2.5451,-2.5678,-2.5825,-2.5825,-2.6066,-2.6266,-2.6266,-2.6266,-2.6293,-2.6373,-2.6239,-2.6159,-2.6253,-2.6186,-2.6052,-2.5838,-2.5825,-2.5745,-2.5531,-2.5518,-2.5478,-2.5384,-2.5384,-2.5157,-2.4589,-2.4636,-2.4636,-2.4636,-2.4636,-2.4636,-2.4636,-2.485,-2.4943,-2.4957,-2.5251,-2.5384,-1.8387,-1.8866,-1.964,-2.0222,-2.1214,-2.1327,-1.8623,-1.6793,-1.5358,-1.4534,-1.387,-1.3598,-1.3978,-1.346,-1.2951,-1.2859,-1.2807,-1.2838,-1.3165,-1.3576,-1.3914,-1.4213,-1.4586,-1.4935,-1.4976,-1.4968,-1.6109,-1.8678,-1.9067,-2.0349,-2.2905,-2.293,-2.2349,-2.1176,-2.1377,-2.0911,-1.9693,-2.0367,-2.0665,-2.0665,-2.0179,-2.0376,-2.1276,-1.839,-1.6987,-1.6856,-1.5239,-1.5735,-1.7791,-1.8932,-2.0135,-2.1242,-2.2312,-2.289,-2.3277,-2.4253,-2.4636,-2.4636,-2.4636,-2.4636,-2.4636,-2.4636,-2.4636,-2.4636,-2.4636,-2.4636,-2.4636,-2.4636,-2.4636,-2.4636,-2.4636,-2.473,-2.489,-2.5184,-2.5251,-2.5358,-2.5772,-2.5999,-2.6132,-2.6132,-2.6266,-2.6386,-2.6386,-2.6386,-2.6386,-2.6386,-2.6386,-2.6386,-2.6386,-2.6386,-2.6319,-2.6146,-2.6132,-2.6052,-2.5879,-2.5865,-2.5812,-2.5692,-2.5692,-2.5478,-2.501,-2.4983,-2.4983,-2.4983,-2.4983,-2.4983,-2.4983,-2.517,-2.5251,-2.5264,-2.5558,-2.5692,-1.8797,-1.9171,-1.9801,-2.0514,-2.0776,-2.0399,-1.8329,-1.5537,-1.3645,-1.4473,-1.4191,-1.392,-1.4297,-1.3815,-1.3181,-1.2981,-1.28,-1.2712,-1.2712,-1.3026,-1.3361,-1.3605,-1.4053,-1.4515,-1.4891,-1.4968,-1.565,-1.7474,-1.8613,-1.9973,-2.17,-2.2521,-2.2781,-2.2532,-2.1812,-2.1317,-2.1135,-2.0798,-2.0665,-2.0665,-2.1012,-2.1012,-2.0596,-1.6856,-1.531,-1.5532,-1.5886,-1.757,-2.011,-2.0473,-2.1894,-2.3723,-2.3989,-2.4283,-2.4562,-2.4562,-2.4636,-2.4636,-2.4636,-2.4636,-2.4636,-2.4636,-2.4636,-2.4636,-2.4636,-2.4636,-2.4636,-2.4636,-2.4636,-2.4636,-2.4636,-2.4863,-2.5157,-2.5451,-2.5531,-2.5705,-2.6266,-2.6386,-2.6386,-2.6386,-2.6386,-2.6386,-2.6386,-2.6386,-2.6386,-2.6386,-2.6386,-2.6386,-2.6386,-2.6386,-2.6386,-2.6386,-2.6386,-2.6386,-2.6386,-2.6386,-2.6279,-2.6012,-2.6077,-2.5879,-2.5598,-2.5545,-2.5518,-2.5518,-2.5518,-2.5518,-2.5518,-2.5545,-2.5558,-2.5558,-2.5852,-2.6077,-1.8498,-1.9159,-2.0183,-2.1358,-2.0519,-1.9285,-1.8593,-1.5795,-1.3569,-1.4149,-1.3873,-1.3528,-1.3762,-1.3429,-1.292,-1.2637,-1.2569,-1.2549,-1.2549,-1.2859,-1.3162,-1.3204,-1.359,-1.4053,-1.4515,-1.4515,-1.588,-1.9057,-1.951,-2.0789,-2.3364,-2.3161,-2.2802,-2.2532,-2.1617,-2.1195,-2.1135,-2.0798,-2.0665,0.0,-2.0735,-2.0735,-2.0596,-1.797,-1.6211,-1.531,-1.7981,-1.932,-1.9738,-2.1257,-2.2294,-2.2911,-2.3262,-2.3746,-2.4193,-2.4488,-2.4636,-2.4636,-2.4636,-2.4636,-2.4636,-2.4636,-2.4636,-2.4636,-2.4636,-2.4636,-2.4636,-2.4636,-2.4636,-2.4636,-2.4636,-2.4863,-2.5157,-2.5451,-2.5692,-2.5959,-2.6319,-2.6386,-2.6386,-2.6386,-2.6386,-2.6386,-2.6386,-2.6386,-2.6386,-2.6386,-2.6386,-2.6386,-2.6386,-2.6386,-2.6386,-2.6386,-2.6386,-2.6386,-2.6386,-2.6386,-2.636,-2.6306,-2.6293,-2.6266,-2.6199,-2.5758,-2.5518,-2.5518,-2.5518,-2.5518,-2.5518,-2.5745,-2.5865,-2.5865,-2.6159,-2.6293,-1.8545,-1.9432,-2.0753,-2.2134,-2.1216,-1.9693,-1.8826,-1.647,-1.4408,-1.3934,-1.3568,-1.3486,-1.3974,-1.3422,-1.28,-1.2637,-1.2549,-1.2501,-1.2501,-1.2656,-1.2888,-1.3042,-1.3274,-1.359,-1.4053,-1.4284,-1.5803,-1.9273,-1.9661,-2.0968,-2.3689,-2.3254,-2.2759,-2.2134,-2.1493,-2.1074,-2.0941,-2.0738,-2.0665,-2.0665,-2.0665,-2.0318,-1.9541,-1.8541,-1.7559,-1.6715,-1.8692,-1.9889,-2.0376,-2.1346,-2.2103,-2.2624,-2.3054,-2.3536,-2.4044,-2.4488,-2.4636,-2.4636,-2.4636,-2.4636,-2.4636,-2.4636,-2.4636,-2.4636,-2.4636,-2.4636,-2.4636,-2.4636,-2.4636,-2.4676,-2.481,-2.5064,-2.5358,-2.5651,-2.5838,-2.6039,-2.6333,-2.6386,-2.6386,-2.6386,-2.6386,-2.6386,-2.6386,-2.6386,-2.6386,-2.6386,-2.6386,-2.6386,-2.6386,-2.6386,-2.6386,-2.6386,-2.6386,-2.6386,-2.6386,-2.6386,-2.6386,-2.6386,-2.6386,-2.6386,-2.6386,-2.6092,-2.5932,-2.5932,-2.5932,-2.5932,-2.5932,-2.6092,-2.6159,-2.6159,-2.6319,-2.6386,-1.8532,-1.9726,-2.1374,-2.2868,-2.2142,-2.0691,-1.9318,-1.7499,-1.5739,-1.4323,-1.3608,-1.3376,-1.4158,-1.3453,-1.2718,-1.2698,-1.2583,-1.2501,-1.2501,-1.2501,-1.2656,-1.2965,-1.2965,-1.312,-1.3583,-1.4253,-1.5913,-1.896,-1.965,-2.0969,-2.3409,-2.3015,-2.2388,-2.1641,-2.1227,-2.0883,-2.0665,-2.0665,-2.0665,-2.0665,-2.0665,-2.0028,-1.8832,-1.9122,-1.8982,-1.8412,-1.9122,-2.0028,-2.1138,-2.1207,-2.1682,-2.2481,-2.2898,-2.3391,-2.397,-2.4414,-2.4636,-2.4636,-2.4636,-2.4636,-2.4636,-2.4636,-2.4636,-2.4636,-2.4636,-2.4636,-2.4636,-2.4636,-2.4676,-2.477,-2.5024,-2.5331,-2.5651,-2.5892,-2.6077,-2.6092,-2.6333,-2.6386,-2.6386,-2.6386,-2.6386,-2.6386,-2.6386,-2.6386,-2.6386,-2.6386,-2.6386,-2.6386,-2.6386,-2.6386,-2.6386,-2.6386,-2.6386,-2.6386,-2.6386,-2.6386,-2.6386,-2.6386,-2.6386,-2.6386,-2.6386,-2.6386,-2.6386,-2.6386,-2.6386,-2.6386,-2.6386,-2.6386,-2.6386,-2.6386,-2.6386,-2.6386,-1.7854,-1.9853,-2.1988,-2.3133,-2.225,-2.111,-2.0779,-1.9034,-1.7162,-1.6035,-1.4323,-1.3109,-1.3447,-1.3075,-1.2684,-1.2556,-1.2515,-1.2501,-1.2501,-1.2501,-1.2501,-1.2579,-1.2579,-1.2733,-1.312,-1.4586,-1.6578,-1.9025,-2.0088,-2.1401,-2.3019,-2.2275,-2.1632,-2.1205,-2.0904,-2.0771,-2.0665,-2.0665,-2.0665,-2.0665,-2.0665,-2.0596,-2.0388,-2.0457,-1.968,-1.8482,-2.0167,-2.0861,-2.0804,-2.1081,-2.1401,-2.169,-2.2384,-2.3015,-2.3587,-2.4341,-2.4636,-2.4636,-2.4636,-2.4636,-2.4636,-2.4636,-2.4636,-2.4636,-2.4636,-2.4636,-2.4636,-2.4636,-2.4823,-2.5024,-2.5064,-2.5491,-2.5905,-2.6023,-2.6146,-2.6346,-2.6386,-2.6386,-2.6386,-2.6386,-2.6386,-2.6386,-2.6386,-2.6386,-2.6386,-2.6386,-2.6386,-2.6386,-2.6386,-2.6386,-2.6386,-2.6386,-2.6386,-2.6386,-2.6386,-2.6386,-2.6386,-2.6386,-2.6386,-2.6386,-2.6386,-2.6386,-2.6386,-2.6386,-2.6386,-2.6386,-2.6386,-2.6386,-2.6386,-2.6386,-2.6386,-2.6386,-1.8316,-1.9794,-2.1414,-2.2924,-2.273,-2.2023,-2.1201,-2.021,-1.9027,-1.7449,-1.6268,-1.5039,-1.359,-1.2977,-1.2583,-1.2515,-1.2501,-1.2501,-1.2501,-1.2501,-1.2474,-1.2393,-1.2386,-1.2428,-1.2491,-1.3469,-1.5159,-1.7986,-1.8843,-2.0104,-2.2131,-2.1894,-2.1484,-2.0917,-2.0726,-2.0665,-2.0665,-2.0665,-2.0665,-2.0665,-2.0665,-2.0665,-2.0665,-2.0665,-2.0318,-1.975,-2.0584,-2.0804,-2.0747,-2.1032,-2.1395,-2.1906,-2.256,-2.3228,-2.3809,-2.4414,-2.4636,-2.4636,-2.4636,-2.4636,-2.4636,-2.4636,-2.4636,-2.4636,-2.4636,-2.4636,-2.4676,-2.4836,-2.4983,-2.5157,-2.5491,-2.5758,-2.6077,-2.6159,-2.6293,-2.6386,-2.6386,-2.6386,-2.6386,-2.6386,-2.6386,-2.6386,-2.6386,-2.6386,-2.6386,-2.6386,-2.6386,-2.6386,-2.6386,-2.6386,-2.6386,-2.6386,-2.6386,-2.6386,-2.6386,-2.6386,-2.6386,-2.6386,-2.6386,-2.6386,-2.6386,-2.6386,-2.6386,-2.6386,-2.6386,-2.6386,-2.6386,-2.6386,-2.6386,-2.6386,-2.6386,-2.6386,-1.842,-1.9378,-2.0451,-2.2157,-2.2665,-2.2472,-2.1469,-2.1268,-2.0709,-1.885,-1.8224,-1.7264,-1.4919,-1.3704,-1.3112,-1.3112,-1.2804,-1.2501,-1.2501,-1.2501,-1.2447,-1.2311,-1.2291,-1.223,-1.2074,-1.3133,-1.4801,-1.7258,-1.8259,-1.9663,-2.1629,-2.1554,-2.1221,-2.0747,-2.0665,-2.0665,-2.0665,-2.0665,-2.0665,-2.0665,-2.0665,-2.0665,-2.0665,-2.0665,-2.0665,-2.0665,-2.0665,-2.0665,-2.069,-2.1026,-2.1505,-2.2194,-2.2772,-2.3417,-2.4044,-2.4488,-2.4636,-2.4636,-2.4636,-2.4636,-2.4636,-2.4636,-2.4636,-2.4636,-2.4636,-2.469,-2.4796,-2.5024,-2.5184,-2.5411,-2.5838,-2.609,-2.6119,-2.6333,-2.6386,-2.6386,-2.6386,-2.6386,-2.6386,-2.6386,-2.6386,-2.6386,-2.6386,-2.6386,-2.6386,-2.6386,-2.6386,-2.6386,-2.6386,-2.6386,-2.6386,-2.6386,-2.6386,-2.6386,-2.6386,-2.6386,-2.6386,-2.6386,-2.6386,-2.6386,-2.6386,-2.6386,-2.6386,-2.6386,-2.6386,-2.6386,-2.6386,-2.6386,-2.6386,-2.6386,-2.6386,-2.6386,-1.7435,-1.8315,-1.9287,-2.0535,-2.1358,-2.191,-2.1988,-2.2172,-2.181,-2.0069,-1.9661,-1.921,-1.7573,-1.5885,-1.479,-1.479,-1.3491,-1.2501,-1.2501,-1.2501,-1.2447,-1.2311,-1.2291,-1.223,-1.2074,-1.4902,-1.6899,-1.7394,-1.9685,-2.1217,-2.1674,-2.1102,-2.0759,-2.0665,-2.0665,-2.0665,-2.0665,-2.0665,-2.0665,-2.0665,-2.0665,-2.0665,-2.0665,-2.0665,-2.0665,-2.0665,-2.0665,-2.0665,-2.069,-2.1026,-2.1505,-2.2194,-2.2772,-2.3417,-2.4044,-2.4488,-2.4636,-2.4636,-2.4636,-2.4636,-2.4636,-2.4636,-2.4636,-2.4636,-2.4636,-2.4836,-2.5064,-2.5077,-2.5478,-2.5996,-2.6023,-2.6159,-2.6373,-2.6386,-2.6386,-2.6386,-2.6386,-2.6386,-2.6386,-2.6386,-2.6386,-2.6386,-2.6386,-2.6386,-2.6386,-2.6386,-2.6386,-2.6386,-2.6386,-2.6386,-2.6386,-2.6386,-2.6386,-2.6386,-2.6386,-2.6386,-2.6386,-2.6386,-2.6386,-2.6386,-2.6386,-2.6386,-2.6386,-2.6386,-2.6386,-2.6386,-2.6386,-2.6386,-2.6386,-2.6386,-2.6386,-2.6386,-1.7831,-1.8,-1.8343,-1.9533,-2.0305,-2.099,-2.1729,-2.209,-2.2001,-2.1388,-2.1211,-2.1024,-2.0455,-1.8154,-1.6352,-1.6494,-1.4992,-1.3831,-1.4014,-1.3112,-1.2447,-1.2311,-1.2203,-1.2081,-1.1932,-1.2859,-1.4352,-1.642,-1.742,-1.8854,-2.0938,-2.0853,-2.0665,-2.0665,-2.0665,-2.0665,-2.0665,-2.0665,-2.0665,-2.0665,-2.0665,-2.0665,-2.0665,-2.0665,-2.0665,-2.0665,-2.0665,-2.0665,-2.0702,-2.1148,-2.1665,-2.2219,-2.2961,-2.3584,-2.4044,-2.4488,-2.4636,-2.4636,-2.4636,-2.4636,-2.4636,-2.4636,-2.4636,-2.4636,-2.4636,-2.4836,-2.5117,-2.5304,-2.5651,-2.6077,-2.6186,-2.6306,-2.6386,-2.6386,-2.6386,-2.6386,-2.6386,-2.6386,-2.6386,-2.6386,-2.6386,-2.6386,-2.6386,-2.6386,-2.6266,-2.5879,-2.6146,-2.6253,-2.5879,-2.6159,-2.6386,-2.6386,-2.6386,-2.6386,-2.6386,-2.6386,-2.6386,-2.6386,-2.6386,-2.6386,-2.6386,-2.6386,-2.6386,-2.6386,-2.6386,-2.6386,-2.6386,-2.6386,-2.6386,-2.6386,-2.6386,-2.6386,-1.7639,-1.7435,-1.7408,-1.849,-1.9132,-1.9814,-2.1072,-2.1424,-2.159,-2.179,-2.1836,-2.1801,-2.2023,-2.0138,-1.8508,-1.8201,-1.6572,-1.5169,-1.4838,-1.3869,-1.2998,-1.2374,-1.2108,-1.1945,-1.1843,-1.2554,-1.3951,-1.5919,-1.7047,0.0,-2.0596,-2.0665,-2.0665,-2.0665,-2.0665,-2.0665,-2.0665,-2.0665,-2.0665,-2.0665,-2.0665,-2.0665,-2.0665,-2.0665,-2.0665,-2.0665,-2.0665,-2.0665,-2.0714,-2.1257,-2.175,-2.2219,-2.3075,-2.3674,-2.4044,-2.4488,-2.4636,-2.4636,-2.4636,-2.4636,-2.4636,-2.4636,-2.4703,-2.4783,-2.4783,-2.5064,-2.5411,-2.5611,-2.5879,-2.6146,-2.6333,-2.6386,-2.6386,-2.6386,-2.6386,-2.6386,-2.6386,-2.6386,-2.6386,-2.6386,-2.6386,-2.6386,-2.6386,-2.6386,-2.6253,-2.5865,-2.6146,-2.6253,-2.5852,-2.6146,-2.6386,-2.6386,-2.6386,-2.6386,-2.6386,-2.6386,-2.6386,-2.6386,-2.6386,-2.6386,-2.6386,-2.6386,-2.6386,-2.6386,-2.6386,-2.6386,-2.6386,-2.6386,-2.6386,-2.6386,-2.6386,-2.6386,0.0,0.0,0.0,-1.7301,-1.7756,-1.8351,-2.0054,-2.0349,-2.057,-2.1426,-2.153,-2.164,-2.2077,-2.1815,-2.1183,-1.9854,-1.8171,-1.6534,-1.4893,-1.4684,-1.4164,-1.2588,-1.2168,-1.1903,-1.1976,-1.447,-1.6131,-1.6131,-1.896,-2.0665,-2.0665,-2.0665,-2.0665,-2.0665,-2.0665,-2.0665,-2.0665,-2.0665,-2.0665,-2.0665,-2.0665,-2.0665,-2.0665,-2.0665,-2.0665,-2.0665,-2.0665,-2.0665,-2.0714,-2.1257,-2.175,-2.2219,-2.3075,-2.3674,-2.4044,-2.4488,-2.4562,-2.4562,-2.4562,-2.4562,-2.4562,-2.4562,-2.4836,-2.5077,-2.5077,-2.5491,-2.6037,-2.6037,-2.6159,-2.6386,-2.6386,-2.6386,-2.6386,-2.6386,-2.6386,-2.6386,-2.6386,-2.6386,-2.6386,-2.6386,-2.6386,-2.6386,-2.6386,-2.6386,-2.6386,-2.6373,-2.6373,-2.6373,-2.636,-2.6373,-2.6373,-2.6386,-2.6386,-2.6386,-2.6386,-2.6386,-2.6386,-2.64,-2.64,-2.6413,-2.6413,-2.6413,-2.64,-2.64,-2.6386,-2.6386,-2.6386,-2.6386,-2.6386,-2.6386,-2.6386,-2.6386,-1.7497,0.0,0.0,0.0,0.0,0.0,-1.8167,-1.8829,-1.944,-2.0255,-2.0526,-2.081,-2.1408,-2.1192,-2.0938,-2.0789,-1.9573,-1.8414,-1.7859,-1.6982,-1.6125,-1.5471,-1.5424,-1.5375,-1.5171,-1.5685,-1.6554,0.0,-1.8552,-1.9541,-2.0665,-2.0665,-2.0665,-2.0665,-2.0665,-2.0665,-2.0665,-2.0665,-2.0665,-2.0665,-2.0665,-2.0665,-2.0665,-2.0665,-2.0665,-2.0665,-2.0665,-2.0665,-2.0714,-2.1257,-2.175,-2.2219,-2.3075,-2.3674,-2.4044,-2.4488,-2.4414,-2.4193,-2.4193,-2.4193,-2.4193,-2.4193,-2.4613,-2.5077,-2.5077,-2.5491,-2.6037,-2.6037,-2.6159,-2.6386,-2.6386,-2.6386,-2.6386,-2.6386,-2.6386,-2.6386,-2.6386,-2.6386,-2.6386,-2.6386,-2.6386,-2.6386,-2.6386,-2.6386,-2.6239,-2.5825,-2.5945,-2.5999,-2.5785,-2.5945,-2.6159,-2.6373,-2.6386,-2.6386,-2.6386,-2.6386,-2.648,-2.6694,-2.6707,-2.68,-2.7014,-2.6814,-2.6707,-2.6707,-2.6493,-2.6386,-2.6386,-2.6386,-2.6386,-2.6386,-2.6386,-2.6386,-1.8137,-1.7056,0.0,-1.598,0.0,0.0,-1.7649,-1.8121,-1.8577,-1.9822,-2.0015,-2.0162,-2.0909,-2.0718,-2.057,-2.094,-2.0397,-1.963,-1.8907,-1.8196,-1.7463,-1.67,-1.6531,-1.6481,-1.6381,-1.6832,-1.7409,-1.8331,-1.8971,-1.975,-2.0665,-2.0665,-2.0665,-2.0665,-2.0665,-2.0665,-2.0665,-2.0665,-2.0665,-2.0665,-2.0665,-2.0665,-2.0665,-2.0665,-2.0665,-2.0665,-2.0665,-2.0665,-2.0783,-2.1459,-2.1894,-2.2219,-2.3222,-2.3661,-2.3822,-2.4193,-2.4119,-2.3735,-2.3735,-2.3896,-2.3983,-2.4175,-2.471,-2.5277,-2.5411,-2.5772,-2.6132,-2.6132,-2.6266,-2.6386,-2.6386,-2.6386,-2.6386,-2.6386,-2.6386,-2.6426,-2.6547,-2.6573,-2.6533,-2.6413,-2.6386,-2.6386,-2.6386,-2.6493,-2.6453,-2.6106,-2.6213,-2.6253,-2.6079,-2.6106,-2.6199,-2.6373,-2.6386,-2.6386,-2.6386,-2.6507,-2.664,-2.6814,-2.6934,-2.7081,-2.7255,-2.7094,-2.7001,-2.7001,-2.672,-2.6573,-2.6573,-2.6453,-2.6386,-2.6386,-2.6386,-2.6386,-1.8839,-1.8026,0.0,0.0,-1.6265,0.0,-1.7769,-1.7793,-1.7874,-1.9421,-1.9498,-1.9574,-2.0421,-2.0138,-1.9955,-2.0414,-2.0558,-2.0227,-1.8992,-1.8948,-1.8534,-1.719,-1.6816,-1.6732,-1.6836,-1.7986,-1.8735,-1.8735,-2.0005,-2.0702,-2.0665,-2.0735,-2.0735,-2.0665,-2.0735,-2.0735,-2.0665,-2.0665,-2.0665,-2.0665,-2.0665,-2.0665,-2.0665,-2.0665,-2.0665,-2.0665,-2.0665,-2.0665,-2.0783,-2.1731,-2.2169,-2.2291,-2.3443,-2.3748,-2.3525,-2.3822,-2.3674,-2.3364,-2.3364,-2.3612,-2.3974,-2.4308,-2.4911,-2.5535,-2.5879,-2.6159,-2.6386,-2.6386,-2.6386,-2.6386,-2.6386,-2.6386,-2.6386,-2.6386,-2.6413,-2.6507,-2.6774,-2.6854,-2.68,-2.6533,-2.6493,-2.6493,-2.6493,-2.6707,-2.6867,-2.6867,-2.6841,-2.6827,-2.6867,-2.6613,-2.6453,-2.648,-2.6493,-2.6493,-2.6493,-2.672,-2.6881,-2.6921,-2.7175,-2.7321,-2.7362,-2.7335,-2.7308,-2.7308,-2.6987,-2.6827,-2.6827,-2.6533,-2.6413,-2.644,-2.64,-2.6386,-2.0449,-1.9786,-1.8863,-1.764,-1.7558,0.0,-1.6001,-1.6513,-1.7265,-1.7276,-1.7592,-1.8084,-1.8712,-1.8688,-1.8581,-1.847,-1.9181,-1.9881,-2.0213,-2.0497,-2.0427,-1.9982,-2.0051,-2.0051,-1.9901,-2.0321,-2.0556,-2.0556,-2.0838,-2.0965,-2.0678,-2.0943,-2.1012,-2.0735,-2.0943,-2.0943,-2.0665,-2.0665,-2.0665,-2.0665,-2.0665,-2.0665,-2.0665,-2.0665,-2.0665,-2.0665,-2.0665,-2.0665,-2.0783,-2.2015,-2.2527,-2.265,-2.3296,-2.3661,-2.3822,-2.3587,-2.3302,-2.3005,-2.3005,-2.3142,-2.3405,-2.3845,-2.4584,-2.54,-2.5854,-2.6159,-2.6386,-2.6386,-2.6386,-2.6386,-2.6386,-2.6386,-2.6386,-2.6386,-2.656,-2.6747,-2.6814,-2.7014,-2.7161,-2.7108,-2.7094,-2.7094,-2.7094,-2.7148,-2.7175,-2.7175,-2.6974,-2.6907,-2.7148,-2.6921,-2.6827,-2.7068,-2.7094,-2.7094,-2.7094,-2.7148,-2.7281,-2.7509,-2.7589,-2.7722,-2.8047,-2.7736,-2.7615,-2.7615,-2.7094,-2.6827,-2.6827,-2.6533,-2.6507,-2.6734,-2.6493,-2.6386,-2.1453,-2.0877,-2.0291,-1.9286,0.0,0.0,0.0,-1.726,-1.7479,-1.7318,-1.7173,-1.7365,-1.8205,-1.7869,-1.7583,-1.8013,-1.8656,-1.9301,-1.9851,-2.0517,-2.088,-2.0759,-2.0786,-2.088,-2.0678,-2.0907,-2.1183,-2.1257,-2.1207,-2.1074,-2.0941,-2.0947,-2.0873,-2.0735,-2.0873,-2.0873,-2.0665,-2.0665,-2.0665,-2.0665,-2.0665,-2.0665,-2.0665,-2.0665,-2.0665,-2.0665,-2.0665,-2.0807,-2.0965,-2.1923,-2.2472,-2.2649,-2.3433,-2.36,-2.3451,-2.3228,-2.293,-2.2657,-2.3005,-2.3292,-2.3681,-2.4418,-2.5088,-2.5738,-2.6132,-2.6279,-2.6386,-2.6386,-2.6386,-2.6386,-2.6386,-2.6386,-2.6426,-2.6573,-2.672,-2.6907,-2.7188,-2.7375,-2.7522,-2.7752,-2.7792,-2.7615,-2.7321,-2.7388,-2.7482,-2.7482,-2.7362,-2.7308,-2.7468,-2.7228,-2.7094,-2.7255,-2.7268,-2.7268,-2.7268,-2.7402,-2.7549,-2.7682,-2.7843,-2.7989,-2.8221,-2.8003,-2.7776,-2.7495,-2.7054,-2.6827,-2.6827,-2.6533,-2.6533,-2.6814,-2.668,-2.6533,0.0,-2.2271,-2.2045,0.0,0.0,-1.9605,0.0,0.0,0.0,0.0,0.0,-1.6833,-1.7749,-1.7088,0.0,-1.7603,0.0,0.0,0.0,-1.9572,0.0,-2.0424,-2.0484,-2.0533,-2.0593,-2.0786,-2.104,-2.1378,-2.1171,-2.1001,-2.105,-2.0856,-2.0735,-2.0665,-2.0735,-2.0735,-2.0665,-2.0665,-2.0665,-2.0665,-2.0665,-2.0665,-2.0665,-2.0665,-2.0665,-2.0665,-2.0726,-2.0929,-2.1159,-2.1904,-2.2248,-2.2484,-2.341,-2.3451,-2.2856,-2.2781,-2.2558,-2.237,-2.309,-2.3517,-2.4023,-2.5075,-2.5674,-2.6079,-2.6319,-2.6386,-2.6386,-2.6386,-2.6386,-2.6386,-2.6386,-2.6426,-2.6533,-2.6774,-2.6907,-2.7121,-2.7602,-2.7749,-2.7856,-2.8181,-2.8221,-2.8073,-2.7604,-2.7629,-2.7789,-2.7789,-2.7789,-2.7789,-2.7789,-2.7575,-2.7428,-2.7428,-2.7428,-2.7428,-2.7428,-2.7655,-2.7789,-2.7789,-2.8003,-2.8221,-2.8221,-2.8167,-2.7776,-2.7188,-2.6947,-2.6827,-2.6827,-2.6587,-2.6587,-2.6827,-2.676,-2.6613,0.0,0.0,0.0,0.0,-2.2264,0.0,0.0,0.0,-1.7931,-1.7171,0.0,0.0,0.0,0.0,0.0,0.0,0.0,0.0,-1.7024,-1.7911,-1.8819,-1.9519,-1.982,-2.0062,-2.0303,-2.0352,-2.0569,-2.1135,-2.0641,-2.046,-2.0702,-2.1024,-2.1012,-2.0735,-2.1012,-2.1012,-2.0665,-2.0665,-2.0665,-2.0665,-2.0665,-2.0665,-2.0665,-2.0665,-2.0665,-2.0678,-2.0977,-2.1098,-2.1171,-2.2042,-2.2276,-2.2044,-2.2757,-2.3005,-2.2856,-2.2483,-2.2334,-2.237,-2.309,-2.349,-2.3893,-2.5063,-2.5819,-2.6346,-2.6373,-2.6386,-2.6386,-2.6386,-2.6386,-2.6386,-2.6386,-2.6587,-2.6787,-2.6814,-2.7215,-2.7615,-2.7682,-2.7909,-2.8181,-2.8221,-2.8221,-2.8207,-2.814,-2.8154,-2.8181,-2.8181,-2.8181,-2.8181,-2.8181,-2.814,-2.8127,-2.8127,-2.8127,-2.8127,-2.8127,-2.8154,-2.8181,-2.8181,-2.8207,-2.8221,-2.8221,-2.7896,-2.7468,-2.6881,-2.6841,-2.6827,-2.6827,-2.6787,-2.6787,-2.6814,-2.656,-2.6426,0.0,0.0,0.0,0.0,0.0,0.0,-2.0473,0.0,-1.8328,0.0,0.0,0.0,0.0,0.0,0.0,0.0,-1.6381,0.0,0.0,0.0,-1.7886,0.0,0.0,0.0,-1.9748,-1.9953,-2.0267,-2.0868,-2.0484,-2.0388,-2.0653,-2.0804,-2.0873,-2.0665,-2.0804,-2.0873,-2.0665,-2.0665,-2.0665,-2.0665,-2.0665,-2.0665,-2.0665,-2.0665,-2.0665,-2.0678,-2.1013,-2.1219,-2.1401,-2.1934,-2.2104,-2.2176,-2.2446,-2.2558,-2.2558,-2.2632,-2.273,-2.2978,-2.3935,-2.4444,-2.4804,-2.5714,-2.6135,-2.6386,-2.6386,-2.6386,-2.6386,-2.6386,-2.6386,-2.6426,-2.66,-2.6734,-2.6907,-2.7255,-2.7522,-2.7749,-2.7923,-2.814,-2.8221,-2.8221,-2.8221,-2.8221,-2.8221,-2.8221,-2.8221,-2.8221,-2.8221,-2.8221,-2.8221,-2.8221,-2.8221,-2.8221,-2.8221,-2.8221,-2.8221,-2.8221,-2.8221,-2.8221,-2.7976,-2.7883,-2.7883,-2.7442,-2.7068,-2.6827,-2.6653,-2.6573,-2.6573,-2.6573,-2.6573,-2.6573,-2.6613,-2.6547,-2.5487,0.0,0.0,0.0,0.0,0.0,0.0,0.0,0.0,0.0,0.0,0.0,0.0,0.0,0.0,0.0,0.0,-1.6459,0.0,-1.6546,0.0,0.0,0.0,0.0,0.0,-1.9301,-1.9615,-2.0291,0.0,-1.9941,-2.0424,-2.0521,-2.0557,-2.0557,-2.0629,-2.0665,-2.0665,-2.0665,-2.0665,-2.0665,-2.0665,-2.0665,-2.0665,-2.0665,-2.0702,-2.0786,-2.1064,-2.1329,-2.1607,-2.1873,-2.209,-2.2334,-2.2334,-2.2334,-2.2483,-2.2781,-2.3104,-2.3454,-2.4571,-2.5217,-2.5714,-2.6241,-2.6386,-2.6386,-2.6386,-2.6386,-2.6386,-2.6386,-2.6453,-2.656,-2.6774,-2.6947,-2.7175,-2.7602,-2.7762,-2.7883,-2.8181,-2.8221,-2.8221,-2.8221,-2.8221,-2.8221,-2.8221,-2.8221,-2.8221,-2.8221,-2.8221,-2.8221,-2.8221,-2.8221,-2.8221,-2.8221,-2.8221,-2.8221,-2.8221,-2.8154,-2.8073,-2.7993,-2.7696,-2.7549,-2.7455,-2.7054,-2.6787,-2.6707,-2.6493,-2.6386,-2.6386,-2.6386,-2.6386,-2.6386,-2.66,-2.6587,0.0,0.0,0.0,-2.485,0.0,0.0,0.0,0.0,-2.1298,0.0,0.0,0.0,0.0,0.0,0.0,0.0,0.0,0.0,0.0,0.0,0.0,0.0,0.0,0.0,0.0,-1.8239,-1.8372,0.0,-1.8794,-1.8807,-1.9857,-2.0158,-2.0291,-2.0291,-2.0533,-2.0665,-2.0665,-2.0665,-2.0665,-2.0665,-2.0665,-2.0665,-2.0665,-2.0665,-2.088,-2.1135,-2.1341,-2.1619,-2.1873,-2.2212,-2.2259,-2.2334,-2.2334,-2.2558,-2.2856,-2.293,-2.3104,-2.3454,-2.4571,-2.5581,-2.6373,-2.6386,-2.6386,-2.6386,-2.6386,-2.6386,-2.6386,-2.6386,-2.6587,-2.6814,-2.6814,-2.7241,-2.7682,-2.7696,-2.7923,-2.8221,-2.8221,-2.8221,-2.8221,-2.8221,-2.8221,-2.8221,-2.8221,-2.8221,-2.8221,-2.8221,-2.8221,-2.8221,-2.8221,-2.8221,-2.8221,-2.8221,-2.8221,-2.8221,-2.8221,-2.7883,-2.7589,-2.7308,-2.7281,-2.7148,-2.6867,-2.6827,-2.6694,-2.6413,-2.6386,-2.6386,-2.6386,-2.6386,-2.6386,-2.6386,-2.64,-2.64,0.0,0.0,-2.332,-2.4272,0.0,0.0,0.0,0.0,0.0,0.0,0.0,0.0,0.0,0.0,0.0,0.0,0.0,0.0,0.0,0.0,0.0,0.0,0.0,0.0,0.0,0.0,0.0,0.0,-1.807,0.0,-1.9301,-1.9772,-2.0183,-2.0521,-2.0786,-2.0931,-2.0931,-2.1112,-2.1112,-2.1001,-2.1112,-2.1112,-2.0931,-2.0931,-2.105,-2.1076,-2.1354,-2.1631,-2.1885,-2.215,-2.2334,-2.2334,-2.2334,-2.2558,-2.293,-2.3154,-2.3744,-2.4508,-2.553,-2.6147,-2.6386,-2.6386,-2.6386,-2.6386,-2.6386,-2.6386,-2.6386,-2.6386,-2.66,-2.6867,-2.7068,-2.7402,-2.7749,-2.7949,-2.8154,-2.8221,-2.8221,-2.8221,-2.8221,-2.8221,-2.8221,-2.8167,-2.7883,-2.7856,-2.7909,-2.8194,-2.8221,-2.8221,-2.8221,-2.8221,-2.8221,-2.8221,-2.7963,-2.7856,-2.7856,-2.7575,-2.7375,-2.7268,-2.7081,-2.6921,-2.6827,-2.664,-2.6493,-2.6386,-2.6386,-2.6386,-2.6386,-2.6386,-2.6386,-2.6386,-2.6386,-2.6386,-2.3962,-2.3365,0.0,-2.3979,-2.3079,0.0,-2.2265,0.0,0.0,0.0,0.0,0.0,0.0,0.0,0.0,0.0,0.0,0.0,0.0,-1.5524,0.0,0.0,0.0,0.0,0.0,0.0,-1.7117,-1.7587,-1.7515,0.0,0.0,0.0,-1.9941,-2.0376,-2.0892,-2.1183,-2.1209,-2.1293,-2.1293,-2.1209,-2.1293,-2.1293,-2.1209,-2.1171,-2.116,-2.1425,-2.1438,-2.1679,-2.2029,-2.2273,-2.2334,-2.2334,-2.2334,-2.2632,-2.3092,-2.3478,-2.4326,-2.5423,-2.6147,-2.6386,-2.6386,-2.6386,-2.6386,-2.6386,-2.6386,-2.6319,-2.6279,-2.6493,-2.668,-2.6907,-2.7308,-2.7642,-2.7909,-2.8181,-2.8221,-2.8221,-2.8221,-2.8221,-2.8221,-2.8221,-2.814,-2.7923,-2.7736,-2.7615,-2.7615,-2.7886,-2.7913,-2.7913,-2.7913,-2.7913,-2.7913,-2.7913,-2.7655,-2.7509,-2.7402,-2.7215,-2.7068,-2.6961,-2.6774,-2.6667,-2.6667,-2.6493,-2.6386,-2.6386,-2.6386,-2.6386,-2.6386,-2.6386,-2.6386,-2.6386,-2.6493,-2.6547]},{"header":{"parameterUnit":"m.s-1","parameterCategory":1,"la1":30.6,"la2":29.2853,"lo1":-89.7004,"lo2":-87.6739,"dy":0.0162,"dx":0.0183,"nx":112,"ny":82,"refTime":"2026-02-27T00:00:00:Z","depth":0,"parameterNumber":3,"parameterNumberName":"V-component_of_WINDS"},"data":[0.0,0.0,0.0,0.0,0.0,0.0,0.0,0.0,0.0,0.0,0.0,0.0,0.0,0.0,0.0,0.0,0.0,0.0,0.0,0.0,0.0,0.0,0.0,0.0,0.0,0.0,0.0,0.0,0.0,0.0,0.0,0.0,0.0,0.0,0.0,0.0,0.0,0.0,0.0,0.0,0.0,0.0,0.0,0.0,0.0,0.0,0.0,0.0,0.0,0.0,0.0,0.0,0.0,0.0,0.0,0.0,0.0,0.0,0.0,0.0,0.0,0.0,0.0,0.0,0.0,0.0,0.0,0.0,0.0,0.0,0.0,0.0,0.0,0.0,0.0,0.0,0.0,0.0,0.0,0.0,0.0,0.0,0.0,0.0,0.0,0.0,0.0,0.0,0.0,0.0,3.0971,3.3034,3.5392,3.6416,3.5475,3.5576,3.4114,3.0393,0.0,0.0,0.0,0.0,0.0,0.0,0.0,0.0,0.0,0.0,0.0,0.0,0.0,0.0,0.0,0.0,0.0,0.0,0.0,0.0,0.0,0.0,0.0,0.0,0.0,0.0,0.0,0.0,0.0,0.0,0.0,0.0,0.0,0.0,0.0,0.0,0.0,0.0,0.0,0.0,0.0,0.0,0.0,0.0,0.0,0.0,0.0,0.0,0.0,0.0,0.0,0.0,0.0,0.0,0.0,0.0,0.0,0.0,0.0,0.0,0.0,0.0,0.0,0.0,0.0,0.0,0.0,0.0,0.0,0.0,0.0,0.0,0.0,0.0,0.0,0.0,0.0,0.0,0.0,0.0,0.0,0.0,0.0,0.0,0.0,0.0,0.0,0.0,0.0,0.0,0.0,0.0,0.0,0.0,0.0,0.0,0.0,0.0,0.0,0.0,0.0,0.0,0.0,0.0,3.0522,3.4579,3.6243,3.6601,3.5475,3.504,3.353,3.0548,0.0,0.0,0.0,0.0,0.0,0.0,0.0,0.0,0.0,0.0,0.0,0.0,0.0,0.0,0.0,0.0,0.0,0.0,0.0,0.0,0.0,0.0,0.0,0.0,0.0,0.0,0.0,0.0,0.0,0.0,0.0,0.0,0.0,0.0,0.0,0.0,0.0,0.0,0.0,0.0,0.0,0.0,0.0,0.0,0.0,0.0,0.0,0.0,0.0,0.0,0.0,0.0,0.0,0.0,0.0,0.0,0.0,0.0,0.0,0.0,0.0,0.0,0.0,0.0,0.0,0.0,0.0,0.0,0.0,0.0,0.0,0.0,0.0,0.0,0.0,0.0,0.0,0.0,0.0,0.0,0.0,0.0,0.0,0.0,0.0,0.0,0.0,0.0,0.0,0.0,0.0,0.0,0.0,0.0,0.0,0.0,0.0,0.0,0.0,0.0,0.0,0.0,0.0,3.1007,3.2498,3.546,3.6432,3.6541,3.5849,3.5166,3.3534,3.0713,2.9659,0.0,0.0,0.0,0.0,0.0,0.0,0.0,0.0,0.0,0.0,0.0,0.0,0.0,0.0,0.0,0.0,0.0,0.0,0.0,0.0,0.0,0.0,0.0,0.0,0.0,0.0,0.0,0.0,0.0,0.0,0.0,0.0,0.0,0.0,0.0,0.0,0.0,0.0,0.0,0.0,0.0,0.0,0.0,0.0,0.0,0.0,0.0,0.0,0.0,0.0,0.0,0.0,0.0,0.0,0.0,0.0,0.0,0.0,0.0,0.0,0.0,0.0,0.0,0.0,0.0,0.0,0.0,0.0,0.0,0.0,0.0,0.0,0.0,0.0,0.0,0.0,0.0,0.0,0.0,0.0,0.0,0.0,0.0,0.0,0.0,0.0,0.0,0.0,0.0,0.0,0.0,0.0,0.0,0.0,0.0,0.0,0.0,0.0,0.0,0.0,0.0,0.0,3.3621,3.4925,3.6059,3.6496,3.6475,3.5966,3.526,3.3662,3.0941,2.9542,0.0,0.0,0.0,0.0,0.0,0.0,0.0,0.0,0.0,0.0,0.0,0.0,0.0,0.0,0.0,0.0,0.0,0.0,0.0,0.0,0.0,0.0,0.0,0.0,0.0,0.0,0.0,0.0,0.0,0.0,0.0,0.0,0.0,0.0,0.0,0.0,0.0,0.0,0.0,0.0,0.0,0.0,0.0,0.0,0.0,0.0,0.0,0.0,0.0,0.0,0.0,0.0,0.0,0.0,0.0,0.0,0.0,0.0,0.0,0.0,0.0,0.0,0.0,0.0,0.0,0.0,0.0,0.0,0.0,0.0,0.0,0.0,0.0,0.0,0.0,0.0,0.0,0.0,0.0,0.0,0.0,0.0,0.0,0.0,0.0,0.0,0.0,0.0,0.0,0.0,0.0,0.0,0.0,0.0,0.0,0.0,0.0,0.0,0.0,0.0,0.0,0.0,3.479,3.6953,3.6493,3.6787,3.6523,3.5443,3.4911,3.3565,3.1142,2.9308,0.0,0.0,0.0,0.0,0.0,0.0,0.0,0.0,0.0,0.0,0.0,0.0,0.0,0.0,0.0,0.0,0.0,0.0,0.0,0.0,0.0,0.0,0.0,0.0,0.0,0.0,0.0,0.0,0.0,0.0,0.0,0.0,0.0,0.0,0.0,0.0,0.0,0.0,0.0,0.0,0.0,0.0,0.0,0.0,0.0,0.0,0.0,0.0,0.0,0.0,0.0,0.0,0.0,0.0,0.0,0.0,0.0,0.0,0.0,0.0,0.0,0.0,0.0,0.0,0.0,0.0,0.0,0.0,0.0,0.0,0.0,0.0,0.0,0.0,0.0,0.0,0.0,0.0,0.0,0.0,0.0,0.0,0.0,0.0,0.0,0.0,0.0,0.0,0.0,0.0,0.0,0.0,0.0,0.0,0.0,0.0,0.0,0.0,0.0,0.0,0.0,0.0,3.4566,3.629,0.0,3.7414,3.7358,3.6894,3.6353,3.4996,3.2526,0.0,0.0,0.0,0.0,0.0,0.0,0.0,0.0,0.0,0.0,0.0,0.0,0.0,0.0,0.0,0.0,0.0,0.0,0.0,0.0,0.0,0.0,0.0,0.0,0.0,0.0,0.0,0.0,0.0,0.0,0.0,0.0,0.0,0.0,0.0,0.0,0.0,0.0,0.0,0.0,0.0,0.0,0.0,0.0,0.0,0.0,0.0,0.0,0.0,0.0,0.0,0.0,0.0,0.0,0.0,0.0,0.0,0.0,0.0,0.0,0.0,0.0,0.0,0.0,0.0,0.0,0.0,0.0,0.0,0.0,0.0,0.0,0.0,0.0,0.0,0.0,0.0,0.0,0.0,0.0,0.0,0.0,0.0,0.0,0.0,0.0,0.0,0.0,0.0,0.0,0.0,0.0,0.0,0.0,0.0,0.0,0.0,0.0,0.0,0.0,0.0,0.0,3.3289,3.5009,3.6561,0.0,3.8178,3.8034,3.7878,3.7325,3.5806,3.3066,0.0,0.0,0.0,0.0,0.0,0.0,0.0,0.0,0.0,0.0,0.0,0.0,0.0,0.0,0.0,0.0,0.0,0.0,0.0,0.0,0.0,0.0,0.0,0.0,0.0,0.0,0.0,0.0,0.0,0.0,0.0,0.0,0.0,0.0,0.0,0.0,0.0,0.0,0.0,0.0,0.0,0.0,0.0,0.0,0.0,0.0,0.0,0.0,0.0,0.0,0.0,0.0,0.0,0.0,0.0,0.0,0.0,0.0,0.0,0.0,0.0,0.0,0.0,0.0,0.0,0.0,0.0,0.0,0.0,0.0,0.0,0.0,0.0,0.0,0.0,0.0,0.0,0.0,0.0,0.0,0.0,0.0,0.0,0.0,0.0,0.0,0.0,0.0,0.0,0.0,0.0,0.0,0.0,0.0,0.0,0.0,0.0,0.0,0.0,0.0,0.0,0.0,3.4339,3.6577,3.833,3.9044,3.8945,3.8605,3.7986,3.7491,3.5791,0.0,0.0,0.0,0.0,0.0,0.0,0.0,0.0,0.0,0.0,0.0,0.0,0.0,0.0,0.0,0.0,0.0,0.0,0.0,0.0,0.0,0.0,0.0,0.0,0.0,0.0,0.0,0.0,0.0,0.0,0.0,0.0,0.0,0.0,0.0,0.0,0.0,0.0,0.0,0.0,0.0,0.0,0.0,0.0,0.0,0.0,0.0,0.0,0.0,0.0,0.0,0.0,0.0,0.0,0.0,0.0,0.0,0.0,0.0,0.0,0.0,0.0,0.0,0.0,0.0,0.0,0.0,0.0,0.0,0.0,0.0,0.0,0.0,0.0,0.0,0.0,0.0,0.0,0.0,0.0,0.0,0.0,0.0,0.0,0.0,0.0,0.0,0.0,0.0,0.0,0.0,0.0,0.0,0.0,0.0,0.0,0.0,0.0,0.0,0.0,0.0,0.0,0.0,3.5618,3.7963,3.9768,4.0793,4.1016,4.0753,3.995,3.9721,3.7996,3.4074,0.0,0.0,0.0,0.0,0.0,0.0,0.0,0.0,0.0,0.0,0.0,0.0,0.0,0.0,0.0,0.0,0.0,0.0,0.0,0.0,0.0,0.0,0.0,0.0,0.0,0.0,0.0,0.0,0.0,0.0,0.0,0.0,0.0,0.0,0.0,0.0,0.0,0.0,0.0,0.0,0.0,0.0,0.0,0.0,0.0,0.0,0.0,0.0,0.0,0.0,0.0,0.0,0.0,0.0,0.0,0.0,0.0,0.0,0.0,0.0,0.0,0.0,0.0,0.0,0.0,0.0,0.0,0.0,0.0,0.0,0.0,0.0,0.0,0.0,0.0,0.0,0.0,0.0,0.0,0.0,0.0,0.0,0.0,0.0,0.0,0.0,0.0,0.0,0.0,0.0,0.0,0.0,0.0,0.0,0.0,0.0,0.0,0.0,0.0,0.0,0.0,0.0,3.6313,3.8599,4.0588,4.2047,4.2341,4.2068,4.1291,4.123,3.9345,3.4963,0.0,0.0,0.0,0.0,0.0,0.0,0.0,0.0,0.0,0.0,0.0,0.0,0.0,0.0,0.0,0.0,0.0,0.0,0.0,0.0,0.0,0.0,0.0,0.0,0.0,0.0,0.0,0.0,0.0,0.0,0.0,0.0,0.0,0.0,0.0,0.0,0.0,0.0,0.0,0.0,0.0,0.0,0.0,0.0,0.0,0.0,0.0,0.0,0.0,0.0,0.0,0.0,0.0,0.0,0.0,0.0,0.0,0.0,0.0,0.0,0.0,0.0,0.0,0.0,0.0,0.0,0.0,0.0,0.0,0.0,0.0,0.0,0.0,0.0,0.0,0.0,0.0,0.0,0.0,0.0,0.0,0.0,0.0,0.0,0.0,0.0,0.0,0.0,0.0,0.0,0.0,0.0,0.0,0.0,0.0,0.0,0.0,0.0,0.0,0.0,0.0,0.0,3.67,3.9028,4.1148,4.3128,4.3311,4.3074,4.2365,4.2273,4.0257,3.5645,0.0,0.0,0.0,0.0,0.0,0.0,0.0,0.0,0.0,0.0,0.0,0.0,0.0,0.0,0.0,0.0,0.0,0.0,0.0,0.0,0.0,0.0,0.0,0.0,0.0,0.0,0.0,0.0,0.0,0.0,0.0,0.0,0.0,0.0,0.0,0.0,0.0,0.0,0.0,0.0,0.0,0.0,0.0,0.0,0.0,0.0,0.0,0.0,0.0,0.0,0.0,0.0,0.0,0.0,0.0,0.0,0.0,0.0,0.0,0.0,4.3284,0.0,0.0,0.0,0.0,0.0,0.0,0.0,0.0,0.0,0.0,0.0,0.0,0.0,0.0,0.0,0.0,0.0,0.0,0.0,0.0,0.0,0.0,0.0,0.0,0.0,0.0,0.0,0.0,0.0,0.0,0.0,0.0,0.0,0.0,0.0,0.0,0.0,0.0,0.0,0.0,0.0,3.834,4.1591,4.4218,4.5607,4.5872,4.5655,4.4817,4.4241,4.2265,3.8384,3.6927,0.0,0.0,0.0,0.0,0.0,0.0,0.0,0.0,0.0,0.0,0.0,0.0,0.0,0.0,0.0,0.0,0.0,0.0,0.0,0.0,0.0,0.0,0.0,0.0,0.0,0.0,0.0,0.0,0.0,0.0,0.0,0.0,0.0,0.0,0.0,0.0,0.0,0.0,0.0,0.0,0.0,0.0,0.0,0.0,0.0,0.0,0.0,0.0,0.0,0.0,0.0,0.0,0.0,0.0,0.0,0.0,0.0,0.0,0.0,0.0,4.5075,0.0,0.0,0.0,0.0,0.0,0.0,0.0,0.0,0.0,0.0,0.0,0.0,0.0,0.0,0.0,0.0,0.0,0.0,0.0,0.0,0.0,0.0,0.0,0.0,0.0,0.0,0.0,0.0,0.0,0.0,0.0,0.0,0.0,0.0,0.0,0.0,0.0,0.0,0.0,0.0,3.8831,4.2077,4.4527,4.5493,4.569,4.5562,4.5141,4.4429,4.2944,4.0423,3.8553,0.0,0.0,0.0,0.0,0.0,0.0,0.0,0.0,0.0,0.0,0.0,0.0,0.0,0.0,0.0,0.0,0.0,0.0,0.0,0.0,0.0,0.0,0.0,0.0,0.0,0.0,0.0,0.0,0.0,0.0,0.0,0.0,0.0,0.0,0.0,0.0,0.0,0.0,0.0,0.0,0.0,0.0,0.0,0.0,0.0,0.0,0.0,0.0,0.0,0.0,0.0,0.0,0.0,5.3483,5.4451,5.5242,5.5867,5.6139,5.5926,5.3138,5.0686,4.856,4.8014,0.0,0.0,0.0,0.0,0.0,0.0,0.0,0.0,0.0,0.0,0.0,0.0,0.0,0.0,0.0,0.0,0.0,0.0,0.0,0.0,0.0,0.0,0.0,0.0,4.4394,4.3865,0.0,0.0,0.0,0.0,0.0,0.0,0.0,0.0,0.0,0.0,0.0,0.0,3.9279,4.2122,4.4233,4.4919,4.4984,4.5016,4.5081,4.4396,4.3416,4.2198,4.0234,3.7883,0.0,0.0,0.0,0.0,0.0,0.0,0.0,0.0,0.0,0.0,0.0,0.0,0.0,0.0,0.0,0.0,0.0,0.0,0.0,0.0,0.0,0.0,0.0,0.0,0.0,0.0,0.0,0.0,0.0,0.0,0.0,0.0,4.8549,4.8065,0.0,0.0,0.0,0.0,0.0,0.0,0.0,0.0,0.0,0.0,0.0,0.0,0.0,5.3236,5.3508,5.6926,5.8681,5.8816,6.1615,6.3329,6.4112,6.4219,6.3894,6.3289,6.4152,0.0,5.3389,5.3286,0.0,0.0,0.0,0.0,0.0,0.0,0.0,0.0,0.0,0.0,0.0,0.0,0.0,0.0,0.0,0.0,0.0,0.0,0.0,0.0,0.0,0.0,4.8665,4.8,4.801,4.7713,0.0,4.2558,3.9354,3.8357,3.7162,0.0,0.0,0.0,0.0,0.0,0.0,0.0,4.0939,4.3671,4.5677,4.6417,4.6484,4.6514,4.6514,4.5875,4.5067,4.4254,4.2671,4.0836,3.8797,3.6738,0.0,0.0,0.0,0.0,0.0,0.0,0.0,0.0,0.0,0.0,0.0,0.0,0.0,0.0,0.0,0.0,0.0,0.0,0.0,0.0,0.0,0.0,0.0,0.0,0.0,0.0,0.0,0.0,0.0,5.0287,5.1709,5.0135,5.1038,5.0808,0.0,0.0,0.0,0.0,0.0,0.0,0.0,0.0,0.0,5.6196,5.7424,5.8685,6.0103,6.223,6.3489,6.3918,6.5252,6.6292,6.7079,6.7079,6.6932,6.661,6.7293,6.5474,6.1847,5.921,5.576,5.2001,0.0,0.0,0.0,0.0,4.9003,4.9088,5.0976,5.0905,0.0,4.9222,0.0,0.0,0.0,0.0,0.0,0.0,0.0,0.0,0.0,0.0,5.0835,5.1289,5.1405,5.1166,5.0336,4.8092,4.5129,0.0,3.9929,3.8396,3.5622,0.0,0.0,0.0,0.0,4.0011,4.1184,4.3501,4.5196,4.5529,4.5563,4.5737,4.6143,4.55,4.5128,4.5196,4.3775,4.2341,4.1076,3.9328,3.7523,0.0,0.0,0.0,0.0,0.0,0.0,0.0,0.0,0.0,0.0,0.0,0.0,0.0,0.0,0.0,0.0,0.0,0.0,0.0,0.0,0.0,0.0,0.0,0.0,0.0,0.0,0.0,0.0,5.2326,5.4259,5.2056,5.4042,5.4209,0.0,0.0,0.0,0.0,0.0,0.0,5.6459,5.7287,5.8853,6.1407,6.2578,6.4101,6.5989,6.6602,6.7292,6.8017,6.8017,6.8449,6.9241,6.9241,6.9241,6.9241,6.9241,6.9133,6.8562,6.3938,5.9838,5.6286,5.4317,5.2731,5.1645,5.2988,5.3405,5.3652,5.6253,5.6289,5.5035,5.3963,5.221,5.0029,4.7419,0.0,0.0,0.0,0.0,4.8527,5.0007,5.1371,5.2637,5.3504,5.3836,5.3739,5.2901,5.1973,4.9786,0.0,4.3078,4.1458,3.8288,0.0,0.0,0.0,0.0,4.0959,4.1677,4.3403,4.4615,4.4615,4.4615,4.4818,4.5365,4.4919,4.4891,4.5669,4.4451,4.3538,4.3166,4.1745,4.0231,3.8768,0.0,0.0,0.0,0.0,0.0,0.0,0.0,0.0,0.0,0.0,0.0,0.0,0.0,0.0,0.0,0.0,0.0,0.0,0.0,0.0,0.0,0.0,0.0,0.0,0.0,0.0,0.0,0.0,0.0,5.3967,5.6553,0.0,0.0,0.0,0.0,5.7245,5.8151,5.9843,6.2685,6.3593,6.5386,6.8303,6.8449,6.8926,6.9806,6.9843,7.0282,7.106,7.106,7.1492,7.2299,7.2299,7.2299,7.2299,7.2299,7.1859,7.0783,6.6283,6.3857,6.2606,5.9531,5.7878,5.7244,5.7856,5.7762,5.7469,5.864,5.8665,5.8232,5.8701,5.6437,5.3367,5.2377,5.0222,0.0,0.0,5.152,5.2481,5.3785,5.4737,5.5192,5.434,5.4756,5.5026,5.4109,5.2927,5.1335,0.0,4.7065,4.542,4.3839,0.0,4.1723,4.1688,4.1972,4.2455,4.3172,4.4045,4.4615,4.4615,4.4615,4.4615,4.4649,4.4615,4.4891,4.5669,4.4959,4.4823,4.55,4.4051,4.2557,4.1068,3.8836,0.0,0.0,0.0,0.0,0.0,0.0,0.0,0.0,0.0,0.0,0.0,0.0,0.0,0.0,0.0,0.0,0.0,0.0,0.0,0.0,0.0,0.0,0.0,0.0,0.0,0.0,0.0,0.0,5.7985,6.1464,0.0,6.0251,5.9989,6.0537,6.1761,6.3537,6.5232,6.682,6.7661,6.8843,7.0375,7.044,7.0844,7.1651,7.1651,7.1798,7.2092,7.2092,7.2239,7.2496,7.2496,7.2496,7.2496,7.2496,7.2349,7.188,6.9245,6.7069,6.5176,6.302,6.1673,6.1043,6.1806,6.1938,6.1907,6.2789,6.2277,6.1005,5.965,5.7977,5.6347,5.5519,5.4916,5.4592,5.4779,5.5812,5.6895,5.7363,5.7703,5.7827,5.7487,5.7231,5.6827,5.6012,5.5391,5.4454,5.2589,4.9829,4.7163,4.5187,4.4753,4.4187,4.2742,4.3367,4.3998,4.3923,4.4582,4.4927,4.4643,4.4615,4.4615,4.4615,4.4615,4.4716,4.4959,4.475,4.4716,4.4959,4.4451,4.3673,4.2632,4.0933,3.8328,0.0,0.0,0.0,0.0,0.0,0.0,0.0,0.0,0.0,0.0,0.0,0.0,0.0,0.0,0.0,0.0,0.0,0.0,0.0,0.0,0.0,0.0,0.0,0.0,0.0,5.8895,6.2595,6.1895,6.5711,6.7429,6.4995,6.525,6.608,6.722,6.8568,6.9669,7.0477,7.077,7.1138,7.1688,7.1725,7.1982,7.2496,7.2496,7.2496,7.2496,7.2496,7.2496,7.2496,7.2496,7.2496,7.2496,7.2496,7.2496,7.2386,7.077,6.9155,6.754,6.5632,6.4567,6.4127,6.4714,6.4897,6.4971,6.5521,6.4824,6.3319,6.1092,6.0052,5.9391,5.8033,5.818,5.8657,5.785,5.8561,5.9588,5.9588,5.9404,5.9111,5.8854,5.84,5.7776,5.6969,5.6717,5.6342,5.5257,5.2361,4.952,4.7742,4.7358,4.672,4.4936,4.5517,4.5965,4.5335,4.5675,4.5857,4.552,4.526,4.5123,4.5123,4.4695,4.4736,4.5404,4.4463,4.4204,4.5035,4.4028,4.3281,4.2925,4.1188,3.8924,3.6114,0.0,0.0,0.0,0.0,0.0,0.0,0.0,0.0,0.0,0.0,0.0,0.0,0.0,0.0,0.0,0.0,0.0,0.0,0.0,0.0,0.0,0.0,0.0,5.7411,6.1604,6.4849,6.5433,6.9009,7.1138,7.0367,7.0257,7.1211,7.356,7.301,7.2899,7.367,7.2973,7.2532,7.2496,7.2496,7.2496,7.2496,7.2496,7.2496,7.2496,7.2496,7.2496,7.2496,7.2496,7.2496,7.2496,7.2496,7.2496,7.2386,7.077,7.011,6.9853,6.7467,6.6549,6.6549,6.6549,6.6549,6.6512,6.6512,6.5999,6.5081,6.3367,6.2842,6.2377,5.9992,5.9832,6.0309,5.9478,5.9869,6.0493,6.0493,5.9905,5.9074,5.8253,5.807,5.7813,5.7005,5.6859,5.6822,5.6822,5.4663,5.2609,5.1784,5.0507,4.929,4.8501,4.8447,0.0,4.7448,4.7342,4.7307,4.7282,4.659,4.6133,4.6098,4.4962,4.5094,4.7031,4.4165,4.346,4.5845,4.298,4.152,4.1974,3.9779,3.816,3.7161,0.0,0.0,0.0,0.0,0.0,0.0,0.0,0.0,0.0,0.0,0.0,0.0,0.0,0.0,0.0,0.0,0.0,0.0,0.0,0.0,0.0,5.8139,6.0213,5.9627,6.4239,6.8174,6.9495,7.2165,7.4074,7.4404,7.3927,7.3854,7.4515,7.4368,7.4074,7.3707,7.3487,7.3083,7.2532,7.2496,7.2496,7.2496,7.2496,7.2496,7.2496,7.2496,7.2496,7.2496,7.2496,7.2496,7.2496,7.2496,7.2496,7.2386,7.077,7.011,6.9926,6.8054,6.7357,6.7357,6.7357,6.7357,6.7283,6.6696,6.6366,6.5888,6.4273,6.3723,6.3392,6.152,6.152,6.1998,6.119,6.152,6.2144,6.2144,6.1557,6.075,5.9942,5.9281,5.8657,5.785,5.7666,5.7483,5.6932,5.575,5.4364,5.2886,5.169,5.0669,4.9872,4.9217,0.0,4.8734,4.8235,4.7736,4.7332,4.7106,4.6755,4.6168,4.5775,4.554,4.5523,4.4684,4.4495,4.5183,4.4345,4.3924,4.4069,4.1321,3.9505,0.0,0.0,0.0,0.0,0.0,0.0,0.0,0.0,0.0,0.0,0.0,0.0,0.0,0.0,0.0,0.0,0.0,0.0,0.0,0.0,0.0,0.0,6.1814,6.4347,6.4897,6.8128,7.1138,7.3083,7.4845,7.6093,7.657,7.6203,7.5879,7.5879,7.5616,7.5065,7.4258,7.3891,7.334,7.2532,7.2496,7.2496,7.2496,7.2496,7.2496,7.2496,7.2496,7.2496,7.2496,7.2496,7.2496,7.2496,7.2496,7.2496,7.2386,7.077,7.011,0.0,0.0,0.0,0.0,0.0,6.7687,6.7614,6.7136,6.699,6.6769,6.5521,6.4861,6.4273,6.2622,6.2438,6.2658,6.1814,6.2181,6.278,6.278,6.2218,6.141,6.0603,5.9771,5.8964,5.818,5.7997,5.785,5.7409,5.6638,0.0,5.4312,5.2733,5.1231,5.0086,4.9689,4.9459,4.9244,4.9068,4.8847,4.852,4.8473,4.8295,4.7832,4.6968,0.0,0.0,0.0,4.4167,4.3535,4.3706,0.0,0.0,0.0,0.0,0.0,0.0,0.0,0.0,3.8786,3.843,0.0,0.0,0.0,0.0,0.0,0.0,0.0,0.0,0.0,0.0,0.0,0.0,0.0,0.0,0.0,0.0,6.5448,6.8935,7.1394,7.2422,7.3707,7.5836,7.6827,7.7273,7.7273,7.7273,7.7273,7.7273,7.6644,7.5836,7.4955,0.0,0.0,0.0,0.0,7.2496,7.2496,7.2496,7.2496,7.2496,7.2496,7.2496,7.2496,7.2496,7.2496,7.2496,7.2496,7.2496,7.2386,7.077,7.0,6.9669,6.8238,6.7687,6.7687,6.7687,6.7687,6.7687,6.7687,0.0,0.0,6.6769,6.5962,6.5007,6.3319,6.278,6.2658,6.1814,6.2181,6.278,6.278,6.2291,6.152,6.0603,5.9869,5.9098,5.818,5.7997,5.7997,5.7997,5.7336,5.6528,5.5721,5.3653,5.1496,4.9907,5.0097,5.0138,4.9471,4.9864,5.0221,5.0242,0.0,0.0,5.0112,4.8421,4.7743,4.8706,4.5905,4.3575,4.2233,4.2546,4.2772,4.2772,4.2772,4.3652,4.5454,4.5526,4.5997,4.6628,4.0847,3.9671,0.0,0.0,0.0,0.0,0.0,0.0,0.0,0.0,0.0,0.0,0.0,0.0,0.0,0.0,0.0,6.4163,6.7981,7.1468,7.3854,7.4918,7.5579,7.6056,7.6827,7.7273,7.7273,7.7273,7.7273,7.7273,7.7163,7.643,7.4992,7.4771,7.4001,7.2569,7.2496,7.2496,7.2496,7.2496,7.2496,7.2496,0.0,0.0,7.2496,7.2496,7.2496,7.2496,7.2496,7.2496,7.2386,7.077,6.9339,6.8128,6.7797,6.7687,6.7687,6.7687,6.7687,6.7687,6.7687,6.7687,6.7577,6.6769,6.5962,6.5007,6.3319,6.278,0.0,6.1814,6.2181,6.278,6.278,6.2695,6.2218,6.075,6.0272,5.9758,5.8327,5.7997,5.7997,5.7997,5.7336,5.6528,5.5721,5.4569,5.3178,5.1569,5.079,5.056,5.107,5.0583,5.0461,5.1165,5.1135,5.0836,5.0184,4.9734,4.9025,4.8004,4.672,4.5879,4.5554,4.5637,4.5678,4.5678,4.5678,4.59,4.6287,4.6939,4.7663,4.8366,4.5838,4.5343,0.0,0.0,0.0,0.0,0.0,0.0,0.0,0.0,0.0,0.0,0.0,5.8253,5.9061,0.0,6.4971,6.7834,7.033,7.2753,7.5175,7.5836,7.624,7.6644,7.7053,7.7273,7.7273,7.7273,7.7273,7.7273,7.7273,7.6576,7.4992,7.4918,7.4184,7.2569,7.2496,7.2496,7.2496,7.2496,7.2496,7.2496,7.2496,7.2496,7.2496,7.2496,7.2496,7.2496,7.2496,7.2496,7.2386,7.077,6.9155,6.7687,6.7687,6.7687,6.7687,6.7687,6.7687,6.7687,6.7687,6.7687,6.7614,6.721,6.6549,6.5742,6.4897,6.409,6.3356,6.2952,6.2842,6.278,6.278,6.278,6.2511,6.13,6.0676,6.0089,5.8877,5.829,5.7997,5.7997,5.7666,5.7152,5.6345,5.5823,5.4679,5.226,5.1135,5.0728,5.1067,5.104,5.1121,5.1464,5.1782,5.1751,5.1344,5.0923,5.0198,4.8967,4.8532,4.8134,4.7735,4.7699,4.7699,4.7699,4.7699,4.7916,4.8279,4.8713,4.9293,5.009,4.9293,4.8894,0.0,0.0,0.0,0.0,0.0,0.0,0.0,5.6859,5.7079,5.9024,6.0309,6.1679,6.3624,6.5888,6.8385,7.1284,7.2569,7.3883,7.5978,7.6383,7.6774,7.7489,7.7426,7.7273,7.7273,7.7273,7.7273,7.7273,7.7163,7.643,7.4992,7.4771,7.4001,7.2569,7.2496,7.2496,7.2496,7.2496,7.2496,7.2496,7.2496,7.2496,7.2496,7.2496,7.2496,7.2496,7.2349,7.2202,7.1908,7.0477,6.9009,6.7687,6.7687,6.7687,6.7687,6.7687,6.7687,6.7687,6.7687,6.7687,6.7687,6.7687,6.7136,6.6512,6.6512,6.5375,6.409,6.409,6.3466,6.278,6.278,6.278,6.2622,6.1777,6.108,6.0382,5.9404,5.8694,5.8143,5.7813,5.7776,5.7556,5.6932,5.6675,5.5574,5.2674,5.1683,5.1238,5.1119,5.1517,5.1871,5.2025,5.2358,5.2581,5.2503,5.1756,5.1017,5.0365,5.0184,4.98,4.9184,4.9148,4.9148,4.9148,4.9293,4.9691,5.0329,5.051,5.0909,5.1538,5.1538,5.1176,5.5038,5.4142,5.462,5.6051,5.6932,5.8474,0.0,6.3613,6.4163,6.4457,6.6256,6.7907,6.8164,6.9633,7.1358,7.312,7.4698,7.5971,7.6736,7.7423,7.8062,7.8665,7.7875,7.7273,7.7273,7.7273,7.7273,7.7273,7.6644,7.5836,7.4955,7.4221,7.3413,7.2532,7.2496,7.2496,7.2496,7.2496,7.2496,7.2496,7.2496,7.2496,7.2496,7.2496,7.2496,7.2459,7.1762,7.1027,7.0293,6.9412,6.8495,6.7687,6.7687,6.7687,6.7687,6.7687,6.7687,6.7687,6.7687,6.7687,6.7687,6.7687,6.7136,6.6512,6.6512,6.5375,6.409,6.409,6.3466,6.278,6.278,6.278,6.2622,6.1777,6.152,6.1043,5.9515,5.9111,5.8634,5.7226,5.6932,5.6932,5.6822,5.6198,5.5133,5.3335,5.2983,5.291,5.291,5.2254,5.2337,5.3741,5.3126,5.2581,5.2503,5.1756,5.1249,5.1176,5.051,5.0075,4.9945,4.9945,4.9945,4.9945,5.0669,5.1067,5.1199,5.1864,5.2263,5.2371,5.2371,5.2299,5.8364,5.7886,5.84,6.0529,6.1998,6.3759,6.688,6.7504,6.7797,6.9192,7.0293,7.1138,7.1615,7.2642,7.378,7.4918,7.5652,7.6449,7.745,7.7905,7.8123,7.8179,7.7823,7.7717,7.819,7.8228,7.8228,7.8228,7.7483,7.6702,7.5846,7.5027,7.4089,7.299,7.3235,7.3235,7.299,7.299,7.3114,7.3352,7.3114,7.3114,7.3352,7.2843,7.236,7.1888,7.1553,7.0946,7.0189,6.9854,6.9221,6.8514,6.8514,6.8346,6.8058,6.7784,6.7687,6.7687,6.7687,6.7687,6.7687,6.7687,6.7467,6.7173,6.7173,6.6072,6.4787,6.4787,6.3833,6.278,6.278,6.278,6.2732,6.2401,6.1924,6.141,6.075,5.9869,5.9001,5.8304,5.7446,5.6822,5.6822,5.6124,5.5207,5.4069,5.4289,5.4583,5.4583,5.4246,5.4195,5.472,5.4318,5.378,5.3241,5.2878,5.248,5.2009,5.1683,5.1502,5.1502,5.1502,5.1502,5.1502,5.1828,5.2009,5.2009,5.2335,5.2733,5.3204,5.3204,5.3458,6.0089,6.075,6.1998,6.4457,6.6623,6.8678,7.0624,7.0807,7.1064,7.2789,7.2973,7.3083,7.3891,7.4515,7.5175,7.5983,7.6276,7.684,7.8153,7.8123,7.7938,7.7809,7.7576,7.7674,7.824,7.8233,7.8215,7.8215,7.7477,7.6764,7.6187,7.5338,7.4458,7.3491,7.3821,7.3845,7.3491,7.3491,7.3652,7.3972,7.3404,7.3292,7.3634,7.2785,7.2049,7.1486,7.1261,7.0833,7.0292,7.0067,6.9616,6.9091,6.9091,6.8893,6.8562,6.8235,6.7941,6.7687,6.7687,6.7687,6.7687,6.7687,6.7687,6.7687,6.7687,6.6586,6.5301,6.5301,6.4064,6.278,6.278,6.278,6.278,6.278,6.2365,6.1814,6.1374,6.0529,5.9588,5.8707,5.7776,5.7079,5.6859,5.6124,5.5464,5.5133,5.5354,5.5522,5.528,5.5486,5.5485,5.5235,5.5119,5.4784,5.4074,5.4037,5.3784,5.3204,5.3168,5.3059,5.2842,5.2842,5.2842,5.2842,5.2842,5.2951,5.3168,5.3168,5.3458,5.4037,5.4037,5.4436,5.9221,6.1557,6.4567,6.7016,6.9963,7.2532,7.3377,7.4184,7.4735,7.4808,7.4221,7.3891,7.4735,7.4882,7.5175,7.5983,7.6754,7.7651,7.8716,7.8203,7.7771,7.797,7.7222,7.6726,7.6764,7.6598,7.6477,7.6477,7.5727,7.5276,7.5239,7.4498,7.4009,7.3986,7.4009,7.4009,7.3986,7.3986,7.4009,7.3972,7.3137,7.2725,7.2687,7.1899,7.1524,7.1449,7.0683,7.0308,7.0255,6.9466,6.9128,6.9091,6.9091,6.9091,6.9069,6.9047,6.849,6.7687,6.7687,6.7687,6.7687,6.7687,6.7687,6.7687,6.7687,6.6586,6.5301,6.5301,6.4064,6.278,6.278,6.278,6.278,6.278,6.278,6.2365,6.0786,6.1006,6.0603,5.7483,5.7446,5.7703,5.6932,5.6124,5.5868,5.6602,5.6088,5.5317,5.4546,5.5097,5.5485,5.5235,5.5212,5.5096,5.4894,5.487,5.487,5.4834,5.4834,5.4472,5.3711,5.3675,5.3675,5.3675,5.3675,5.4037,5.4834,5.4834,5.4834,5.487,5.487,5.5269,6.3943,6.6035,6.8128,7.1615,7.3707,7.5102,7.5909,7.6283,7.635,7.5799,7.4625,7.3597,7.3377,7.3303,7.356,7.4368,7.5616,7.6943,7.8207,7.8139,7.7629,7.6721,7.688,7.6503,7.516,0.0,0.0,7.7412,7.669,7.6196,7.6196,7.5455,7.4824,7.4497,7.4804,7.4824,7.446,7.446,7.4358,7.4106,7.3308,7.2586,7.2054,7.175,7.1313,7.0743,7.0477,7.0381,7.0343,7.0077,6.9963,6.9963,6.9963,6.9816,6.9564,6.9564,6.9155,6.8656,6.8656,6.8442,6.8185,6.8185,6.7967,6.7687,6.7687,6.6953,6.5999,6.5448,6.453,6.3539,6.2952,6.278,6.278,6.278,6.278,6.2511,6.1447,6.1006,6.0493,5.9391,5.8547,5.807,5.8364,5.7299,5.6124,5.5317,5.5427,5.5684,5.5978,5.6235,5.6534,5.6885,5.6828,5.649,5.5813,5.568,5.5414,5.4943,5.4907,5.4798,5.4508,5.4508,5.4508,5.4508,5.4508,5.4653,5.4907,5.4907,5.516,5.5631,5.5631,5.6029,6.7393,6.9779,7.1798,7.4992,7.6607,7.7488,7.7708,7.7494,7.7127,7.6644,7.4331,7.2239,7.1725,7.0954,7.0917,7.2569,7.4184,7.5927,7.7821,7.81,7.7536,7.6074,7.6162,7.5756,7.434,7.5157,0.0,7.7029,7.657,7.6265,7.6265,7.5768,7.5318,7.498,7.53,7.5318,7.498,7.4676,7.4104,7.3284,7.2788,7.2062,7.1221,7.1221,7.0916,7.0419,7.0419,7.0419,7.0419,7.0419,7.0419,7.0419,7.0419,7.023,7.0019,7.0019,6.9834,6.9526,6.9198,6.8893,6.8642,6.8642,6.8442,6.821,6.821,6.7617,6.684,6.6025,6.5053,6.4132,6.3259,6.2929,6.278,6.278,6.278,6.2585,6.1777,6.119,6.0676,6.0089,5.9391,5.8951,5.9148,5.834,5.7116,5.55,5.5684,5.6014,5.5941,5.5941,5.6277,5.7214,5.7277,5.7048,5.6576,5.6527,5.626,5.574,5.574,5.5595,5.5305,5.5305,5.5305,5.5305,5.5305,5.5414,5.574,5.574,5.5957,5.6428,5.6428,5.6717,6.9486,7.2642,7.5395,7.7053,7.8589,7.947,7.8699,7.7855,7.7127,7.7017,7.3193,6.9853,6.9779,6.7944,6.7467,7.066,7.2642,7.4756,7.7654,7.8044,7.7558,7.6106,7.5229,7.4654,7.4302,7.4278,0.0,7.5442,0.0,7.5518,7.5518,7.5518,7.5518,7.5518,7.5518,7.548,7.5442,7.4545,7.3284,7.168,7.1642,7.1183,7.0419,7.0419,7.0419,7.0419,7.0419,7.0419,7.0419,7.0419,7.0419,7.0419,7.0419,7.0419,7.0419,7.0419,7.0419,7.0281,6.9446,6.9155,6.9134,6.9134,6.9112,6.9091,6.9091,6.8527,6.7722,6.6913,6.5715,6.4562,6.3773,6.3218,6.283,6.2805,6.278,6.2585,6.1777,6.1594,6.1153,5.9625,5.9979,6.0236,5.9331,5.9258,5.8744,5.7116,5.6895,5.6345,5.4656,5.4509,5.4986,5.6221,5.651,5.6731,5.713,5.7277,5.7302,5.7188,5.7188,5.6862,5.6066,5.6066,5.6066,5.6066,5.6066,5.6428,5.7188,5.7188,5.7224,5.7261,5.7224,5.7224,7.3193,7.5175,7.6497,7.936,7.8993,7.7892,7.7708,7.6533,7.4999,7.3201,6.9486,6.6329,6.5742,6.5632,6.6476,6.9082,7.2386,7.5308,7.7222,7.748,7.718,7.6361,7.6103,7.5761,7.5201,7.5157,7.5271,0.0,7.5518,7.5518,7.5518,7.5518,7.5518,7.5518,7.5518,7.5195,7.4545,7.3055,7.21,7.168,7.103,7.061,7.0419,7.0419,7.0419,7.0419,7.0419,7.0419,7.0419,7.0419,7.0419,7.0419,7.0419,7.0419,7.0419,7.0419,7.0419,7.0386,7.0161,6.9872,6.9623,6.9623,6.9365,6.9091,6.9091,6.849,6.7776,6.7626,6.6378,6.5047,6.4532,6.3868,6.3252,6.288,6.278,6.2585,6.1777,6.1594,6.1484,6.108,6.163,6.1557,5.9551,6.0199,6.0236,5.8033,5.8217,5.7813,5.5574,5.5705,5.593,5.5679,5.6051,5.6333,5.6455,5.6382,5.6622,5.7152,5.7188,5.7116,5.6899,5.6899,5.6899,5.6899,5.6899,5.7007,5.7188,5.7188,5.7514,5.8094,5.7478,5.7514,7.613,7.7965,7.914,8.0645,7.969,7.8038,7.6607,7.4705,7.2569,6.9779,6.5962,6.3025,6.2548,6.2548,6.3906,6.776,7.1174,7.4258,7.6907,7.7805,7.7857,7.7055,7.718,7.6965,7.6097,7.6036,7.5883,7.5556,7.5518,7.5518,7.5518,7.5518,7.5518,7.5518,7.5119,7.4354,7.3093,7.2176,7.1489,7.1107,7.0648,7.0419,7.0419,7.0419,7.0419,7.0419,0.0,7.0419,7.0419,7.0419,7.0419,7.0419,7.0419,7.0419,7.0419,7.0419,7.0419,7.0419,7.0419,7.0247,7.0073,7.0073,6.989,6.9663,6.9663,6.9323,6.8868,6.8584,6.7354,6.6006,6.5218,6.4264,6.3377,6.2929,6.278,6.2695,6.2218,6.1851,6.1594,6.1594,6.1667,6.1447,6.0456,6.0713,6.0493,5.8767,5.8891,5.8474,5.6381,5.6708,5.7068,5.6912,5.7158,5.7437,5.7676,5.7361,5.73,5.7695,5.7406,5.7188,5.7188,5.755,5.7732,5.7732,5.8058,5.8239,5.8239,5.7913,5.813,5.8927,5.8094,5.8166,7.8295,8.0277,8.1746,8.1269,8.0314,7.8626,7.5469,7.2716,6.9889,6.6549,6.2695,5.9942,6.0052,5.9685,6.119,6.6769,6.9816,7.2834,7.6723,7.8359,7.8803,7.7966,7.8149,7.7941,7.6955,7.6685,7.6265,7.5556,7.5518,7.5518,7.5518,7.5403,7.5271,7.5174,7.4316,7.317,7.1735,7.1565,7.1145,7.0419,7.0419,7.0419,7.0419,7.0419,7.0419,7.0419,7.0419,7.0419,7.0419,7.0419,7.0419,7.0419,7.0419,7.0419,7.0419,7.0419,7.0419,7.0419,7.0419,7.0419,7.0419,7.0419,7.0419,7.0419,7.0419,7.0342,7.0113,6.954,6.8409,6.7125,6.6083,6.4769,6.3616,6.3137,6.2928,6.278,6.278,6.2254,6.1741,6.163,6.1117,6.086,6.1374,6.0933,6.0309,5.9478,5.9368,5.8854,5.7483,5.7564,5.7922,5.83,5.8531,5.8833,5.9294,5.8874,5.8609,5.859,5.7938,5.7514,5.7514,5.8202,5.8565,5.8565,5.9253,5.9615,5.9615,5.8782,5.8818,5.9579,5.8673,5.8746,7.914,7.9874,8.0498,8.1672,7.9837,7.7084,7.4478,7.0991,6.721,6.3246,5.9758,5.7629,5.829,5.9391,6.1851,6.688,7.0293,7.3487,7.6833,7.7879,7.8421,7.8666,7.7923,7.7524,7.7757,7.6532,7.5653,0.0,7.5518,7.5518,7.5518,7.4813,7.4125,7.3437,7.2597,7.1985,7.168,7.0992,7.0572,7.0419,7.0419,7.0419,7.0419,7.0419,7.0419,7.0419,7.0419,0.0,7.0419,7.0419,7.0419,7.0419,7.0419,7.0419,7.0419,7.0419,7.0419,7.0419,7.0419,7.0419,7.0419,7.0419,7.0419,7.0419,7.0419,6.996,6.9502,7.0037,6.9033,6.7812,6.7919,6.6517,6.494,6.4479,6.3566,6.278,6.278,6.2695,6.2401,6.1741,6.2034,6.2034,6.0823,6.1043,6.1117,6.0309,6.0199,6.0089,5.9832,5.8613,5.7334,5.6141,5.7071,5.785,5.7947,5.8346,5.8878,5.9506,5.9331,5.918,5.918,5.9325,5.9398,5.9398,5.9542,5.9615,5.9615,5.8782,5.8818,5.9579,5.8094,5.8202,8.0094,8.0718,8.1232,8.2003,7.9433,7.5726,7.2055,6.8054,6.3759,5.8841,5.6638,5.5684,5.6051,5.7446,5.9832,6.387,6.6549,6.9706,7.4184,7.5521,7.6731,7.8678,7.8544,7.8237,7.8042,7.6876,7.5959,7.5556,7.5518,7.5518,7.5518,7.466,7.3628,7.2367,7.1909,7.1489,7.103,7.061,7.0419,7.0419,7.0419,7.0419,7.0419,7.0419,7.0419,7.0419,7.0419,0.0,7.0419,7.0419,7.0419,7.0419,7.0419,7.0419,7.0419,7.0419,7.0419,7.0419,7.0419,7.0419,7.0419,7.0419,7.0419,7.0419,7.0419,7.0151,6.9922,7.0304,6.954,6.8559,6.8504,6.7276,6.5795,6.4912,6.3712,6.278,6.278,6.278,6.2695,6.2291,6.2218,6.1924,6.1153,6.1006,6.086,6.0456,6.0052,5.9795,5.9795,5.8684,5.7881,5.7883,5.8458,5.8859,5.8859,5.8749,5.8844,5.9132,5.8718,5.8424,5.8347,5.8746,5.8999,5.8999,5.9398,5.9615,5.9615,5.9216,5.9434,6.0231,5.9434,5.9724,8.0901,8.1709,8.2186,8.2186,7.914,7.4845,7.0,6.5595,6.1006,5.5537,5.4252,5.4216,5.4363,5.5574,5.7666,6.1043,6.2842,6.5778,7.1468,7.3292,7.5168,7.8052,7.8773,7.8672,7.7793,7.6953,7.6188,7.5556,7.531,7.5157,7.4966,7.4125,7.2979,7.145,7.1412,7.1107,7.0419,7.0419,7.0419,7.0419,7.0419,7.0419,7.0419,7.0419,7.0419,7.0419,7.0419,0.0,0.0,7.0419,7.0419,7.0419,7.0419,7.0419,7.0419,7.0419,7.0419,7.0419,7.0419,7.0419,7.0419,7.0419,7.0419,7.0419,7.0419,7.0419,7.0419,7.0419,6.996,6.936,6.8991,6.7959,6.6633,6.5084,6.3859,6.3025,6.2842,6.278,6.278,6.278,6.2291,6.1851,6.1851,6.119,6.0676,6.0676,5.9979,5.9441,5.9441,5.8914,5.8941,6.0127,5.9968,5.9821,5.9821,5.9383,5.9042,5.8942,5.8285,5.7883,5.7746,5.8492,5.8927,5.8927,5.9724,6.0122,6.0122,5.9941,6.0267,6.1037,6.0883,6.1218,8.1269,8.215,8.2186,8.2186,7.914,7.4845,7.0,6.5154,6.0309,5.5427,5.3812,5.3555,5.4289,5.5097,5.7005,6.097,6.2328,6.4934,7.0624,7.2956,7.4755,7.6512,7.7559,7.7793,7.6914,7.6074,7.5594,7.5518,7.4775,7.401,7.3284,7.2406,7.1489,7.0572,7.0533,7.0495,7.0419,7.0419,7.0419,7.0419,7.0419,7.0419,7.0419,7.0419,7.0419,7.0419,7.0419,0.0,0.0,7.0419,7.0419,7.0419,7.0419,7.0419,7.0419,7.0419,7.0419,7.0419,7.0419,7.0419,7.0419,7.0419,7.0419,7.0419,7.0419,7.0419,7.0419,7.0419,7.0342,7.0288,7.0217,6.9274,6.7712,6.5284,6.4327,6.3759,6.2989,6.278,6.278,6.278,6.2743,6.2695,6.2695,6.2034,6.1484,6.1484,6.0786,6.0309,6.0309,6.0236,6.0236,6.0358,5.9711,5.9271,5.9271,5.9761,6.0054,6.0054,5.9732,5.9579,5.9579,6.0211,6.0593,6.0593,6.1362,6.1761,6.1761,6.1064,6.1073,6.1869,6.1136,6.1218,8.0461,8.1819,8.2186,8.2186,7.8772,7.4111,6.9265,6.4383,5.9501,5.4693,5.3445,5.3298,5.3628,5.3959,5.484,5.6932,5.7519,5.9538,6.4751,6.6786,6.9402,7.377,7.4909,7.5703,7.6591,7.5959,7.5271,7.4775,7.3934,7.3093,7.2253,7.1871,7.1298,7.0419,7.0419,7.0419,7.0419,7.0419,7.0419,7.0419,7.0419,7.0419,7.0419,7.0419,7.0419,7.0419,7.0419,0.0,0.0,7.0419,7.0419,7.0419,7.0419,7.0419,7.0419,7.0419,7.0419,7.0419,7.0419,7.0419,7.0419,7.0419,7.0419,7.0419,7.0419,7.0419,7.0419,7.0419,7.0419,7.0419,7.0419,6.9263,6.781,6.6499,6.5484,6.4751,6.4383,6.431,6.431,6.431,6.431,6.4163,6.3686,6.3319,6.2915,6.2401,6.163,6.1117,6.1117,6.0713,6.0419,6.0419,6.0126,5.9942,5.9942,6.0188,6.0506,6.0908,6.082,6.0963,6.1433,6.1567,6.1633,6.1633,6.1888,6.1761,6.1254,6.1435,6.1435,6.1254,6.1435,6.1688,7.8993,8.0865,8.1489,8.1489,7.7635,7.2642,6.8017,6.3209,5.8474,5.4106,5.3203,5.3203,5.3203,5.3203,5.3482,5.4289,5.4583,5.6271,6.0639,6.2581,6.5306,6.9874,7.1886,7.3346,7.4557,7.4951,7.4851,7.424,7.3208,7.2329,7.1718,7.1483,7.1101,7.0419,7.0419,7.0419,7.0419,7.0419,7.0419,7.0419,7.0419,7.0419,7.0419,7.0419,7.0419,7.0419,7.0419,0.0,0.0,7.0419,7.0419,7.0419,7.0419,7.0419,7.0419,7.0419,7.0419,7.0419,7.0419,7.0419,7.0419,7.0419,7.0419,7.0419,7.0419,7.0419,7.0419,7.0419,7.0298,7.0213,7.0213,6.915,6.7905,6.7337,6.6408,6.5595,6.5375,6.5301,6.5301,6.5301,6.5118,6.4787,6.42,6.387,6.3503,6.289,6.2328,6.1961,6.1961,6.1447,6.1227,6.1484,6.1484,6.13,6.0786,6.097,6.1288,6.1764,6.1812,6.2029,6.2537,6.2599,6.2493,6.2222,6.2549,6.2322,6.1498,6.2331,6.244,6.1897,6.2476,6.2585,7.6864,7.9213,7.98,7.98,7.5542,7.0265,6.6256,6.1557,5.7116,5.3885,5.3203,5.3203,5.3203,5.3203,5.3482,5.4289,5.506,5.6712,5.9979,6.2248,6.3944,6.4793,6.859,7.0839,7.006,7.2538,7.4201,7.4201,7.2673,0.0,7.168,7.0997,7.0538,7.0419,7.0419,7.0419,7.0419,7.0419,7.0419,7.0419,7.0419,7.0419,7.0419,7.0419,7.0419,7.0419,0.0,0.0,0.0,7.0419,7.0419,7.0419,7.0419,7.0419,7.0419,7.0419,7.0419,7.0419,7.0419,7.0419,7.0419,7.0419,7.0419,7.0419,7.0419,7.0419,7.0419,7.0419,7.0109,6.9816,6.9816,6.9112,6.8195,6.7391,6.6851,6.6256,6.5485,6.5301,6.5301,6.5301,6.464,6.409,6.409,6.3392,6.278,6.278,6.278,6.2805,6.2805,6.278,6.3099,6.398,6.4053,6.3392,6.1741,6.2328,6.278,6.278,6.2716,6.2676,6.2702,6.3314,6.3219,6.2222,6.3748,6.4129,6.3164,6.3961,6.4359,6.4359,6.4359,6.3925,7.066,7.2569,7.3156,7.3156,7.055,6.71,6.3576,6.0309,5.7079,5.3885,5.3203,5.3203,5.3203,5.3203,5.3812,5.5721,5.6271,5.7152,5.9281,6.1101,6.2752,6.4212,6.9133,7.2497,7.2803,7.3653,7.3743,7.2559,7.1985,7.145,7.0839,7.0691,7.0538,7.0419,7.0506,7.0467,7.0419,7.0506,7.0506,7.0419,7.0467,7.0506,7.0419,7.0419,7.0419,0.0,0.0,0.0,0.0,7.0419,7.0419,7.0419,7.0419,7.0419,7.0419,7.0419,7.0419,7.0419,7.0419,7.0419,7.0419,7.0419,7.0419,7.0419,7.0419,7.0419,7.0419,7.0419,7.0109,6.9816,6.9816,6.9091,6.832,6.806,6.7664,6.7247,6.699,6.6953,6.6953,6.6953,6.6733,6.6366,6.5852,6.5521,6.4971,6.3833,6.3686,6.3466,6.2879,6.278,6.2915,6.3172,6.3723,6.387,6.3356,6.3539,6.3906,6.4494,6.4479,6.471,6.5286,6.5347,6.4958,6.3993,6.4385,6.4391,6.3997,6.4287,6.4106,6.3563,6.3019,6.2621,6.6109,6.8348,6.9192,6.9192,6.688,6.3943,6.13,5.8584,5.5978,5.3702,5.3203,5.3203,5.3203,5.3203,5.368,5.5207,5.5941,5.6742,5.7892,5.9743,6.2034,6.501,6.8635,7.1638,7.3535,7.3743,7.317,7.1811,7.1445,7.1041,7.0506,7.0616,7.0616,7.0467,7.0554,7.0554,7.0467,7.0554,7.0554,7.0467,7.0209,7.0232,7.0381,7.0113,7.0113,0.0,0.0,0.0,0.0,7.0419,7.0419,7.0419,7.0419,7.0419,7.0419,7.0419,7.0419,7.0419,7.0419,7.0419,7.0419,7.0419,7.0419,7.0419,7.0419,7.0419,7.0419,7.0419,6.9963,6.9544,6.9544,6.8825,6.8134,6.8134,6.7915,6.7687,6.7687,6.7687,6.7687,6.7687,6.743,6.71,6.6586,6.6256,6.5705,6.4714,6.453,6.4347,6.3833,6.3734,6.387,6.4163,6.442,6.453,6.453,6.453,6.4787,6.5264,6.5301,6.5521,6.6035,6.593,6.5421,6.4446,6.463,6.4494,6.4009,6.3953,6.3671,6.3164,6.2693,6.244,0.0,6.5668,6.6843,6.6843,6.398,6.075,5.9184,5.6565,0.0,5.335,5.3203,5.3203,5.3298,5.3261,5.3277,5.3497,5.484,5.6006,5.6392,5.8632,6.2078,6.7068,6.7726,6.9178,7.2656,7.2979,7.2597,7.168,7.0997,7.0569,7.0623,7.0737,7.0752,7.0601,7.0601,7.0623,7.0608,7.0547,7.0508,7.0493,6.9628,6.9581,7.0304,6.954,6.9655,0.0,0.0,0.0,0.0,7.0419,7.0419,7.0419,7.0419,7.0419,7.0419,7.0419,7.0419,7.0419,7.0419,7.0419,7.0419,7.0419,7.0402,7.0348,7.0402,7.0402,7.0369,7.0369,6.9721,6.9047,6.9047,6.837,6.7687,6.7687,6.7687,6.7687,6.7687,6.7687,6.7687,6.7687,6.71,6.6586,6.6586,6.5962,6.5448,6.5411,6.5411,6.5375,6.5301,6.5301,6.5595,6.6329,6.5742,6.5301,6.5301,6.5264,6.5228,6.5228,6.5228,6.5228,6.5228,6.5228,6.4746,6.3737,6.4479,6.4446,6.3494,6.3356,6.3337,6.3373,6.3337,6.3273,5.6492,0.0,5.846,5.846,5.7726,5.6748,0.0,5.495,5.4179,5.335,5.3203,5.3408,5.3995,5.3628,5.4032,5.6455,5.7703,5.8487,5.8874,6.1655,6.5501,7.0536,7.1459,7.2032,7.2902,7.2979,7.2367,7.0839,7.055,7.0467,7.0569,7.0678,7.0723,7.0678,7.0737,7.0639,7.0451,6.9927,6.9621,6.9534,6.8755,6.8778,6.9464,6.9273,6.9655,0.0,0.0,0.0,7.0419,7.0419,7.0419,7.0419,7.0419,7.0419,7.0419,7.0419,7.0419,7.0419,7.0419,7.0419,7.0419,7.0419,7.0196,7.0001,7.0298,7.0179,6.9947,6.9947,6.9282,6.8548,6.8548,6.8134,6.7687,6.7687,6.7687,6.7687,6.7687,6.7687,6.7687,6.7687,6.754,6.7393,6.7393,6.7247,6.6916,6.6329,6.6219,6.5999,6.5375,6.5301,6.5375,6.5558,6.5411,6.5301,6.5301,6.4751,6.4383,6.4383,6.4383,6.4383,6.4383,6.4383,6.3929,6.2896,6.356,6.4137,6.4458,6.433,6.4601,6.5146,6.4452,6.4106,5.3849,5.4987,5.6161,5.6161,5.5868,5.5486,5.506,5.4363,5.3739,5.3277,5.3203,5.3335,5.3775,5.3482,5.3885,5.6014,5.7192,5.8879,6.173,6.3813,6.695,7.2012,7.2838,7.2979,0.0,7.2979,7.2291,7.0533,7.0483,7.0562,7.0647,7.0752,7.0772,7.0729,7.0801,7.0758,7.0593,6.9796,6.9359,6.9268,6.8097,6.809,6.9196,6.8776,6.9273,0.0,0.0,0.0,7.0419,7.0419,7.0419,7.0419,7.0419,7.0419,7.0419,7.0419,7.0419,7.0419,7.0419,7.0264,7.0109,6.989,6.9682,6.9564,6.9981,6.9644,6.924,6.9662,6.9112,6.8394,6.8394,6.8033,6.7687,6.7687,6.7687,6.7687,6.7687,6.7687,6.7687,6.7687,6.7687,6.7687,6.7687,6.7687,6.754,6.71,6.7026,6.688,6.6476,6.6402,6.6402,6.6402,6.6072,6.5852,6.5852,6.5118,6.464,6.464,6.464,6.464,6.464,6.464,6.4395,6.3841,6.415,6.451,6.4948,6.4749,6.4913,6.535,6.5137,6.5053,5.3371,5.4987,5.6565,5.6308,5.5831,5.5354,5.5244,5.4179,5.3203,5.3203,5.3203,5.3261,5.3371,5.3414,5.386,5.495,5.659,5.9609,6.509,6.6167,6.8104,7.2826,7.3246,7.3132,7.3017,7.2864,7.2138,7.0533,7.0562,7.0708,7.0723,7.0801,7.0843,7.0815,7.0857,7.078,7.0609,6.9692,6.915,6.8982,6.7376,6.7378,6.8792,6.818,6.8754,7.0228,0.0,0.0,7.0419,7.0419,7.0419,7.0419,7.0419,7.0419,7.0419,7.0419,7.0419,7.0402,7.0315,7.0055,6.9623,6.9219,6.9047,6.9069,6.9564,6.9091,6.8586,6.9344,6.8959,6.8272,6.8272,6.7982,6.7687,6.7687,6.7687,6.7687,6.7687,6.7687,6.7687,6.7687,6.7687,6.7687,6.7687,6.7687,6.7687,6.7687,6.7687,6.7687,6.7687,6.7687,6.7687,6.7687,6.71,6.6659,6.6659,6.6072,6.5668,6.5668,6.5558,6.5485,6.5485,6.5375,6.5301,6.5301,6.5197,6.5217,6.5327,6.5094,6.5077,6.5223,6.5722,6.5965,5.4032,5.4987,5.5464,5.4106,5.4179,5.4399,5.3739,5.3408,5.3203,5.3203,5.3203,5.3408,5.4106,5.4478,5.5525,5.8042,6.1619,6.552,6.9643,7.0565,7.1876,7.4754,7.4469,7.3743,7.3055,7.2329,7.1489,7.0495,7.0538,7.0632,7.0708,7.0737,7.0772,7.0885,7.0829,7.0522,6.9885,6.8932,6.8056,6.7257,6.6246,6.6265,6.7202,6.7722,6.8495,6.9425,0.0,7.0419,7.0419,7.0419,7.0419,7.0419,7.0419,7.0419,7.0419,7.0419,7.0419,7.0331,7.0019,6.9604,6.9198,6.9112,6.8825,6.8609,6.9069,6.8825,6.8442,6.8548,6.8235,6.7784,6.7784,6.7767,6.7687,6.7687,6.7687,6.7687,6.7687,6.7687,6.7687,6.7687,6.7687,6.7687,6.7687,6.7687,6.7687,6.7687,6.7687,6.7687,6.7687,6.7687,6.7687,6.7687,6.7577,6.7504,6.7504,6.7393,6.732,6.732,6.6696,6.6329,6.6329,6.5668,6.5301,6.5301,6.5275,6.5605,6.6303,6.6069,6.6381,6.7076,6.6907,6.6837,5.3665,5.4326,5.4876,5.4583,5.5097,5.5611,5.5309,5.4926,5.4506,5.4044,5.397,5.4107,5.4646,5.6023,5.8406,6.2484,6.5124,6.778,7.1099,7.1707,7.2734,7.5212,7.4736,7.3896,7.3093,7.2215,7.1336,7.0495,7.0585,7.0678,7.0708,7.0758,7.0829,7.0898,7.0448,6.9711,6.8675,6.7827,6.7242,6.6929,6.6044,6.6026,6.6834,6.7623,6.8434,6.9234,0.0,7.0419,7.0419,7.0419,7.0419,7.0419,7.0419,7.0419,7.0386,7.0161,6.9909,6.9625,6.9198,6.8893,6.8665,6.8442,6.821,6.8109,6.8609,6.8394,6.8058,6.8321,6.8058,6.7687,6.7687,6.7687,6.7687,6.7687,6.7687,6.7687,6.7687,6.7687,6.7687,6.7687,6.7687,6.7687,6.7687,6.7687,6.7687,6.7687,6.7687,6.7687,6.7687,6.7687,6.7687,6.7687,6.7687,6.7687,6.7687,6.7687,6.7687,6.7687,6.7357,6.7136,6.7136,6.6769,6.6586,6.6586,6.6586,6.6769,6.7136,6.7083,6.7212,6.7606,6.7387,6.7275,5.3424,5.3922,5.462,5.5611,5.6198,5.6734,5.7641,5.7243,5.6639,5.666,5.6245,5.5949,5.6137,5.8517,6.1789,6.5925,6.8139,7.0086,7.2233,7.2639,7.3418,7.5289,7.4545,7.3667,7.3055,7.2024,7.1107,7.0457,7.0562,7.0693,7.0708,7.0787,7.078,7.0629,6.9893,6.8905,6.7531,6.6803,6.6468,6.6457,6.582,6.5839,6.6453,6.7546,6.8373,6.8929,7.0015,7.0435,7.0419,7.0435,7.0435,7.0419,7.0419,7.0419,7.0331,6.9965,6.9584,6.9176,6.8572,6.8394,6.8321,6.7836,6.7687,6.7794,6.8134,6.7993,6.7757,6.8134,6.7993,6.7687,6.7687,6.7687,6.7687,6.7687,6.7687,6.7687,6.7687,6.7687,6.7687,6.7687,6.7834,6.7981,6.7981,6.7981,6.8017,6.8201,6.7944,6.776,6.7944,6.7797,6.7687,6.7687,6.7687,6.7687,6.7687,6.7687,6.7687,6.7687,6.7687,6.776,6.7944,6.7797,6.7687,6.7687,6.7687,6.7687,6.7687,6.7687,6.7687,6.7687,6.7552,6.747,5.4106,5.4363,5.4766,5.6345,5.6198,5.65,5.9651,5.9711,5.9794,6.2184,6.1047,5.9607,5.9628,6.2608,6.5425,6.6681,7.1216,7.4511,7.4357,7.4964,7.5436,7.5497,7.4049,7.3055,7.3017,7.1489,7.0495,7.0419,7.0538,7.0632,7.0708,7.0723,7.0412,6.9821,6.9299,6.8285,6.669,6.6252,6.5641,6.4862,6.5175,6.5276,6.5286,6.7263,6.8127,6.8104,6.9811,7.0522,7.0419,7.0538,7.0522,7.0419,7.0419,7.0419,7.0331,6.9965,6.9797,6.9623,6.8711,6.8394,6.8321,6.7836,6.7687,6.7714,6.7741,6.7741,6.7714,6.7741,6.7741,6.7687,6.7687,6.7687,6.7687,6.7687,6.7687,6.7687,6.7687,6.7687,6.7687,6.7687,6.8311,6.8825,6.8825,6.8825,6.9082,6.9816,6.8641,6.7944,6.8715,6.8164,6.7687,6.7687,6.7687,6.7687,6.7687,6.7687,6.7687,6.7687,6.7687,6.8017,6.8788,6.8091,6.7687,6.7687,6.7687,6.7687,6.7687,6.7687,6.7687,6.7687,6.7552,6.747,5.2821,5.3261,5.4032,5.5647,5.6969,5.8483,6.0923,6.1463,6.2045,6.4112,6.4114,6.3785,6.3949,6.5306,6.7216,6.9716,7.2786,7.4941,7.5194,7.5501,7.5436,7.4754,7.3705,7.2788,7.2253,7.1107,7.0281,7.0055,7.0179,7.0179,6.9907,7.0015,6.9861,6.9329,6.8367,6.7341,6.6252,6.5331,6.4592,6.4009,6.4556,6.4716,6.4593,6.6155,6.6826,6.6802,6.8269,6.8884,6.889,6.9496,6.9687,6.9677,6.9936,6.9853,6.9546,6.9091,6.8734,6.8442,6.8084,6.7956,6.7941,6.7767,6.7687,6.7687,6.7687,6.7687,6.7687,6.7687,6.7687,6.7687,6.7687,6.7687,6.7687,6.7687,6.7687,6.7687,6.7687,6.8091,6.8458,6.8458,6.9082,6.9633,6.9633,6.9633,6.9743,7.0036,6.9559,6.9302,6.9596,6.9376,6.9192,6.9192,6.8752,6.8238,6.7724,6.7687,6.7687,6.7687,6.7687,6.7834,6.8128,6.7834,6.7687,6.7687,6.7687,6.7687,6.7687,6.7687,6.7687,6.7687,6.7633,6.7606,5.2071,5.2401,5.323,5.4825,5.6698,5.8966,6.2256,6.3823,6.5324,6.7772,6.7751,6.7131,6.6618,6.714,6.8565,7.1247,7.3394,7.4855,7.5295,7.5325,7.4954,7.3947,7.311,7.2367,7.1773,7.0916,7.0281,7.0019,7.0038,6.9927,6.9644,6.9663,6.9454,6.89,6.7674,6.6636,6.5804,6.4605,6.3873,6.3534,6.3909,6.4138,6.4312,6.5694,6.6303,6.6294,6.7452,6.7928,6.7935,6.8428,6.8693,6.8841,6.936,6.9365,6.9047,6.8586,6.821,6.7915,6.7767,6.7687,6.7687,6.7687,6.7687,6.7687,6.7687,6.7687,6.7687,6.7687,6.7687,6.7687,6.7687,6.7687,6.776,6.8017,6.8091,6.8128,6.8385,6.8898,6.9302,6.9302,6.9926,7.0477,7.0477,7.0477,7.0587,7.0807,7.044,7.0183,7.044,7.0257,7.011,7.011,6.9596,6.9045,6.8495,6.8458,6.8348,6.8091,6.8091,6.7944,6.7714,6.7687,6.7687,6.7687,6.7687,6.7687,6.7687,6.7687,6.7687,6.7714,6.7944,6.8091,5.2201,5.2022,5.2488,5.4017,5.5147,5.7513,6.375,6.7036,6.9926,7.3883,7.2244,6.9455,6.7248,6.8248,6.9716,7.0647,7.2972,7.4678,7.4604,7.4512,7.4127,7.3188,7.2264,7.168,7.168,7.0916,7.0402,7.0402,7.0164,7.0039,7.0091,6.9778,6.9227,6.8414,6.7289,6.6295,6.539,6.4196,6.3534,6.3382,6.3265,6.3661,6.4521,6.6058,6.6736,6.6751,6.7684,6.8013,6.7843,6.7504,6.76,6.7985,6.8753,6.9091,6.9025,6.8586,6.8394,6.8321,6.7863,6.7687,6.7687,6.7687,6.7687,6.7687,6.7687,6.7687,6.7687,6.7687,6.7687,6.7687,6.7687,6.7687,6.7907,6.8715,6.8898,6.9119,6.9926,7.011,7.011,7.011,7.077,7.1293,7.1293,7.1293,7.1578,7.2386,7.1138,7.0403,7.1211,7.0624,7.011,7.011,7.011,7.011,7.011,7.011,6.9743,6.8972,6.8898,6.8568,6.7724,6.7687,6.7687,6.7687,6.7687,6.7687,6.7687,6.7714,6.7714,6.7724,6.8531,6.8898,5.0528,5.1557,5.3267,5.4861,5.8552,6.2891,6.7125,6.8332,6.9834,7.4545,7.3373,7.1122,6.9796,6.9524,6.962,6.9917,7.1626,7.3101,7.3605,7.3645,7.3246,7.2324,7.1898,7.145,7.0839,7.0572,7.0161,6.9526,6.9504,6.9235,6.8609,6.8646,6.8444,6.7873,6.6799,6.5992,6.539,6.4196,6.3579,6.3534,6.372,6.3764,6.3617,6.4516,6.4953,6.5064,6.5846,6.603,6.5728,6.5937,6.6739,6.7868,6.78,6.8111,6.8562,6.8084,6.7915,6.7889,6.7767,6.7687,6.7687,6.7687,6.7687,6.7687,6.7687,6.7687,6.7687,6.7687,6.7687,6.7687,6.7687,6.7687,6.7907,6.8715,6.8898,6.9119,6.9926,7.055,7.0954,7.0954,7.1615,7.2165,7.2165,7.2165,7.2239,7.2459,7.2092,7.1872,7.2129,7.1945,7.1578,7.0991,7.0954,7.0734,7.0146,7.011,7.0,6.9743,6.9743,6.9119,6.7787,6.7687,6.7687,6.7687,6.7687,6.7687,6.7687,6.8274,6.8531,6.8568,6.9376,6.9743,5.1213,5.2909,5.508,5.6323,6.0324,6.5153,6.9501,7.097,7.2253,7.521,7.4382,7.2923,7.2333,7.1319,7.0738,7.1112,7.1717,7.2346,7.2803,7.2807,7.2425,7.1452,7.1296,7.1025,7.0457,7.0419,7.0126,6.9405,6.934,6.8975,6.821,6.8284,6.8024,6.7416,6.6533,6.582,6.5176,6.4108,6.3602,6.3602,6.3758,6.3654,6.3359,6.4134,6.452,6.4595,6.5035,6.4917,6.4424,6.4953,6.5858,6.6863,6.6925,6.7432,6.8084,6.7784,6.7687,6.7687,6.7687,6.7687,6.7687,6.7687,6.7687,6.7687,6.7687,6.7687,6.7687,6.7687,6.7687,6.7687,6.7687,6.7944,6.8385,6.9192,6.9376,6.9669,7.0807,7.1431,7.1798,7.1798,7.2165,7.2496,7.2496,7.2496,7.2496,7.2496,7.2496,7.2496,7.2496,7.2496,7.2312,7.1835,7.1798,7.1578,7.1101,7.1064,7.0917,7.0587,7.0587,7.0,6.8715,6.8641,6.8641,6.8641,6.8641,6.8641,6.8641,6.9155,6.9376,6.9412,7.022,7.0587,5.3265,5.5286,5.7507,5.8334,6.1425,6.5695,7.1194,7.4291,7.5932,7.5779,7.5196,7.4651,7.442,7.32,7.2443,7.3154,7.2591,7.2091,7.2091,7.2035,7.1655,7.0814,7.0647,7.0554,7.0435,7.0419,7.023,6.9759,6.9463,6.9085,6.8562,6.8297,6.7839,6.7099,6.6391,6.5608,6.4805,6.401,6.3602,6.3602,6.3488,6.3488,6.3624,6.4595,6.5019,6.5006,6.492,6.4445,6.378,6.4443,6.4964,6.54,6.6135,6.6943,6.7714,6.7714,6.7687,6.7687,6.7687,6.7687,6.7687,6.7687,6.7687,6.7687,6.7687,6.7687,6.7687,6.7687,6.7687,6.7687,6.7687,6.8311,6.9119,6.9926,7.0146,7.0624,7.2165,7.2496,7.2496,7.2496,7.2496,7.2496,7.2496,7.2496,7.2496,7.2496,7.2496,7.2496,7.2496,7.2496,7.2496,7.2496,7.2496,7.2496,7.2496,7.2496,7.2202,7.1468,7.1403,7.1101,7.033,7.0183,7.011,7.011,7.011,7.011,7.011,7.0183,7.022,7.022,7.1027,7.1403,5.2418,5.5249,5.8615,6.0522,6.5576,7.0738,7.3545,7.5115,7.5985,7.5879,7.5772,7.5278,7.3806,7.3351,7.2808,7.1668,7.1283,7.1168,7.1168,7.1112,7.1017,7.0811,7.0737,7.0647,7.0554,7.0554,7.0179,6.9303,6.9176,6.8803,6.8095,6.7504,6.7173,6.7099,6.5798,6.499,6.4805,6.401,6.3602,0.0,6.3579,6.3579,6.3624,6.4253,6.4719,6.5019,6.4291,6.3942,6.3814,6.353,6.4291,6.5607,6.569,6.6596,6.7847,6.7741,6.7687,6.7687,6.7687,6.7687,6.7687,6.7687,6.7687,6.7687,6.7687,6.7687,6.7687,6.7687,6.7687,6.7687,6.7687,6.8311,6.9119,6.9926,7.0587,7.1321,7.2312,7.2496,7.2496,7.2496,7.2496,7.2496,7.2496,7.2496,7.2496,7.2496,7.2496,7.2496,7.2496,7.2496,7.2496,7.2496,7.2496,7.2496,7.2496,7.2496,7.2422,7.2275,7.2239,7.2165,7.1982,7.077,7.011,7.011,7.011,7.011,7.011,7.0734,7.1064,7.1064,7.1872,7.2239,5.3105,5.6436,6.0484,6.4511,6.859,7.1923,7.3123,7.429,7.4996,7.4727,7.5033,7.5048,7.4044,7.3313,7.2591,7.1668,7.1168,7.0898,7.0898,7.0871,7.0829,7.0801,7.0758,7.0737,7.0647,7.0601,7.0196,6.9202,6.9134,6.8585,6.7362,6.7059,6.6568,6.5914,6.518,6.4619,6.4211,6.3825,6.3602,6.3602,6.3602,6.3714,6.3915,6.4131,6.4407,6.4631,6.4128,6.3808,6.3654,6.3336,6.4192,6.5706,6.5557,6.6463,6.7899,6.7741,6.7687,6.7687,6.7687,6.7687,6.7687,6.7687,6.7687,6.7687,6.7687,6.7687,6.7687,6.7687,6.7687,6.7797,6.8164,6.8862,6.9669,7.0477,7.0991,7.1541,7.2349,7.2496,7.2496,7.2496,7.2496,7.2496,7.2496,7.2496,7.2496,7.2496,7.2496,7.2496,7.2496,7.2496,7.2496,7.2496,7.2496,7.2496,7.2496,7.2496,7.2496,7.2496,7.2496,7.2496,7.2496,7.1688,7.1248,7.1248,7.1248,7.1248,7.1248,7.1688,7.1872,7.1872,7.2312,7.2496,5.344,5.7491,6.2294,6.7852,7.0225,7.1276,7.1782,7.289,7.3649,7.3261,7.3874,7.4433,7.4129,7.3029,7.2129,7.2014,7.136,7.0898,7.0898,7.0898,7.0871,7.0815,7.0815,7.0787,7.0699,7.0448,6.9971,6.9248,6.8812,6.8054,6.6798,6.6604,6.5952,6.4678,6.461,6.427,6.3602,6.3602,6.3602,6.3602,6.3602,6.3764,6.4087,6.4042,6.4083,6.4209,6.4042,6.3764,6.3405,6.3382,6.4335,6.5755,6.557,6.6515,6.7926,6.7767,6.7687,6.7687,6.7687,6.7687,6.7687,6.7687,6.7687,6.7687,6.7687,6.7687,6.7687,6.7687,6.7797,6.8054,6.8752,6.9596,7.0477,7.1138,7.1403,7.1688,7.2349,7.2496,7.2496,7.2496,7.2496,7.2496,7.2496,7.2496,7.2496,7.2496,7.2496,7.2496,7.2496,7.2496,7.2496,7.2496,7.2496,7.2496,7.2496,7.2496,7.2496,7.2496,7.2496,7.2496,7.2496,7.2496,7.2496,7.2496,7.2496,7.2496,7.2496,7.2496,7.2496,7.2496,7.2496,7.2496,5.0946,5.6455,6.2743,6.7183,6.9248,7.0419,7.1291,7.1979,7.2528,7.2706,7.3261,7.3409,7.2553,7.2304,7.1937,7.1206,7.0975,7.0898,7.0898,7.0898,7.0898,7.0885,7.0885,7.0857,7.0787,6.9741,6.9053,6.919,6.7545,6.6607,6.6851,6.5619,6.4887,6.4782,6.4099,6.3691,6.3602,6.3602,6.3602,6.3602,6.3602,6.3624,6.3691,6.3669,6.3873,6.4189,6.372,6.3497,6.3557,6.3465,6.4429,6.602,6.5706,6.6604,6.8018,6.7794,6.7687,6.7687,6.7687,6.7687,6.7687,6.7687,6.7687,6.7687,6.7687,6.7687,6.7687,6.7687,6.8201,6.8752,6.8862,7.0036,7.1174,7.1256,7.1835,7.2386,7.2496,7.2496,7.2496,7.2496,7.2496,7.2496,7.2496,7.2496,7.2496,7.2496,7.2496,7.2496,7.2496,7.2496,7.2496,7.2496,7.2496,7.2496,7.2496,7.2496,7.2496,7.2496,7.2496,7.2496,7.2496,7.2496,7.2496,7.2496,7.2496,7.2496,7.2496,7.2496,7.2496,7.2496,7.2496,7.2496,5.1902,5.6682,6.1537,6.5644,6.7444,6.8541,6.9617,7.048,7.101,7.0972,7.1172,7.1522,7.201,7.1766,7.136,7.0975,7.0898,7.0898,7.0898,7.0898,7.0744,7.0283,7.0244,7.0038,6.9511,6.8891,6.8379,6.8013,6.7092,6.6275,6.5668,6.4964,6.4443,6.4136,6.3788,6.3602,6.3602,6.3602,6.3602,6.3602,6.3602,6.3602,6.3602,6.3602,6.3714,6.3851,6.3587,6.3557,6.3616,6.4016,6.4884,6.5949,6.6223,6.6985,6.7941,6.7767,6.7687,6.7687,6.7687,6.7687,6.7687,6.7687,6.7687,6.7687,6.7687,6.7687,6.7797,6.8238,6.8641,6.9119,7.0036,7.077,7.1403,7.1872,7.2239,7.2496,7.2496,7.2496,7.2496,7.2496,7.2496,7.2496,7.2496,7.2496,7.2496,7.2496,7.2496,7.2496,7.2496,7.2496,7.2496,7.2496,7.2496,7.2496,7.2496,7.2496,7.2496,7.2496,7.2496,7.2496,7.2496,7.2496,7.2496,7.2496,7.2496,7.2496,7.2496,7.2496,7.2496,7.2496,7.2496,7.2496,5.1658,5.5296,5.8563,6.2352,6.4451,6.5965,6.7323,6.8493,6.9357,6.944,6.9526,6.9891,7.0948,7.0914,7.0748,7.0748,7.0805,7.0898,7.0898,7.0898,7.0591,6.9821,6.9706,6.936,6.8475,6.7961,6.7458,6.7033,6.6402,6.5593,6.4641,6.4419,6.4119,6.3616,6.3602,6.3602,6.3602,6.3602,6.3602,6.3602,6.3602,6.3602,6.3602,6.3602,6.3602,6.3602,6.3602,6.3602,6.3676,6.447,6.5217,6.5853,6.6605,6.7292,6.7899,6.7741,6.7687,6.7687,6.7687,6.7687,6.7687,6.7687,6.7687,6.7687,6.7687,6.7834,6.8128,6.8752,6.9192,6.9816,7.0991,7.1439,7.1762,7.2349,7.2496,7.2496,7.2496,7.2496,7.2496,7.2496,7.2496,7.2496,7.2496,7.2496,7.2496,7.2496,7.2496,7.2496,7.2496,7.2496,7.2496,7.2496,7.2496,7.2496,7.2496,7.2496,7.2496,7.2496,7.2496,7.2496,7.2496,7.2496,7.2496,7.2496,7.2496,7.2496,7.2496,7.2496,7.2496,7.2496,7.2496,7.2496,4.7902,5.0492,5.3172,5.6418,5.9692,6.2522,6.4314,6.6025,6.7625,6.8853,6.9134,6.8976,6.8565,6.9497,7.0337,7.0337,7.0637,7.0898,7.0898,7.0898,7.0591,6.9821,6.9706,6.936,6.8475,6.6875,6.6237,6.6957,6.4892,6.3873,6.4544,6.3993,6.3653,6.3602,6.3602,6.3602,6.3602,6.3602,6.3602,6.3602,6.3602,6.3602,6.3602,6.3602,6.3602,6.3602,6.3602,6.3602,6.3676,6.447,6.5217,6.5853,6.6605,6.7292,6.7899,6.7741,6.7687,6.7687,6.7687,6.7687,6.7687,6.7687,6.7687,6.7687,6.7687,6.8238,6.8862,6.8898,7.0,7.1183,7.1256,7.1872,7.2459,7.2496,7.2496,7.2496,7.2496,7.2496,7.2496,7.2496,7.2496,7.2496,7.2496,7.2496,7.2496,7.2496,7.2496,7.2496,7.2496,7.2496,7.2496,7.2496,7.2496,7.2496,7.2496,7.2496,7.2496,7.2496,7.2496,7.2496,7.2496,7.2496,7.2496,7.2496,7.2496,7.2496,7.2496,7.2496,7.2496,7.2496,7.2496,7.2496,4.6001,4.7985,5.0398,5.3665,5.6169,5.8662,6.2006,6.4155,6.5753,6.6816,6.7528,6.7709,6.6904,6.805,6.9107,6.9033,6.9415,6.9934,7.0455,7.0748,7.0591,6.9821,6.9206,6.8513,6.7667,6.6542,6.5756,6.5553,6.4728,6.4162,6.3965,6.3705,6.3602,6.3602,6.3602,6.3602,6.3602,6.3602,6.3602,6.3602,6.3602,6.3602,6.3602,6.3602,6.3602,6.3602,6.3602,6.3602,6.3713,6.5088,6.57,6.5927,6.716,6.7771,6.7899,6.7741,6.7687,6.7687,6.7687,6.7687,6.7687,6.7687,6.7687,6.7687,6.7687,6.8238,6.9009,6.9522,7.0477,7.1403,7.1945,7.2275,7.2496,7.2496,7.2496,7.2496,7.2496,7.2496,7.2496,7.2496,7.2496,7.2496,7.2496,7.2496,7.2165,7.1101,7.1835,7.2129,7.1101,7.1872,7.2496,7.2496,7.2496,7.2496,7.2496,7.2496,7.2496,7.2496,7.2496,7.2496,7.2496,7.2496,7.2496,7.2496,7.2496,7.2496,7.2496,7.2496,7.2496,7.2496,7.2496,7.2496,4.3935,4.5567,4.7829,5.0802,5.2564,5.481,5.9504,6.1781,6.3376,6.5123,6.6219,6.6601,6.5581,6.6388,6.7306,6.7633,6.8372,6.9137,6.9807,7.0126,7.0134,6.9731,6.8667,6.7744,6.7167,6.6123,6.5284,6.4751,6.4464,0.0,6.3624,6.3602,6.3602,6.3602,6.3602,6.3602,6.3602,6.3602,6.3602,6.3602,6.3602,6.3602,6.3602,6.3602,6.3602,6.3602,6.3602,6.3602,6.375,6.5422,6.5959,6.5927,6.7492,6.803,6.7899,6.7741,6.7687,6.7687,6.7687,6.7687,6.7687,6.7687,6.7871,6.8091,6.8091,6.8862,6.9816,7.0367,7.1101,7.1835,7.2349,7.2496,7.2496,7.2496,7.2496,7.2496,7.2496,7.2496,7.2496,7.2496,7.2496,7.2496,7.2496,7.2496,7.2129,7.1064,7.1835,7.2129,7.1027,7.1835,7.2496,7.2496,7.2496,7.2496,7.2496,7.2496,7.2496,7.2496,7.2496,7.2496,7.2496,7.2496,7.2496,7.2496,7.2496,7.2496,7.2496,7.2496,7.2496,7.2496,7.2496,7.2496,0.0,0.0,0.0,4.7535,4.8783,5.0936,5.6632,5.8681,6.0381,6.3803,6.5292,6.5626,6.4572,6.4496,6.4953,6.6229,6.7519,6.8542,6.8957,6.9082,6.923,6.9613,6.8141,6.7077,6.7064,6.5611,6.4699,6.4699,6.4009,6.3602,6.3602,6.3602,6.3602,6.3602,6.3602,6.3602,6.3602,6.3602,6.3602,6.3602,6.3602,6.3602,6.3602,6.3602,6.3602,6.3602,6.3602,6.3602,6.375,6.5422,6.5959,6.5927,6.7492,6.803,6.7899,6.7741,6.7714,6.7714,6.7714,6.7714,6.7714,6.7714,6.8238,6.8898,6.8898,7.0036,7.1293,7.1293,7.1872,7.2496,7.2496,7.2496,7.2496,7.2496,7.2496,7.2496,7.2496,7.2496,7.2496,7.2496,7.2496,7.2496,7.2496,7.2496,7.2496,7.2459,7.2459,7.2459,7.2422,7.2459,7.2459,7.2496,7.2496,7.2496,7.2496,7.2496,7.2496,7.2532,7.2532,7.2569,7.2569,7.2569,7.2532,7.2532,7.2496,7.2496,7.2496,7.2496,7.2496,7.2496,7.2496,7.2496,4.0482,0.0,0.0,0.0,0.0,0.0,5.0254,5.3171,5.6061,5.9457,6.1345,6.265,6.3521,6.3799,6.3965,6.4219,6.5293,6.64,6.7239,6.811,6.8479,6.8028,6.7478,6.6928,6.6374,6.5331,6.4592,0.0,6.4169,6.3915,6.3602,6.3602,6.3602,6.3602,6.3602,6.3602,6.3602,6.3602,6.3602,6.3602,6.3602,6.3602,6.3602,6.3602,6.3602,6.3602,6.3602,6.3602,6.375,6.5422,6.5959,6.5927,6.7492,6.803,6.7899,6.7741,6.7767,6.7847,6.7847,6.7847,6.7847,6.7847,6.8319,6.8898,6.8898,7.0036,7.1293,7.1293,7.1872,7.2496,7.2496,7.2496,7.2496,7.2496,7.2496,7.2496,7.2496,7.2496,7.2496,7.2496,7.2496,7.2496,7.2496,7.2496,7.2092,7.0954,7.1284,7.1431,7.0844,7.1284,7.1872,7.2459,7.2496,7.2496,7.2496,7.2496,7.2753,7.334,7.3377,7.3634,7.4221,7.367,7.3377,7.3377,7.2789,7.2496,7.2496,7.2496,7.2496,7.2496,7.2496,7.2496,4.0499,4.1431,0.0,4.3609,0.0,0.0,4.8489,5.0645,5.3011,5.6962,5.8961,6.0478,6.204,6.2145,6.2153,6.2812,6.3483,6.446,6.5936,6.6744,6.7222,6.7294,6.6612,6.6101,6.6005,6.5085,6.4407,6.4192,6.4046,6.3851,6.3602,6.3602,6.3602,6.3602,6.3602,6.3602,6.3602,6.3602,6.3602,6.3602,6.3602,6.3602,6.3602,6.3602,6.3602,6.3602,6.3602,6.3602,6.3728,6.5315,6.5912,6.5927,6.7442,6.7993,6.7978,6.7847,6.7873,6.7967,6.7967,6.7952,6.7963,6.8268,6.8823,6.9449,6.9816,7.0807,7.1798,7.1798,7.2165,7.2496,7.2496,7.2496,7.2496,7.2496,7.2496,7.2606,7.2936,7.301,7.2899,7.2569,7.2496,7.2496,7.2496,7.2789,7.2679,7.1725,7.2018,7.2129,7.1651,7.1725,7.1982,7.2459,7.2496,7.2496,7.2496,7.2826,7.3193,7.367,7.4001,7.4404,7.4882,7.4441,7.4184,7.4184,7.3413,7.301,7.301,7.2679,7.2496,7.2496,7.2496,7.2496,4.1339,4.2083,0.0,0.0,4.4088,0.0,4.8654,4.9559,5.065,5.5033,5.6826,5.8079,5.973,5.9538,5.9641,6.1011,6.1663,6.2717,6.4895,6.5274,6.5717,6.6768,6.5614,6.499,6.5689,6.4857,6.4278,6.4278,6.3935,6.3713,6.3602,6.3579,6.3579,6.3602,6.3579,6.3579,6.3602,6.3602,6.3602,6.3602,6.3602,6.3602,6.3602,6.3602,6.3602,6.3602,6.3602,6.3602,6.3728,6.5184,6.5779,6.5902,6.7366,6.8004,6.8081,6.7978,6.803,6.8095,6.8095,6.8092,6.8173,6.8883,6.9623,7.0395,7.1101,7.1872,7.2496,7.2496,7.2496,7.2496,7.2496,7.2496,7.2496,7.2496,7.2569,7.2826,7.356,7.378,7.3634,7.2899,7.2789,7.2789,7.2789,7.3377,7.3817,7.3817,7.3744,7.3707,7.3817,7.312,7.2679,7.2753,7.2789,7.2789,7.2789,7.3413,7.3854,7.3964,7.4661,7.5065,7.5175,7.5102,7.5028,7.5028,7.4147,7.3707,7.3707,7.2899,7.2569,7.2642,7.2532,7.2496,4.2396,4.2796,4.3253,4.3387,4.401,0.0,4.3227,4.5369,4.7922,4.8955,5.0376,5.2149,5.4535,5.5451,5.5734,5.5401,5.8169,6.1187,6.3624,6.4517,6.4786,6.4352,6.4576,6.4576,6.4091,6.445,6.4704,6.4704,6.4613,6.4285,6.3639,6.3511,6.3488,6.3579,6.3511,6.3511,6.3602,6.3602,6.3602,6.3602,6.3602,6.3602,6.3602,6.3602,6.3602,6.3602,6.3602,6.3602,6.3728,6.5088,6.5657,6.578,6.7417,6.7993,6.7978,6.8018,6.8158,6.8259,6.8259,6.8666,6.9196,6.9252,7.0153,7.1232,7.1276,7.1872,7.2496,7.2496,7.2496,7.2496,7.2496,7.2496,7.2496,7.2496,7.2973,7.3487,7.367,7.4221,7.4625,7.4478,7.4441,7.4441,7.4441,7.4588,7.4661,7.4661,7.4111,7.3927,7.4588,7.3964,7.3707,7.4368,7.4441,7.4441,7.4441,7.4588,7.4955,7.5579,7.5799,7.6166,7.6796,7.6203,7.5873,7.5873,7.4441,7.3707,7.3707,7.2899,7.2826,7.345,7.2789,7.2496,4.3384,4.3404,4.3638,4.4091,0.0,0.0,0.0,4.4672,4.6136,4.8069,4.8494,4.9379,5.2313,5.2264,5.2361,5.403,5.6368,5.8746,6.0868,6.2911,6.4025,6.3653,6.3973,6.4025,6.3639,6.4345,6.4953,6.5422,6.5028,6.4619,6.4211,6.3756,6.3534,6.3579,6.3534,6.3534,6.3602,6.3602,6.3602,6.3602,6.3602,6.3602,6.3602,6.3602,6.3602,6.3602,6.3602,6.3802,6.4285,6.5284,6.5965,6.6482,6.7576,6.8055,6.8107,6.8183,6.8284,6.8457,6.8753,6.911,6.9514,7.0169,7.0845,7.1442,7.1798,7.2202,7.2496,7.2496,7.2496,7.2496,7.2496,7.2496,7.2606,7.301,7.3413,7.3927,7.4698,7.5212,7.5616,7.5989,7.6099,7.5873,7.5065,7.5249,7.5506,7.5506,7.5175,7.5028,7.5469,7.4808,7.4441,7.4882,7.4918,7.4918,7.4918,7.5285,7.5689,7.6056,7.6497,7.69,7.7273,7.6937,7.6313,7.5542,7.4331,7.3707,7.3707,7.2899,7.2899,7.367,7.3303,7.2899,0.0,4.4548,4.4703,0.0,0.0,4.3522,0.0,0.0,0.0,0.0,0.0,4.7371,4.9948,4.9104,0.0,5.2231,0.0,0.0,0.0,6.0014,0.0,6.2859,6.3044,6.3193,6.3379,6.3973,6.4753,6.5794,6.4916,6.4396,6.4545,6.3951,6.3579,6.3602,6.3579,6.3579,6.3602,6.3602,6.3602,6.3602,6.3602,6.3602,6.3602,6.3602,6.3602,6.3602,6.3788,6.4173,6.4879,6.5703,6.6494,6.7197,6.7749,6.8107,6.8309,6.8334,6.8408,6.8593,6.926,6.9529,6.9769,7.1057,7.1507,7.1651,7.2312,7.2496,7.2496,7.2496,7.2496,7.2496,7.2496,7.2606,7.2899,7.356,7.3927,7.4515,7.5836,7.624,7.6533,7.7163,7.7273,7.687,7.5586,7.5909,7.635,7.635,7.635,7.635,7.635,7.5763,7.5359,7.5359,7.5359,7.5359,7.5359,7.5983,7.635,7.635,7.6937,7.7273,7.7273,7.7127,7.6313,7.4698,7.4037,7.3707,7.3707,7.3046,7.3046,7.3707,7.3523,7.312,0.0,0.0,0.0,0.0,4.5901,0.0,0.0,0.0,4.466,4.2902,0.0,0.0,0.0,0.0,0.0,0.0,0.0,0.0,5.1065,5.4516,5.7918,6.0072,6.1001,6.1744,6.2487,6.2636,6.3305,6.4805,6.3527,6.297,6.3713,6.3525,6.3488,6.3579,6.3488,6.3488,6.3602,6.3602,6.3602,6.3602,6.3602,6.3602,6.3602,6.3602,6.3602,6.3639,6.4322,6.4693,6.4916,6.6357,6.7061,6.7343,6.8012,6.8259,6.8309,6.8432,6.8481,6.8593,6.926,6.995,7.0639,7.1268,7.1912,7.2386,7.2459,7.2496,7.2496,7.2496,7.2496,7.2496,7.2496,7.3046,7.3597,7.367,7.4771,7.5873,7.6056,7.668,7.7163,7.7273,7.7273,7.7237,7.7053,7.709,7.7163,7.7163,7.7163,7.7163,7.7163,7.7053,7.7017,7.7017,7.7017,7.7017,7.7017,7.709,7.7163,7.7163,7.7237,7.7273,7.7273,7.6644,7.5469,7.3854,7.3744,7.3707,7.3707,7.3597,7.3597,7.367,7.2973,7.2606,0.0,0.0,0.0,0.0,0.0,0.0,4.3164,0.0,4.344,0.0,0.0,0.0,0.0,0.0,0.0,0.0,4.724,0.0,0.0,0.0,5.4442,0.0,0.0,0.0,6.0778,6.141,6.2376,6.3988,6.3044,6.2747,6.3565,6.3557,6.3534,6.3602,6.3557,6.3534,6.3602,6.3602,6.3602,6.3602,6.3602,6.3602,6.3602,6.3602,6.3602,6.3639,6.4433,6.5065,6.5622,6.6762,6.7529,6.7999,6.8321,6.8408,6.8408,6.8383,6.868,6.9174,6.9758,7.0491,7.1276,7.1866,7.2296,7.2496,7.2496,7.2496,7.2496,7.2496,7.2496,7.2606,7.3083,7.345,7.3927,7.4882,7.5616,7.624,7.6717,7.7053,7.7273,7.7273,7.7273,7.7273,7.7273,7.7273,7.7273,7.7273,7.7273,7.7273,7.7273,7.7273,7.7273,7.7273,7.7273,7.7273,7.7273,7.7273,7.7273,7.7273,7.6864,7.6607,7.6607,7.5395,7.4368,7.3707,7.323,7.301,7.301,7.301,7.301,7.301,7.312,7.2936,4.9354,0.0,0.0,0.0,0.0,0.0,0.0,0.0,0.0,0.0,0.0,0.0,0.0,0.0,0.0,0.0,0.0,4.7131,0.0,4.8918,0.0,0.0,0.0,0.0,0.0,5.9404,6.037,6.245,0.0,6.1373,6.2859,6.3156,6.3267,6.3267,6.349,6.3602,6.3602,6.3602,6.3602,6.3602,6.3602,6.3602,6.3602,6.3602,6.3713,6.3973,6.4828,6.5645,6.65,6.7317,6.7986,6.8481,6.8481,6.8481,6.8432,6.8334,6.8802,6.9591,7.0116,7.0965,7.1866,7.2341,7.2496,7.2496,7.2496,7.2496,7.2496,7.2496,7.2679,7.2973,7.356,7.4037,7.4661,7.5836,7.6276,7.6607,7.7163,7.7273,7.7273,7.7273,7.7273,7.7273,7.7273,7.7273,7.7273,7.7273,7.7273,7.7273,7.7273,7.7273,7.7273,7.7273,7.7273,7.7273,7.7273,7.709,7.687,7.665,7.6093,7.5689,7.5432,7.4331,7.3597,7.3377,7.2789,7.2496,7.2496,7.2496,7.2496,7.2496,7.3083,7.3046,0.0,0.0,0.0,4.7484,0.0,0.0,0.0,0.0,4.3547,0.0,0.0,0.0,0.0,0.0,0.0,0.0,0.0,0.0,0.0,0.0,0.0,0.0,0.0,0.0,0.0,5.6134,5.6543,0.0,5.7843,5.7881,6.1113,6.2041,6.245,6.245,6.3193,6.3602,6.3602,6.3602,6.3602,6.3602,6.3602,6.3602,6.3602,6.3602,6.4025,6.4805,6.5682,6.6537,6.7317,6.811,6.8506,6.8481,6.8481,6.8408,6.8309,6.8284,6.8802,6.9591,7.0116,7.125,7.2459,7.2496,7.2496,7.2496,7.2496,7.2496,7.2496,7.2496,7.3046,7.367,7.367,7.4845,7.6056,7.6093,7.6717,7.7273,7.7273,7.7273,7.7273,7.7273,7.7273,7.7273,7.7273,7.7273,7.7273,7.7273,7.7273,7.7273,7.7273,7.7273,7.7273,7.7273,7.7273,7.7273,7.7273,7.6607,7.5799,7.5028,7.4955,7.4588,7.3817,7.3707,7.334,7.2569,7.2496,7.2496,7.2496,7.2496,7.2496,7.2496,7.2532,7.2532,0.0,0.0,5.3156,5.018,0.0,0.0,0.0,0.0,0.0,0.0,0.0,0.0,0.0,0.0,0.0,0.0,0.0,0.0,0.0,0.0,0.0,0.0,0.0,0.0,0.0,0.0,0.0,0.0,5.5614,0.0,5.9404,6.0853,6.2116,6.3156,6.3973,6.4419,6.4419,6.4976,6.4976,6.4396,6.4976,6.4976,6.4419,6.4419,6.4545,6.4865,6.5719,6.6574,6.7354,6.8171,6.8481,6.8481,6.8481,6.8408,6.8284,6.8208,6.8956,7.018,7.1351,7.2084,7.2496,7.2496,7.2496,7.2496,7.2496,7.2496,7.2496,7.2496,7.3083,7.3817,7.4368,7.5285,7.624,7.679,7.709,7.7273,7.7273,7.7273,7.7273,7.7273,7.7273,7.7127,7.6607,7.6533,7.668,7.72,7.7273,7.7273,7.7273,7.7273,7.7273,7.7273,7.6827,7.6533,7.6533,7.5763,7.5212,7.4918,7.4404,7.3964,7.3707,7.3193,7.2789,7.2496,7.2496,7.2496,7.2496,7.2496,7.2496,7.2496,7.2496,7.2496,5.6623,5.6407,0.0,5.3077,5.1383,0.0,4.6161,0.0,0.0,0.0,0.0,0.0,0.0,0.0,0.0,0.0,0.0,0.0,0.0,4.4767,0.0,0.0,0.0,0.0,0.0,0.0,5.2679,5.4128,5.3905,0.0,0.0,0.0,6.1373,6.271,6.4062,6.4953,6.5274,6.5534,6.5534,6.5274,6.5534,6.5534,6.5274,6.4916,6.5125,6.5696,6.5979,6.6722,6.78,6.8296,6.8481,6.8481,6.8481,6.8383,6.8271,6.8428,6.9416,7.0809,7.2084,7.2496,7.2496,7.2496,7.2496,7.2496,7.2496,7.2312,7.2202,7.2789,7.3303,7.3927,7.5028,7.5946,7.668,7.7163,7.7273,7.7273,7.7273,7.7273,7.7273,7.7273,7.7053,7.6717,7.6203,7.5873,7.5873,7.6356,7.643,7.643,7.643,7.643,7.643,7.643,7.5983,7.5579,7.5285,7.4771,7.4368,7.4074,7.356,7.3266,7.3266,7.2789,7.2496,7.2496,7.2496,7.2496,7.2496,7.2496,7.2496,7.2496,7.2789,7.2936]}]]